[[{"header":{"parameterUnit":"m.s-1","parameterCategory":1,"la1":30.6,"la2":28.766,"lo1":-90.7593,"lo2":-88.6598,"dy":0.0162,"dx":0.0183,"nx":116,"ny":114,"refTime":"2023-05-19T00:00:00:Z","depth":0,"parameterNumber":2,"parameterNumberName":"U-component_of_WINDS"},"data":[0.0,0.0,0.0,0.0,0.0,0.0,0.0,0.0,0.0,0.0,0.0,0.0,0.0,0.0,0.0,0.0,0.0,0.0,0.0,0.0,0.0,0.0,0.0,0.0,0.0,0.0,0.0,0.0,0.0,0.0,0.0,0.0,0.0,0.0,0.0,0.0,0.0,0.0,0.0,0.0,0.0,0.0,0.0,0.0,0.0,0.0,0.0,0.0,0.0,0.0,0.0,0.0,0.0,0.0,0.0,0.0,0.0,0.0,0.0,0.0,0.0,0.0,0.0,0.0,0.0,0.0,0.0,0.0,0.0,0.0,0.0,0.0,0.0,0.0,0.0,0.0,0.0,0.0,0.0,0.0,0.0,0.0,0.0,0.0,0.0,0.0,0.0,0.0,0.0,0.0,0.0,0.0,0.0,0.0,0.0,0.0,0.0,0.0,0.0,0.0,0.0,0.0,0.0,0.0,0.0,0.0,0.0,0.0,0.0,0.0,0.0,0.0,0.0,0.0,0.0,0.0,0.0,0.0,0.0,0.0,0.0,0.0,0.0,0.0,0.0,0.0,0.0,0.0,0.0,0.0,0.0,0.0,0.0,0.0,0.0,0.0,0.0,0.0,0.0,0.0,0.0,0.0,0.0,0.0,0.0,0.0,0.0,0.0,0.0,0.0,0.0,0.0,0.0,0.0,0.0,0.0,0.0,0.0,0.0,0.0,0.0,0.0,0.0,0.0,0.0,0.0,0.0,0.0,0.0,0.0,0.0,0.0,0.0,0.0,0.0,0.0,0.0,0.0,0.0,0.0,0.0,0.0,0.0,0.0,0.0,0.0,0.0,0.0,0.0,0.0,0.0,0.0,0.0,0.0,0.0,0.0,0.0,0.0,0.0,0.0,0.0,0.0,0.0,0.0,0.0,0.0,0.0,0.0,0.0,0.0,0.0,0.0,0.0,0.0,0.0,0.0,0.0,0.0,0.0,0.0,0.0,0.0,0.0,0.0,0.0,0.0,0.0,0.0,0.0,0.0,0.0,0.0,0.0,0.0,0.0,0.0,0.0,0.0,0.0,0.0,0.0,0.0,0.0,0.0,0.0,0.0,0.0,0.0,0.0,0.0,0.0,0.0,0.0,0.0,0.0,0.0,0.0,0.0,0.0,0.0,0.0,0.0,0.0,0.0,0.0,0.0,0.0,0.0,0.0,0.0,0.0,0.0,0.0,0.0,0.0,0.0,0.0,0.0,0.0,0.0,0.0,0.0,0.0,0.0,0.0,0.0,0.0,0.0,0.0,0.0,0.0,0.0,0.0,0.0,0.0,0.0,0.0,0.0,0.0,0.0,0.0,0.0,0.0,0.0,0.0,0.0,0.0,0.0,0.0,0.0,0.0,0.0,0.0,0.0,0.0,0.0,0.0,0.0,0.0,0.0,0.0,0.0,0.0,0.0,0.0,0.0,0.0,0.0,0.0,0.0,0.0,0.0,0.0,0.0,0.0,0.0,0.0,0.0,0.0,0.0,0.0,0.0,0.0,0.0,0.0,0.0,0.0,0.0,0.0,0.0,0.0,0.0,0.0,0.0,0.0,0.0,0.0,0.0,0.0,0.0,0.0,0.0,0.0,0.0,0.0,0.0,0.0,0.0,0.0,0.0,0.0,0.0,0.0,0.0,0.0,0.0,0.0,0.0,0.0,0.0,0.0,0.0,0.0,0.0,0.0,0.0,0.0,0.0,0.0,0.0,0.0,0.0,0.0,0.0,0.0,0.0,0.0,0.0,0.0,0.0,0.0,0.0,0.0,0.0,0.0,0.0,0.0,0.0,0.0,0.0,0.0,0.0,0.0,0.0,0.0,0.0,0.0,0.0,0.0,0.0,0.0,0.0,0.0,0.0,0.0,0.0,0.0,0.0,0.0,0.0,0.0,0.0,0.0,0.0,0.0,0.0,0.0,0.0,0.0,0.0,0.0,0.0,0.0,0.0,0.0,0.0,0.0,0.0,0.0,0.0,0.0,0.0,0.0,0.0,0.0,0.0,0.0,0.0,0.0,0.0,0.0,0.0,0.0,0.0,0.0,0.0,0.0,0.0,0.0,0.0,0.0,0.0,0.0,0.0,0.0,0.0,0.0,0.0,0.0,0.0,0.0,0.0,0.0,0.0,0.0,0.0,0.0,0.0,0.0,0.0,0.0,0.0,0.0,0.0,0.0,0.0,0.0,0.0,0.0,0.0,0.0,0.0,0.0,0.0,0.0,0.0,0.0,0.0,0.0,0.0,0.0,0.0,0.0,0.0,0.0,0.0,0.0,0.0,0.0,0.0,0.0,0.0,0.0,0.0,0.0,0.0,0.0,0.0,0.0,0.0,0.0,0.0,0.0,0.0,0.0,0.0,0.0,0.0,0.0,0.0,0.0,0.0,0.0,0.0,0.0,0.0,0.0,0.0,0.0,0.0,0.0,0.0,0.0,0.0,0.0,0.0,0.0,0.0,0.0,0.0,0.0,0.0,0.0,0.0,0.0,0.0,0.0,0.0,0.0,0.0,0.0,0.0,0.0,0.0,0.0,0.0,0.0,0.0,0.0,0.0,0.0,0.0,0.0,0.0,0.0,0.0,0.0,0.0,0.0,0.0,0.0,0.0,0.0,0.0,0.0,0.0,0.0,0.0,0.0,0.0,0.0,0.0,0.0,0.0,0.0,0.0,0.0,0.0,0.0,0.0,0.0,0.0,0.0,0.0,0.0,0.0,0.0,0.0,0.0,0.0,0.0,0.0,0.0,0.0,0.0,0.0,0.0,0.0,0.0,0.0,0.0,0.0,0.0,0.0,0.0,0.0,0.0,0.0,0.0,0.0,0.0,0.0,0.0,0.0,0.0,0.0,0.0,0.0,0.0,0.0,0.0,0.0,0.0,0.0,0.0,0.0,0.0,0.0,0.0,0.0,0.0,0.0,0.0,0.0,0.0,0.0,0.0,0.0,0.0,0.0,0.0,0.0,0.0,0.0,0.0,0.0,0.0,0.0,0.0,0.0,0.0,0.0,0.0,0.0,0.0,0.0,0.0,0.0,0.0,0.0,0.0,0.0,0.0,0.0,0.0,0.0,0.0,0.0,0.0,0.0,0.0,0.0,0.0,0.0,0.0,0.0,0.0,0.0,0.0,0.0,0.0,0.0,0.0,0.0,0.0,0.0,0.0,0.0,0.0,0.0,0.0,0.0,0.0,0.0,0.0,0.0,0.0,0.0,0.0,0.0,0.0,0.0,0.0,0.0,0.0,0.0,0.0,0.0,0.0,0.0,0.0,0.0,0.0,0.0,0.0,0.0,0.0,0.0,0.0,0.0,0.0,0.0,0.0,0.0,0.0,0.0,0.0,0.0,0.0,0.0,0.0,0.0,0.0,0.0,0.0,0.0,0.0,0.0,0.0,0.0,0.0,0.0,0.0,0.0,0.0,0.0,0.0,0.0,0.0,0.0,0.0,0.0,0.0,0.0,0.0,0.0,0.0,0.0,0.0,0.0,0.0,0.0,0.0,0.0,0.0,0.0,0.0,0.0,0.0,0.0,0.0,0.0,0.0,0.0,0.0,0.0,0.0,0.0,0.0,0.0,0.0,0.0,0.0,0.0,0.0,0.0,0.0,0.0,0.0,0.0,0.0,0.0,0.0,0.0,0.0,0.0,0.0,0.0,0.0,0.0,0.0,0.0,0.0,0.0,0.0,0.0,0.0,0.0,0.0,0.0,0.0,0.0,0.0,0.0,0.0,0.0,0.0,0.0,0.0,0.0,0.0,0.0,0.0,0.0,0.0,0.0,0.0,0.0,0.0,0.0,0.0,0.0,0.0,0.0,0.0,0.0,0.0,0.0,0.0,0.0,0.0,0.0,0.0,0.0,0.0,0.0,0.0,0.0,0.0,0.0,0.0,0.0,0.0,0.0,0.0,0.0,0.0,0.0,0.0,0.0,0.0,0.0,0.0,0.0,0.0,0.0,0.0,0.0,0.0,0.0,0.0,0.0,0.0,0.0,0.0,0.0,0.0,0.0,0.0,0.0,0.0,0.0,0.0,0.0,0.0,0.0,0.0,0.0,0.0,0.0,0.0,0.0,0.0,0.0,0.0,0.0,0.0,0.0,0.0,0.0,0.0,0.0,0.0,0.0,0.0,0.0,0.0,0.0,0.0,0.0,0.0,0.0,0.0,0.0,0.0,0.0,0.0,0.0,0.0,0.0,0.0,0.0,0.0,0.0,0.0,0.0,0.0,0.0,0.0,0.0,0.0,0.0,0.0,0.0,0.0,0.0,0.0,0.0,0.0,0.0,0.0,0.0,0.0,0.0,0.0,0.0,0.0,0.0,0.0,0.0,0.0,0.0,0.0,0.0,0.0,0.0,0.0,0.0,0.0,0.0,0.0,0.0,0.0,0.0,0.0,0.0,0.0,0.0,0.0,0.0,0.0,0.0,0.0,0.0,0.0,0.0,0.0,0.0,0.0,0.0,0.0,0.0,0.0,0.0,0.0,0.0,0.0,0.0,0.0,0.0,0.0,0.0,0.0,0.0,0.0,0.0,0.0,0.0,0.0,0.0,0.0,0.0,0.0,0.0,0.0,0.0,0.0,0.0,0.0,0.0,0.0,0.0,0.0,0.0,0.0,0.0,0.0,0.0,0.0,0.0,0.0,0.0,0.0,0.0,0.0,0.0,0.0,0.0,0.0,0.0,0.0,0.0,0.0,0.0,0.0,0.0,0.0,0.0,0.0,0.0,0.0,0.0,0.0,0.0,0.0,0.0,0.0,0.0,0.0,0.0,0.0,0.0,0.0,0.0,0.0,0.0,0.0,0.0,0.0,0.0,0.0,0.0,0.0,0.0,0.0,0.0,0.0,0.0,0.0,0.0,0.0,0.0,0.0,0.0,0.0,0.0,0.0,0.0,0.0,0.0,0.0,0.0,0.0,0.0,0.0,0.0,0.0,0.0,0.0,0.0,0.0,0.0,0.0,0.0,0.0,0.0,0.0,0.0,0.0,0.0,0.0,0.0,0.0,0.0,0.0,0.0,0.0,0.0,0.0,0.0,0.0,0.0,0.0,0.0,0.0,0.0,0.0,0.0,0.0,0.0,0.0,0.0,0.0,0.0,0.0,0.0,0.0,0.0,0.0,0.0,0.0,0.0,0.0,0.0,0.0,0.0,0.0,0.0,0.0,0.0,0.0,0.0,0.0,0.0,0.0,0.0,0.0,0.0,0.0,0.0,0.0,0.0,0.0,0.0,0.0,0.0,0.0,0.0,0.0,0.0,0.0,0.0,0.0,0.0,0.0,0.0,0.0,0.0,0.0,0.0,0.0,0.0,0.0,0.0,0.0,0.0,0.0,0.0,0.0,0.0,0.0,0.0,0.0,0.0,0.0,0.0,0.0,0.0,0.0,0.0,0.0,0.0,0.0,0.0,0.0,0.0,0.0,0.0,0.0,0.0,0.0,0.0,0.0,0.0,0.0,0.0,0.0,0.0,0.0,0.0,0.0,0.0,0.0,0.0,0.0,0.0,0.0,0.0,0.0,0.0,0.0,0.0,0.0,0.0,0.0,0.0,0.0,0.0,0.0,0.0,0.0,0.0,0.0,0.0,0.0,0.0,0.0,0.0,0.0,0.0,0.0,0.0,0.0,0.0,0.0,0.0,0.0,0.0,0.0,0.0,0.0,0.0,0.0,0.0,0.0,0.0,0.0,0.0,0.0,0.0,0.0,0.0,0.0,0.0,0.0,0.0,0.0,0.0,0.0,0.0,0.0,0.0,0.0,0.0,0.0,0.0,0.0,0.0,0.0,0.0,0.0,0.0,0.0,0.0,0.0,0.0,0.0,0.0,0.0,0.0,0.0,0.0,0.0,0.0,0.0,0.0,0.0,0.0,0.0,0.0,0.0,0.0,0.0,0.0,0.0,0.0,0.0,0.0,0.0,0.0,0.0,0.0,0.0,0.0,0.0,0.0,0.0,0.0,0.0,0.0,0.0,0.0,0.0,0.0,0.0,0.0,0.0,0.0,0.0,0.0,0.0,0.0,0.0,0.0,0.0,0.0,0.0,0.0,0.0,0.0,0.0,0.0,0.0,0.0,0.0,0.0,0.0,0.0,0.0,0.0,-0.8735,-0.8197,0.0,0.0,0.0,0.0,0.0,0.0,0.0,0.0,0.0,0.0,0.0,0.0,0.0,0.0,0.0,0.0,0.0,0.0,0.0,0.0,0.0,0.0,0.0,0.0,0.0,0.0,0.0,0.0,0.0,0.0,0.0,0.0,0.0,0.0,0.0,0.0,0.0,0.0,0.0,0.0,0.0,0.0,0.0,0.0,0.0,0.0,0.0,0.0,0.0,0.0,0.0,0.0,0.0,0.0,0.0,0.0,0.0,0.0,0.0,0.0,0.0,0.0,0.0,0.0,0.0,0.0,0.0,0.0,0.0,0.0,0.0,0.0,0.0,0.0,0.0,0.0,0.0,0.0,0.0,0.0,0.0,0.0,0.0,0.0,0.0,0.0,0.0,0.0,0.0,0.0,0.0,0.0,0.0,0.0,0.0,0.0,0.0,0.0,0.0,0.0,0.0,0.0,0.0,0.0,0.0,0.0,0.0,0.0,0.0,0.0,0.0,0.0,0.0,0.0,-0.9545,-0.9093,0.0,0.0,0.0,0.0,0.0,0.0,0.0,0.0,0.0,0.0,0.0,0.0,0.0,0.0,0.0,0.0,0.0,0.0,0.0,0.0,0.0,0.0,0.0,0.0,0.0,0.0,0.0,0.0,0.0,0.0,0.0,0.0,0.0,0.0,0.0,0.0,0.0,0.0,0.0,0.0,0.0,0.0,0.0,0.0,0.0,0.0,0.0,0.0,0.0,0.0,0.0,0.0,0.0,0.0,0.0,0.0,0.0,0.0,0.0,0.0,0.0,0.0,0.0,0.0,0.0,0.0,0.0,0.0,0.0,0.0,0.0,0.0,0.0,0.0,0.0,0.0,0.0,0.0,0.0,0.0,0.0,0.0,0.0,0.0,0.0,0.0,0.0,0.0,0.0,0.0,0.0,0.0,0.0,0.0,0.0,0.0,0.0,0.0,0.0,0.0,0.0,0.0,0.0,0.0,0.0,0.0,0.0,0.0,-0.9755,-0.9825,-1.0389,-1.074,-1.0307,-0.9312,-1.0117,-0.9764,-0.8749,-1.0792,0.0,0.0,0.0,0.0,0.0,0.0,0.0,0.0,0.0,0.0,0.0,0.0,0.0,0.0,0.0,0.0,0.0,0.0,0.0,0.0,0.0,0.0,0.0,0.0,0.0,0.0,0.0,0.0,0.0,0.0,0.0,0.0,0.0,0.0,0.0,0.0,0.0,0.0,-0.123,-0.138,-0.1699,-0.227,-0.521,0.0,0.0,0.0,0.0,0.0,0.0,0.0,0.0,0.0,0.0,0.0,0.0,0.0,0.0,0.0,0.0,0.0,0.0,0.0,0.0,0.0,0.0,0.0,0.0,0.0,0.0,0.0,0.0,0.0,0.0,0.0,0.0,0.0,0.0,0.0,0.0,0.0,0.0,0.0,0.0,0.0,0.0,0.0,-1.0014,-1.0658,0.0,0.0,0.0,0.0,0.0,0.0,0.0,0.0,0.0,0.0,0.0,0.0,0.0,-1.0699,-1.0461,-1.0498,-1.0788,-1.1271,-1.0465,-1.0331,-1.071,-1.0325,-1.0051,-0.9885,-0.997,0.0,-0.7165,-1.0424,0.0,0.0,0.0,0.0,0.0,0.0,0.0,0.0,0.0,0.0,0.0,0.0,0.0,0.0,0.0,0.0,0.0,0.0,0.0,0.0,0.0,0.0,0.0,0.0,0.0,0.0,0.0,0.0,0.0,0.0,0.0,0.0,0.0,0.0,0.0,0.0,-0.1285,-0.0318,0.0245,-0.0097,-0.0242,-0.0315,-0.225,-0.4131,-0.5884,-0.6379,0.0,0.0,0.0,0.0,0.0,0.0,0.0,0.0,0.0,0.0,0.0,0.0,0.0,0.0,0.0,0.0,0.0,0.0,0.0,0.0,0.0,0.0,0.0,0.0,0.0,0.0,0.0,0.0,0.0,0.0,0.0,0.0,0.0,0.0,0.0,0.0,0.0,0.0,0.0,-1.0059,-1.0798,-1.1206,-1.1556,-1.1458,0.0,0.0,0.0,0.0,0.0,0.0,0.0,0.0,0.0,-1.2422,-1.2188,-1.2193,-1.2513,-1.207,-1.2071,-1.2519,-1.1436,-1.1399,-1.2215,-1.0826,-1.0176,-1.016,-1.0125,-0.9568,-0.8784,-1.0174,-1.0525,-1.025,0.0,0.0,0.0,0.0,-0.8377,-0.702,0.0,0.0,0.0,0.0,0.0,0.0,0.0,0.0,0.0,0.0,0.0,0.0,0.0,0.0,0.0,0.1561,0.0,0.0,0.0,0.0,0.0,0.0,0.0,0.0,0.0,0.0,0.0,-0.1356,-0.0109,0.0921,0.1726,0.1336,0.134,0.1631,0.1014,-0.0994,-0.3921,-0.4223,-0.4471,0.0,0.0,0.0,0.0,0.0,0.0,0.0,0.0,0.0,0.0,0.0,0.0,0.0,0.0,0.0,0.0,0.0,0.0,0.0,0.0,0.0,0.0,0.0,0.0,0.0,0.0,0.0,0.0,0.0,0.0,0.0,0.0,0.0,0.0,0.0,0.0,0.0,0.0,-1.0655,-1.1262,-1.1769,-1.1924,-1.1805,0.0,0.0,0.0,0.0,0.0,0.0,-1.4219,-1.377,-1.3675,-1.4123,-1.3561,-1.3507,-1.4019,-1.338,-1.3222,-1.3541,-1.2302,-1.2446,-1.3691,-1.1371,-1.0283,-1.0322,-1.084,-1.0764,-1.0291,-1.0066,-0.9749,-0.9404,-1.0209,-0.9355,-0.7911,-0.9651,-0.9185,-0.7836,0.0,0.0,0.0,0.0,0.0,0.0,0.0,0.0,0.0,0.0,0.0,0.0,0.0,0.0,0.4521,0.4231,0.4725,0.4589,0.0,0.0,0.0,0.0,0.0,0.0,0.0,0.0,0.0,0.0366,0.1896,0.2738,0.2916,0.3136,0.3438,0.3743,0.3569,0.207,-0.0324,0.0152,0.0276,-0.0077,0.0,0.0,0.0,0.0,0.0,0.0,0.0,0.0,0.0,0.0,0.0,0.0,0.0,0.0,0.0,0.0,0.0,0.0,0.0,0.0,0.0,0.0,0.0,0.0,0.0,0.0,0.0,0.0,0.0,0.0,0.0,0.0,0.0,0.0,0.0,0.0,0.0,0.0,0.0,-1.2297,-1.2134,0.0,0.0,0.0,0.0,-1.1281,-1.3835,-1.5294,-1.507,-1.5547,-1.54,-1.4498,-1.4452,-1.4314,-1.4113,-1.4057,-1.4116,-1.4237,-1.2968,-1.323,-1.4711,-1.1667,-1.0283,-1.0395,-1.2234,-1.2018,-1.0312,-1.0301,-0.9293,-0.7975,-0.9649,-0.9254,-0.8128,-1.1685,-1.0755,-0.7918,0.0,0.0,0.0,0.0,0.0,0.0,0.0,0.0,0.0,0.0,0.0,0.0,0.0,0.5586,0.7053,0.6034,0.6646,0.6826,0.6175,0.0,0.0,0.0,0.0,0.0,0.0,0.0,0.0552,0.2103,0.3389,0.4644,0.5842,0.5928,0.6547,0.7579,0.7698,0.7422,0.6638,0.3369,0.1942,0.1583,-0.1445,-0.2844,0.0,0.0,0.0,0.0,0.0,0.0,0.0,0.0,0.0,0.0,0.0,0.0,0.0,0.0,0.0,0.0,0.0,0.0,0.0,0.0,0.0,0.0,0.0,0.0,0.0,0.0,0.0,0.0,0.0,0.0,0.0,0.0,0.0,0.0,0.0,0.0,0.0,-1.2975,-1.2986,0.0,-1.3008,-1.3735,-1.3943,-1.3351,-1.5178,-1.6574,-1.7201,-1.7153,-1.6968,-1.6695,-1.634,-1.6233,-1.6349,-1.5875,-1.5678,-1.5696,-1.5258,-1.5361,-1.5954,-1.6234,-1.5608,-1.4246,-1.3502,-1.2791,-1.2162,-1.2162,-1.1064,-0.9434,-1.0044,-1.0693,-1.1266,-1.1414,-0.9857,-0.7783,0.0,0.0,0.0,0.0,0.0,0.0,0.0,0.0,0.0,0.0,0.0,0.4675,0.4502,0.7243,0.8722,0.7792,0.836,0.8304,0.7194,0.0,0.0,0.0,0.0,0.0,0.0,0.0108,0.2327,0.4381,0.5583,0.6875,0.8181,0.8333,0.9052,1.0237,1.0697,1.1284,1.1676,0.7921,0.5906,0.492,0.1717,-0.0364,-0.198,0.0,0.0,0.0,0.0,0.0,0.0,0.0,0.0,0.0,0.0,0.0,0.0,0.0,0.0,0.0,0.0,0.0,0.0,0.0,0.0,0.0,0.0,0.0,0.0,0.0,0.0,0.0,0.0,0.0,0.0,0.0,0.0,0.0,0.0,-1.1733,-1.2513,-1.3938,-1.4025,-1.4033,-1.4283,-1.5087,-1.5367,-1.4904,-1.6353,-1.7745,-1.877,-1.8545,-1.8285,-1.8142,-1.7313,-1.6996,-1.7229,-1.6759,-1.6515,-1.6515,-1.6515,-1.6515,-1.6558,-1.798,-1.7772,-1.6173,-1.47,-1.4091,-1.4091,-1.4091,-1.3317,-1.2142,-1.2142,-1.2945,-1.3925,-1.2727,-1.1787,-1.1253,0.0,0.0,0.0,0.0,0.0,0.0,0.0,0.0,0.0,0.0,0.5687,0.6586,0.6976,0.8383,0.9356,0.9505,0.9711,0.8812,0.6417,0.6347,0.0,0.0,0.0,0.0,0.1792,0.2667,0.4454,0.7247,0.8535,0.9391,0.9845,1.0285,1.0864,1.1586,1.2436,1.3412,1.4366,1.3852,1.2394,1.0155,0.7021,0.3956,0.084,0.0,0.0,0.0,0.0,0.0,0.0,0.0,0.0,0.0,0.0,0.0,0.0,0.0,0.0,0.0,0.0,0.0,0.0,0.0,0.0,0.0,0.0,0.0,0.0,0.0,0.0,0.0,0.0,0.0,0.0,0.0,0.0,0.0,-1.1885,-1.2766,-1.3842,-1.5167,-1.517,-1.5498,-1.6613,-1.6764,-1.651,-1.5933,-1.7485,-1.8792,-1.9637,-1.9682,-1.9369,-1.865,-1.7312,-1.6558,-1.6515,-1.6515,-1.6515,-1.6515,-1.6515,-1.6515,-1.6515,-1.6558,-1.6344,-1.5918,-1.5976,-1.5998,-1.5998,-1.5915,-1.5848,-1.5848,-1.5848,-1.5848,-1.5848,-1.5848,-1.6743,-1.8369,0.0,0.0,0.0,0.0,0.0,0.0,0.0,0.0,0.0,0.0,0.6546,0.7297,0.7353,0.8518,0.9469,0.9903,0.8892,0.8071,0.7675,0.0,0.0,0.0,0.0,0.0,0.5271,0.6633,0.8303,1.0293,1.0515,1.1334,1.2663,1.2659,1.3471,1.4959,1.5195,1.5878,1.6816,1.658,1.5258,1.3122,1.0505,0.7482,0.4294,0.0,0.0,0.0,0.0,0.0,0.0,0.0,0.0,0.0,0.0,0.0,0.0,0.0,0.0,0.0,0.0,0.0,0.0,0.0,0.0,0.0,0.0,0.0,0.0,0.0,0.0,0.0,0.0,0.0,0.0,0.0,-1.183,-1.2561,-1.2624,-1.3627,-1.4796,-1.5894,-1.6315,-1.6772,-1.7374,-1.7847,-1.8089,-1.7917,-1.8785,-1.9435,-1.9675,-1.9682,-1.9603,-1.9406,-1.9013,-1.8059,-1.6515,-1.6515,-1.6515,-1.6515,-1.6515,-1.6515,-1.6558,-1.8099,-1.8746,-1.8707,-1.9967,-2.0495,-2.033,-1.8152,-1.7256,-1.7256,-1.7256,-1.7256,-1.7256,-1.7256,-1.8868,-2.1185,0.0,0.0,0.0,0.0,0.0,0.0,0.0,0.0,0.0,0.0,0.6933,0.7726,0.7715,0.8761,0.9482,0.9508,0.9008,0.8163,0.6941,0.0,0.0,0.0,0.0,0.6699,0.7768,0.9662,1.1213,1.2383,1.2595,1.3469,1.4917,1.4466,1.4995,1.6333,1.6403,1.6961,1.7851,1.7349,1.669,1.5808,1.3867,1.0653,0.6863,0.5284,0.2396,-0.1156,-0.3679,-0.5909,-0.79,-0.958,0.0,0.0,0.0,0.0,0.0,0.0,0.0,0.0,0.0,0.0,0.0,0.0,0.0,0.0,0.0,0.0,0.0,0.0,0.0,0.0,0.0,0.0,0.0,0.0,-1.2285,-1.315,-1.3649,-1.4758,-1.5718,-1.6305,-1.7233,-1.7947,-1.8172,-1.8552,-1.873,-1.8651,-1.9315,-1.9486,-1.905,-1.945,-1.9682,-1.9682,-1.881,-1.7747,-1.6515,-1.6515,-1.6515,-1.6515,-1.6515,-1.6515,-1.6557,-1.8184,-1.8886,-1.8979,-2.0625,-2.171,-2.2175,-2.0424,-1.9697,-1.957,0.0,0.0,0.0,0.0,-2.0805,-2.231,0.0,0.0,0.0,0.0,0.0,0.0,0.0,0.0,0.0,0.0,0.0,0.7947,0.8121,0.9087,0.9472,0.8855,0.9436,0.8506,0.0,0.0,0.0,0.8312,1.0026,1.0594,1.0023,1.211,1.3433,1.3882,1.458,1.5474,1.6488,1.5723,1.5772,1.6505,1.6668,1.7274,1.8132,1.7344,1.7439,1.8018,1.6998,1.3631,0.9158,0.8686,0.6396,0.3104,0.0833,-0.124,-0.3741,-0.9094,0.0,0.0,0.0,0.0,0.0,0.0,0.0,0.0,0.0,0.0,0.0,0.0,0.0,0.0,0.0,0.0,0.0,0.0,0.0,0.0,0.0,0.0,0.0,0.0,-1.2522,-1.3513,-1.465,-1.5772,-1.654,-1.6664,-1.7929,-1.8848,-1.8968,-1.893,-1.8848,-1.8734,-1.9244,-1.9207,-1.8334,-1.9169,0.0,0.0,0.0,-1.6515,-1.6515,-1.6515,-1.6515,-1.6515,-1.6515,-1.6462,-1.6458,-1.7286,-1.7735,-1.7873,-1.9235,-2.0566,-2.1828,-2.2175,-2.231,-2.204,-1.9334,-1.8318,-1.864,-2.1321,-2.231,-2.231,0.0,0.0,0.0,0.0,0.0,0.0,0.0,0.0,0.0,0.6573,0.7294,0.8054,0.8881,0.9501,0.9748,0.9455,0.8323,0.7155,0.0,0.0,0.607,1.2759,1.1506,1.183,1.4327,1.4839,1.5247,1.5626,1.5653,1.5988,1.6577,1.5971,1.6215,1.7139,1.738,1.8162,1.9325,1.9944,1.9641,1.8784,1.9401,1.6953,1.3049,1.3822,1.0661,0.5752,0.5272,0.1814,-0.2672,-0.3734,-0.5228,-0.6841,-0.82,0.0,0.0,0.0,0.0,0.0,0.0,0.0,0.0,0.0,0.0,0.0,0.0,0.0,0.0,0.0,0.0,0.0,0.0,0.0,0.0,-1.3333,-1.3585,-1.3948,-1.4631,-1.572,-1.6773,-1.7683,-1.8069,-1.8574,-1.945,-1.9169,-1.905,-1.945,-1.9088,-1.8968,-1.9369,-1.9603,-1.9682,-1.9682,-1.7626,-1.6515,-1.6515,-1.6515,-1.6515,-1.6515,-1.6515,0.0,-1.5973,-1.6678,-1.7288,-1.7839,-1.8434,-1.87,-1.8868,-2.1312,-2.231,-2.2251,-2.1667,-2.1439,-2.1515,-2.209,-2.231,-2.231,0.0,0.0,0.0,0.0,0.0,0.0,0.0,0.0,0.0,0.0,0.6379,0.7242,0.7876,0.8245,0.838,0.8217,0.6486,0.0,0.0,0.6713,0.855,1.3476,1.3636,1.3873,1.4433,1.5361,1.5656,1.52,1.5121,1.5717,1.6877,1.6117,1.6378,1.7559,1.7685,1.8363,1.9384,1.9771,1.9573,1.9052,1.9479,1.8214,1.6092,1.5871,1.3768,1.0749,0.9391,0.6257,0.2695,0.2266,0.0215,-0.2343,-0.3565,-0.4011,-0.4192,0.0,0.0,0.0,0.0,0.0,0.0,0.0,0.0,0.0,0.0,0.0,0.0,0.0,0.0,-1.3921,-1.3489,0.0,-1.3793,-1.3879,-1.3859,-1.392,-1.4204,-1.4761,-1.5534,-1.6712,-1.7599,-1.8217,-1.8458,-1.8496,-1.8612,-1.8893,-1.8696,-1.8772,-1.9125,-1.9486,-1.9682,-1.9682,-1.865,-1.8099,-1.8099,-1.7034,-1.6515,-1.6503,-1.6246,-1.6047,-1.5827,-1.6474,-1.7167,-1.7814,-1.801,-1.8393,-1.9072,-2.1371,-2.231,-2.231,-2.231,-2.231,-2.231,-2.231,-2.231,-2.231,0.0,0.0,0.0,0.0,0.0,0.0,0.0,0.0,0.0,0.0,0.5477,0.6336,0.6738,0.6879,0.6788,0.0,0.0,0.0,0.0,0.8458,0.99,1.2554,1.4659,1.4943,1.3116,1.4685,1.5095,1.4313,1.4387,1.5289,1.6987,1.6183,1.6485,1.7714,1.7756,1.8286,1.9163,1.9191,1.9231,1.932,1.9225,1.8919,1.8327,1.6828,1.5867,1.5041,1.2884,1.0471,0.8265,0.7858,0.606,0.3795,0.2323,0.1147,-0.0,-0.176,-0.2959,0.0,0.0,0.0,0.0,0.0,0.0,0.0,0.0,-1.4096,-1.4874,-1.5471,-1.5698,-1.5711,-1.5476,-1.5303,-1.5046,-1.4607,-1.439,-1.428,-1.428,-1.4378,-1.4784,-1.5664,-1.6851,-1.7565,-1.747,-1.7747,-1.802,-1.8256,-1.8458,-1.865,-1.881,-1.9369,-1.9682,-1.9682,-1.9682,-1.9682,-1.9682,-1.798,-1.7272,-1.7625,-1.6373,-1.5926,-1.6211,-1.6755,-1.7288,-1.7819,-1.7955,-1.8868,-2.0331,-2.1614,-2.2199,-2.231,-2.231,-2.231,-2.231,-2.231,-2.231,-2.231,0.0,0.0,0.0,0.0,0.0,0.0,0.0,0.0,0.0,0.0,0.0,0.0,0.0,0.0,0.0,0.0,0.0,0.0,0.6417,0.7313,0.8764,1.1038,1.2259,1.2694,1.2315,1.3002,1.365,1.4293,1.4648,1.5341,1.6311,1.6258,1.6635,1.7368,1.7615,1.8342,1.9413,2.0226,2.0424,2.0192,2.0472,2.0153,1.9386,1.8033,1.6637,1.5351,1.5046,1.2792,1.0199,1.1798,1.1738,1.0449,0.7338,0.6116,0.5125,0.165,0.0287,-0.0625,-0.3055,-0.5899,-0.8629,-1.0562,-1.2277,-1.4118,0.0,-1.7727,-1.8335,-1.8413,-1.9113,-1.9183,-1.7586,-1.7333,-1.7252,-1.6894,-1.6361,-1.604,-1.604,-1.646,-1.6673,-1.6336,-1.6052,-1.6421,-1.7854,-1.7626,-1.7787,-1.8734,-1.8696,-1.8893,-1.9522,-1.9646,-1.9682,-1.9682,-1.9682,-1.9682,-1.9682,-1.945,-2.0112,-2.1614,-1.7659,-1.6413,-1.7581,-1.7658,-1.7735,-1.7845,-1.8496,-1.9646,-2.1094,-2.1389,-2.1815,-2.231,-2.231,-2.231,-2.231,-2.231,-2.231,-2.231,0.0,0.0,0.0,0.0,0.0,0.0,0.0,0.0,0.0,0.0,0.0,0.0,0.0,0.0,0.0,0.0,0.0,0.0,0.635,0.7442,0.9083,1.1482,1.2259,1.2403,1.1912,1.2136,1.2418,1.278,1.3467,1.4256,1.5176,1.5752,1.6537,1.7531,1.7659,1.8398,1.9592,1.9978,2.0066,1.9965,2.0085,1.9969,1.9585,1.865,1.7186,1.544,1.403,1.2712,0.0,0.0,1.1435,1.1024,0.9909,0.896,0.7607,0.4292,0.1972,-0.0655,-0.5997,-0.8593,-1.0407,-1.3006,-1.5019,-1.6703,-1.8101,-1.9271,-2.0159,-2.0525,-2.0565,-2.0389,-1.9939,-1.9053,-1.8298,-1.8072,-1.7337,-1.6699,-1.6338,-1.6705,-1.7061,-1.7216,-1.7257,-1.7263,-1.7175,-1.7706,-1.8178,-1.8419,-1.893,-1.9493,-2.0027,-1.9846,-1.9682,-1.9682,-1.9682,-2.0181,-2.1189,-2.1221,-2.1063,-2.0789,-1.9973,-1.896,-1.7845,-1.8684,-1.9072,-1.9115,-1.99,-2.0688,-2.1472,-2.1966,-2.2432,-2.2815,-2.2815,-2.2815,-2.2773,-2.2415,-2.231,-2.231,0.0,0.0,0.0,0.0,0.0,0.0,0.0,0.0,0.0,0.0,0.0,0.0,0.0,0.0,0.0,0.0,0.0,0.0,0.0,0.7068,0.8645,1.0505,1.1387,1.1452,1.0577,1.0923,1.1217,1.1356,1.2214,1.3232,1.4425,1.5088,1.6226,1.769,1.769,1.8346,1.9486,1.9646,1.9603,1.9486,1.9646,1.9577,1.9323,1.8478,1.686,1.4837,1.3359,1.2392,0.0,0.0,1.0365,1.0231,1.0843,1.0268,0.8833,0.6103,0.2912,-0.0682,-0.5198,-0.9226,-1.2267,-1.2757,-1.6081,-1.9346,-1.9772,-2.096,-2.2054,-2.2345,-2.1883,-2.1386,-2.1353,-2.0221,-1.9156,-1.868,-1.8318,-1.7882,-1.7457,-1.7838,-1.8268,-1.8555,-1.9083,-1.8919,-1.7591,-1.8186,-1.8552,-1.8334,-1.914,-1.978,-2.0124,-2.0296,-2.0413,-2.0413,-2.0775,-2.1553,-2.2799,-2.2479,-2.1748,-2.0694,-2.1786,-2.1169,-1.9071,-1.9965,-2.0414,-2.0467,-2.1156,-2.1617,-2.1958,-2.267,-2.3021,-2.3069,-2.3268,-2.3212,-2.303,-2.2686,-2.248,-2.2407,0.0,0.0,0.0,0.0,0.0,0.0,0.0,0.0,0.0,0.0,0.0,0.0,0.0,0.0,0.0,0.0,0.0,0.0,0.0,0.5581,0.6688,0.676,0.8517,0.8956,0.7753,0.8998,0.9949,1.0551,1.129,1.2612,1.448,1.4384,1.5543,1.769,1.769,1.816,1.8968,1.9486,1.9406,1.8968,1.9486,1.9301,1.8597,1.7264,1.5228,1.3195,1.4118,0.0,0.0,1.0463,0.9911,0.9127,1.005,0.9868,0.8893,0.6859,0.3197,0.0289,0.2481,-0.5799,-1.3657,-0.776,-1.3859,-2.148,-2.214,-2.3529,-2.4549,-2.4043,-2.3544,-2.2739,-2.1199,-2.0548,-1.9894,-1.8856,-1.9566,-2.0196,-2.0189,-2.0879,-2.1181,-2.0671,-2.1299,-2.1279,-1.9911,-1.9176,-1.8821,-1.8885,-1.9273,-1.957,-1.9711,-2.1323,-2.2217,-2.2217,-2.3418,-2.4084,-2.4142,-2.2926,-2.2571,-2.3085,-2.2536,-2.226,-2.2141,-2.1596,-2.142,-2.1576,-2.1933,-2.2309,-2.2712,-2.3383,-2.3291,-2.2772,-2.3414,-2.3291,-2.2746,-2.3069,-2.2972,-2.2695,0.0,0.0,0.0,0.0,0.0,0.0,0.0,0.0,0.0,0.0,0.0,0.0,0.0,0.0,0.0,0.0,0.0,0.0,0.0,0.4373,0.5292,0.5904,0.756,0.7873,0.6558,0.7383,0.7904,0.8107,1.0094,1.1391,1.2067,1.3812,1.5281,1.6473,1.7333,1.8108,1.8793,1.9424,1.9603,1.9368,1.8663,1.7966,1.7137,1.5088,1.3011,1.113,0.0,0.0,0.7909,0.7755,0.7603,0.7631,0.8707,0.7838,0.6001,0.3719,-0.0291,-0.3257,0.0028,-0.3011,-0.8664,-1.519,-1.5307,-1.5588,-2.2274,-2.3284,-2.2998,-2.3668,-2.084,-1.8466,-1.9179,-1.7993,-1.7083,-1.7631,-1.8839,-1.9935,-2.0549,-2.136,-2.1967,-2.2133,-2.2634,-2.2735,-2.2148,-2.1065,-2.0211,-1.98,-2.0679,-2.1106,-2.0846,-2.1681,-2.2378,-2.2883,-2.3996,-2.4461,-2.419,-2.3771,-2.3667,-2.3867,-2.32,-2.2966,-2.3096,-2.2899,-2.2752,-2.2667,-2.2785,-2.3028,-2.3392,-2.3619,-2.3692,-2.3723,-2.3937,-2.3887,-2.3714,-2.3816,-2.3513,-2.3021,0.0,0.0,0.0,0.0,0.0,0.0,0.0,0.0,0.0,0.0,0.0,0.0,0.0,0.0,0.0,0.0,0.0,0.1384,0.0,0.0,0.3656,0.4661,0.6055,0.638,0.5425,0.6024,0.6449,0.6615,0.8469,0.9846,1.0758,1.2525,1.421,1.5835,1.6668,1.7473,1.8253,1.8254,1.8098,1.7653,1.655,1.5551,1.4571,1.2807,1.0872,0.0,0.0,0.0,0.5957,0.6035,0.6225,0.6353,0.6043,0.3996,0.168,0.134,-0.1742,-0.4906,-0.4189,-0.5991,-0.948,-1.5487,-1.5508,-1.5785,-2.2361,-2.3514,-2.2213,-1.8726,-1.676,-1.542,-1.4605,-1.4419,-1.4621,-1.5405,-1.7183,-1.8898,-2.017,-2.1184,-2.2185,-2.3186,-2.3693,-2.3859,-2.3608,-2.2914,-2.2064,-2.0996,-2.1717,-2.2039,-2.1673,-2.2177,-2.2833,-2.3535,-2.4377,-2.4736,-2.4579,-2.4339,-2.4122,-2.3946,-2.3566,-2.3446,-2.3566,-2.3566,-2.3491,-2.3392,-2.3522,-2.3619,-2.3714,-2.3825,-2.3946,-2.4036,-2.4142,-2.4122,-2.4045,-2.4151,-2.3846,-2.3392,0.0,0.0,0.0,0.0,0.0,0.0,0.0,0.0,0.0,0.0,0.0,0.0,0.0,0.0,0.0,0.0,0.0,0.0,0.0,0.0,0.0,0.2941,0.3988,0.4417,0.415,0.4876,0.5487,0.593,0.6474,0.7968,1.0341,1.0528,1.2337,1.5439,1.5553,1.6166,1.7112,1.5992,1.5008,1.4137,1.3357,1.2288,1.109,1.0421,0.0,0.0,0.0,0.0,0.4059,0.5337,0.5686,0.5041,0.2128,-0.1261,-0.3537,-0.0356,-0.1537,-0.4844,-0.9312,-1.337,-1.4939,-0.9186,-1.4184,-2.0805,-2.196,-2.3611,-2.1642,-1.0142,-1.1605,-1.3363,-0.8139,-1.0223,-1.2688,-1.2615,-1.5037,-1.7591,-1.9385,-2.067,-2.2062,-2.3823,-2.4484,-2.4674,-2.4381,-2.4631,-2.4139,-2.2481,-2.2438,-2.2391,-2.2186,-2.2852,-2.3551,-2.419,-2.4601,-2.4949,-2.5283,-2.4572,-2.3987,-2.3557,-2.3662,-2.3723,-2.3723,-2.3723,-2.3723,-2.3744,-2.4065,-2.4016,-2.3744,-2.4074,-2.4016,-2.3765,-2.4074,-2.3996,-2.3744,-2.4074,-2.3976,-2.3671,0.0,0.0,0.0,0.0,0.0,0.0,0.0,0.0,0.0,0.0,0.0,0.0,0.0,0.0,0.0,0.0,0.0,0.0,0.0,0.0,0.0,0.0,0.0,0.0,0.0,0.0,0.0,0.0,0.5154,0.6254,0.699,0.8613,0.9823,1.0704,1.1958,1.2649,1.2914,1.3156,1.301,1.2571,0.0,1.0372,0.92,0.0,0.0,0.0,0.0,0.0,0.3442,0.482,0.3406,0.0587,-0.2066,-0.3931,-0.5138,-0.5134,-0.6403,-0.8252,-1.0193,-0.8392,-0.7019,-1.1506,-1.0512,-0.9706,-1.4596,-1.4898,-1.2849,-0.8297,-0.6747,-0.6377,-0.6886,-0.8788,-1.1086,-1.3522,-1.6875,-1.9705,-2.1219,-2.238,-2.3461,-2.4479,-2.4727,-2.486,-2.5034,-2.513,-2.4929,-2.4322,-2.3984,-2.3611,-2.3177,-2.3569,-2.3919,-2.419,-2.4601,-2.4869,-2.4998,-2.462,-2.4365,-2.4238,-2.4125,-2.4065,-2.4065,-2.4065,-2.4065,-2.4074,-2.417,-2.4142,-2.4074,-2.4161,-2.4151,-2.4074,-2.417,-2.3996,-2.3744,-2.4074,-2.3816,-2.336,0.0,0.0,0.0,0.0,0.0,0.0,0.0,0.0,0.0,0.0,0.0,0.0,0.0,0.0,0.0,0.0,0.0,0.0,0.0,0.0,0.0,0.0,0.0,0.0,0.0,0.0,0.0,0.0,0.0,0.0,0.4985,0.6486,0.7667,0.8555,0.955,1.0241,1.0671,1.0366,0.0,0.0,0.0,0.0,0.0,0.0,0.0,0.0,0.0,0.0,0.1744,0.167,-0.0433,-0.3053,-0.3527,-0.563,-0.7597,-0.6221,-0.7361,-0.9091,-0.9251,-0.7187,-0.618,-1.1077,-0.9002,-0.6997,-1.1601,-0.793,-0.3323,-0.2394,-0.161,-0.1212,-0.1499,-0.5095,-0.9211,-1.2768,-1.5878,-1.8564,-2.0597,-2.1874,-2.3178,-2.4746,-2.4984,-2.5082,-2.5283,-2.5331,-2.5274,-2.5142,-2.4881,-2.4532,-2.41,-2.4256,-2.4356,-2.4384,-2.4584,-2.4785,-2.493,-2.479,-2.4651,-2.4495,-2.4487,-2.4428,-2.433,-2.4418,-2.4428,-2.433,-2.433,-2.4284,-2.4199,-2.4045,-2.4074,-2.4199,-2.4045,-2.3876,-2.3714,-2.3917,-2.364,-2.3221,0.0,0.0,0.0,0.0,0.0,0.0,0.0,0.0,0.0,0.0,0.0,0.0,0.0,0.0,0.0,0.0,0.0,0.0,0.0,0.0,0.0,0.0,0.0,0.0,0.0,0.0,0.0,0.0,0.0,0.0,0.0,0.0,0.0,0.0,0.0,0.0,0.0,0.0,0.0,0.0,0.0,0.0,0.0,0.0,0.0,0.0,0.0,0.0,-0.0038,-0.2173,-0.4325,-0.5831,-0.4036,-0.6713,-0.9698,-0.5716,-0.6439,-0.832,-0.7435,-0.7788,-0.8553,-0.9133,-0.8553,-0.8273,-1.0187,-0.294,0.4143,0.418,0.2747,0.2155,0.4293,-0.1234,-0.739,-1.1327,-1.3726,-1.6067,-1.8832,-2.04,-2.2182,-2.4656,-2.5148,-2.5283,-2.5313,-2.5368,-2.5383,-2.5313,-2.5318,-2.5187,-2.486,-2.4846,-2.4806,-2.4666,-2.4697,-2.4813,-2.5044,-2.5015,-2.4866,-2.4575,-2.4731,-2.4716,-2.4561,-2.4716,-2.4691,-2.4536,-2.4502,-2.4401,-2.4228,-2.3887,-2.3946,-2.417,-2.3867,-2.3744,-2.3723,-2.3744,-2.3544,-2.3221,0.0,0.0,0.0,0.0,0.0,0.0,0.0,0.0,0.0,0.0,0.0487,0.0509,0.0,0.0,0.0,0.0,0.0,0.0,0.0,0.0,0.0,0.0,0.0,0.0,0.0,0.0565,0.0791,0.0979,0.1509,0.0,0.0,0.0,0.0,0.0,0.0,0.0,0.0,0.0,0.0,0.0,0.0,0.0,0.0,0.0,0.0,0.0,0.0,0.0,0.0,0.0,-0.4947,-0.6924,-0.6988,-0.759,-0.8088,-0.7238,-0.6995,-0.6943,-0.6791,-0.6851,-0.706,-0.7581,-0.6904,-0.5817,-0.4692,-0.1996,0.0988,0.353,0.3191,0.2243,0.1602,-0.2112,-0.6527,-1.102,-1.3641,-1.5969,-1.8455,-2.0427,-2.2232,-2.3906,-2.4721,-2.5198,-2.5374,-2.5447,-2.5434,-2.5313,-2.5408,-2.5348,-2.5061,-2.5101,-2.5091,-2.5019,-2.5235,-2.531,-2.5244,-2.5139,-2.5026,-2.4914,-2.4842,-2.479,-2.4746,-2.478,-2.4775,-2.4746,-2.4568,-2.4478,-2.4436,-2.42,-2.4151,-2.419,-2.4151,-2.3937,-2.3735,-2.4016,-2.3896,-2.3575,0.0,0.0,0.0,0.0,0.0,0.0,0.0,0.0929,0.0549,0.0147,-0.0044,-0.0,0.0292,0.0134,-0.0112,0.0,0.0,0.0,0.0,0.0,0.0,0.0,0.0,0.0,0.0,0.021,0.0374,0.0425,0.0,0.0837,0.1089,0.1345,0.1717,0.2146,0.2562,0.2814,0.2897,0.0,0.0,0.2792,0.285,0.2692,0.0,0.0,0.0,0.0,0.0,0.0,0.0,0.0,-0.2454,-0.4129,-0.6335,-0.7573,-0.7768,-0.537,-0.5067,-0.5336,-0.4534,-0.4873,-0.5617,-0.6048,-0.5355,-0.4217,-0.2631,-0.1352,0.0173,0.2522,0.2616,0.2087,0.1496,-0.1718,-0.541,-0.8898,-1.0963,-1.3387,-1.6956,-1.9007,-2.1006,-2.3364,-2.4472,-2.504,-2.5035,-2.5191,-2.5311,-2.5353,-2.5482,-2.5474,-2.5276,-2.5353,-2.5395,-2.5363,-2.5478,-2.5492,-2.5356,-2.5297,-2.5168,-2.5001,-2.5039,-2.5,-2.4904,-2.5012,-2.5,-2.4904,-2.4799,-2.4657,-2.4469,-2.4211,-2.403,-2.3917,-2.3744,-2.3566,-2.3468,-2.3619,-2.3566,-2.3423,0.0,0.0,0.0,0.0,0.0,0.0,0.0,0.0695,0.0253,-0.0173,-0.0446,-0.0511,-0.0218,-0.031,-0.0425,0.0,0.0,0.0,0.0,0.0,0.0,0.0,0.0,0.0,0.0,0.0,0.0,-0.0092,-0.0197,0.0,0.0,0.0,0.0,0.0,0.1646,0.1879,0.2133,0.2312,0.2297,0.0,0.0,0.2133,0.0,0.0,0.0,0.0,0.0,0.1323,0.0858,0.0712,0.039,-0.0487,-0.384,-0.5875,-0.6294,-0.2925,-0.2912,-0.3825,-0.2959,-0.3593,-0.4634,-0.511,-0.4403,-0.3284,-0.2151,-0.1143,0.0034,0.1634,0.1868,0.1777,0.1792,-0.0918,-0.3912,-0.6256,-0.7736,-1.0219,-1.4923,-1.7038,-1.9381,-2.2839,-2.4147,-2.4769,-2.4777,-2.4953,-2.5145,-2.5356,-2.5499,-2.5548,-2.5471,-2.5545,-2.5597,-2.5597,-2.5597,-2.5541,-2.5424,-2.5421,-2.5313,-2.5093,-2.5234,-2.5214,-2.5067,-2.5234,-2.5214,-2.5067,-2.5022,-2.4831,-2.4543,-2.4219,-2.3994,-2.3765,-2.3522,-2.3414,-2.3414,-2.3414,-2.3414,-2.3392,0.0,0.0,0.0,0.0,0.0,0.0,0.0,0.0667,0.023,-0.0225,-0.0517,-0.0718,-0.0803,-0.0577,-0.0494,0.0,0.0,0.0,0.0,0.0,0.0,0.0,0.0,0.0,0.0,0.0,0.0,-0.0722,-0.0503,0.0,0.0,0.0,0.0,0.0,0.0,0.13,0.1494,0.1896,0.0,0.0,0.0,0.0,0.0,0.0,0.0,0.0,0.0,0.1673,0.1667,0.0999,0.1604,0.2259,-0.0039,-0.1044,-0.14,-0.1598,-0.2099,-0.284,-0.3959,-0.4417,-0.4716,-0.5503,-0.4639,-0.3408,-0.2778,-0.1641,-0.032,0.1162,0.1457,0.1376,0.1146,-0.0037,-0.171,-0.3881,-0.5147,-0.7614,-1.2614,-1.4939,-1.7806,-2.224,-2.3496,-2.428,-2.4992,-2.4985,-2.5026,-2.5292,-2.5429,-2.5556,-2.5672,-2.5631,-2.5601,-2.5601,-2.5601,-2.5561,-2.5493,-2.5493,-2.545,-2.5358,-2.5312,-2.5293,-2.5274,-2.5293,-2.5293,-2.5264,-2.5088,-2.4907,-2.476,-2.4533,-2.4348,-2.4142,-2.4122,-2.4122,-2.4122,-2.4122,-2.4122,-2.4065,0.0,0.0,0.0,0.0,0.0,0.0,0.0973,0.0634,0.0202,-0.0344,-0.045,-0.0579,-0.0865,-0.0597,-0.045,-0.0608,0.0,0.0,0.0,0.0,0.0,0.0,0.0,0.0,0.0,0.0,-0.0702,-0.0631,-0.0706,0.0,0.0,0.0,0.0,0.0,0.0,0.0582,0.0861,0.1043,0.0,0.0,0.0,0.0,0.0,0.0,0.0,0.0,0.0,0.0,0.1551,0.151,0.2004,0.2463,0.1865,0.1598,0.1347,0.0482,-0.0997,-0.2368,-0.2614,-0.358,-0.4606,-0.514,-0.44,-0.3338,-0.2367,-0.1451,-0.0416,0.0987,0.1319,0.1187,0.0728,0.0222,-0.0747,-0.2793,-0.4202,-0.713,-1.322,-1.4081,-1.5946,-2.097,-2.2164,-2.3123,-2.4535,-2.4783,-2.4994,-2.539,-2.5469,-2.5557,-2.5693,-2.5672,-2.566,-2.566,-2.566,-2.5633,-2.5561,-2.5558,-2.5508,-2.5396,-2.5369,-2.5339,-2.5293,-2.5293,-2.5293,-2.5303,-2.5223,-2.5086,-2.4907,-2.4831,-2.4516,-2.407,-2.407,-2.4001,-2.3896,-2.3896,-2.4025,-2.417,0.0,0.0,0.0,0.0,0.0,0.1215,0.0997,0.0713,0.0345,-0.0172,-0.0209,-0.0285,-0.0571,-0.0395,-0.0284,-0.0381,-0.0472,0.0,0.0,0.0,0.0,0.0,0.0,0.0,0.0,0.0,-0.0805,-0.0705,-0.0898,-0.0861,0.0,0.0,-0.0662,-0.0493,0.0,0.0,0.0,0.0,0.0,0.0,0.0,0.0,0.0,0.0,0.0,0.0,0.0,0.0,0.0,0.0,0.0,0.2207,0.2535,0.0,0.0,0.2015,0.04,-0.1148,-0.0944,-0.2078,-0.3345,-0.3683,-0.3194,-0.2415,-0.1557,-0.0931,-0.0241,0.0744,0.0981,0.0837,0.0217,0.0109,-0.0509,-0.2396,-0.4084,-0.7042,-1.2505,-1.3418,-1.4924,-1.8759,-2.0453,-2.1802,-2.3049,-2.4113,-2.495,-2.5463,-2.5499,-2.555,-2.5662,-2.5693,-2.5703,-2.5703,-2.5703,-2.5683,-2.5633,-2.5605,-2.5554,-2.5455,-2.5424,-2.5379,-2.5331,-2.5321,-2.533,-2.533,-2.5356,-2.5245,-2.5058,-2.5034,-2.4718,-2.4247,-2.4243,-2.4155,-2.4023,-2.3963,-2.4087,-2.4284,0.0,0.0,0.0,0.0,0.0,0.0,0.1147,0.0935,0.0698,0.0426,0.0219,0.0088,0.0096,0.0098,0.0041,-0.0089,-0.0292,0.0,0.0,0.0,0.0,0.0,0.0,0.0,0.0,0.0,-0.0924,-0.1203,-0.1053,-0.0996,-0.0986,-0.0916,-0.0935,-0.099,0.0,0.0,0.0,0.0,0.0,0.0,0.0,0.0,0.0,0.0,0.0,0.0,0.0,0.0,0.0,0.0,0.0,0.0,0.0,0.0,0.0,0.0,0.2211,0.1255,0.0701,0.0094,-0.0542,-0.1036,-0.0792,-0.041,-0.035,-0.0037,0.0214,0.0374,0.0351,0.0109,-0.0474,-0.0474,-0.0954,-0.2715,-0.4801,-0.7009,-0.9323,-1.2731,-1.5094,-1.5429,-1.8388,-2.0379,-2.0252,-2.2887,-2.4853,-2.5454,-2.5503,-2.5529,-2.5601,-2.5661,-2.5703,-2.5703,-2.5703,-2.5703,-2.5703,-2.5634,-2.5601,-2.5601,-2.5461,-2.5396,-2.5398,-2.5396,-2.5403,-2.5394,-2.5467,-2.5378,-2.5195,-2.5138,-2.4982,-2.4793,-2.4785,-2.479,-2.4751,-2.4568,-2.4486,-2.4461,0.0,0.0,0.0,0.0,0.0,0.0,0.0,0.0989,0.0772,0.0685,0.0654,0.065,0.0649,0.0603,0.048,0.0269,-0.0157,0.0,0.0,0.0,0.0,0.0,0.0,0.0,0.0,0.0,-0.1077,-0.0937,-0.1153,-0.1265,-0.1213,-0.1168,-0.113,-0.1073,-0.1032,-0.0807,0.0,0.0,0.0,0.0,0.0,0.0,-0.0791,0.0,0.0,0.0,0.0,0.0,0.0,0.0,0.0,0.0,0.0,0.0,0.0,0.1675,0.129,0.0761,0.0252,-0.0354,-0.0866,-0.1049,-0.0953,-0.0666,-0.0187,-0.0178,-0.0171,0.0135,-0.017,-0.0621,-0.0898,-0.1241,-0.2059,-0.3753,-0.5085,-0.6999,-1.0071,-1.2789,-1.5015,-1.6523,-1.9772,-2.205,-2.2407,-2.3927,-2.4896,-2.4947,-2.5286,-2.5508,-2.5529,-2.5598,-2.5649,-2.5703,-2.5703,-2.5703,-2.5703,-2.5683,-2.5647,-2.5601,-2.5512,-2.5467,-2.5471,-2.5421,-2.5428,-2.5472,-2.5493,-2.5459,-2.5403,-2.5328,-2.5186,-2.5002,-2.4948,-2.4887,-2.479,-2.4731,-2.4617,-2.4495,0.0,0.0,0.0,0.0,0.0,0.0,0.0,0.1009,0.0793,0.0773,0.0803,0.0835,0.0895,0.0827,0.072,0.0608,0.0157,0.0,0.0,0.0,0.0,0.0,0.0,0.0,0.0,-0.0949,-0.1044,-0.0826,-0.1084,-0.1217,-0.123,-0.1217,-0.1276,-0.1377,-0.1346,-0.111,0.0,0.0,0.0,0.0,0.0,0.0,-0.1076,0.0,0.0,0.0,0.0,0.0,0.0,0.0,0.0,0.0,0.0,0.0,0.0,0.0,0.0876,0.0893,0.0743,0.0532,0.0336,0.0286,0.0196,0.0188,0.0474,0.0104,-0.0302,-0.0335,-0.0837,-0.1341,-0.1543,-0.2227,-0.3206,-0.4534,-0.6612,-0.8638,-1.0322,-1.3671,-1.665,-1.8428,-2.0047,-2.1635,-2.3349,-2.3925,-2.4392,-2.482,-2.516,-2.5395,-2.5489,-2.5543,-2.5583,-2.5621,-2.5648,-2.5672,-2.5703,-2.5703,-2.5683,-2.5636,-2.5564,-2.5539,-2.5541,-2.5493,-2.5498,-2.5543,-2.5561,-2.5577,0.0,-2.5503,-2.5392,-2.5234,-2.5188,-2.508,-2.4984,-2.49,-2.4761,-2.4591,0.0,0.0,0.0,0.0,0.0,0.0,0.0,0.0982,0.0783,0.0742,0.0719,0.0764,0.0893,0.0785,0.0766,0.0856,0.0,0.0,0.0,0.0,0.0,0.0,0.0,0.0,0.0,-0.0779,-0.0887,-0.0883,-0.0903,-0.0988,-0.1116,-0.1139,-0.1397,-0.1831,-0.1544,-0.1344,0.0,0.0,0.0,0.0,0.0,0.0,0.0,0.0,0.0,0.0,0.0,0.0,0.0,0.0,0.0,0.0,0.0,0.0,0.0,0.0,0.0,0.0,0.0,0.2246,0.2516,0.2438,0.2172,0.1844,0.1444,0.0659,0.0,-0.0936,-0.1536,-0.2034,-0.2373,-0.3306,-0.43,-0.511,-0.8838,-1.1307,-1.0352,-1.5162,-1.9282,-2.0602,-1.9387,-1.9725,-2.2981,-2.3129,-2.3571,-2.4942,-2.5082,-2.521,-2.5468,-2.5493,-2.5493,-2.5493,-2.5554,-2.5619,-2.5693,-2.5703,-2.5703,-2.5703,-2.5633,-2.5595,-2.5606,-2.5595,-2.5603,-2.5605,-2.5672,-2.5703,-2.5693,-2.5633,-2.5561,-2.5493,-2.5431,-2.5364,-2.5283,-2.5088,-2.4933,-2.479,0.0,0.0,0.0,0.0,0.0,0.0,0.0,0.0,0.0,0.0,0.0917,0.0894,0.096,0.0943,0.0833,0.0,0.0,0.0,0.0,0.0,0.0,0.0,0.0,0.0,0.0,-0.0482,-0.0616,-0.083,-0.0936,-0.1104,-0.1328,-0.1586,-0.1838,-0.2087,-0.1929,-0.1711,0.0,0.0,0.0,0.0,0.0,0.0,0.0,0.0,0.0,0.0,-0.2385,-0.2256,0.0,0.0,0.0,0.0,0.0,0.0,0.0,0.0,-0.0034,0.0505,0.0682,0.0,0.1917,0.1641,0.1488,0.1269,0.0,0.0,0.0,0.0,0.0,0.0,0.0,-0.3543,-0.4552,-0.5359,-0.8135,-1.0687,-1.2095,-1.5395,-1.8151,-1.9375,-1.975,-2.0239,-2.1128,-2.2973,-2.4225,-2.4475,-2.4862,-2.5168,-2.5347,-2.5398,-2.5421,-2.5415,-2.5444,-2.5498,-2.5621,-2.5672,-2.5703,-2.5703,-2.5627,-2.5632,-2.5671,-2.5622,-2.5625,-2.5683,-2.5693,-2.5703,-2.5693,-2.5633,-2.5561,-2.5493,-2.5428,-2.5363,-2.5293,-2.5253,-2.5109,-2.4933,0.0,0.0,0.0,0.0,0.0,0.0,0.0,0.0,0.0,0.0,0.0,0.0,0.0,0.0,0.0,0.0,0.0,0.0,0.0,0.0,0.0,0.0,0.0,0.0,-0.0405,-0.0494,-0.0651,-0.0849,-0.1012,-0.1169,-0.1362,-0.1706,-0.1942,-0.2061,-0.2059,-0.1952,-0.177,0.0,0.0,0.0,-0.1649,0.0,0.0,0.0,0.0,0.0,-0.2423,-0.2269,0.0,-0.21,-0.2104,-0.1975,0.0,0.0,0.0,0.0,-0.0639,-0.0269,-0.0067,0.0637,0.1275,0.1076,0.0942,0.074,0.0302,0.0,0.0,0.0,0.0,0.0,0.0,-0.4614,-0.5844,-0.5902,-0.9526,-1.3203,-1.5704,-1.6607,-1.7601,-1.9183,-2.0018,-2.061,-2.1044,-2.2623,-2.3835,-2.4348,-2.4742,-2.5019,-2.5163,-2.5283,-2.5354,-2.5346,-2.541,-2.5506,-2.5602,-2.5639,-2.567,-2.5703,-2.5658,-2.5659,-2.5703,-2.5658,-2.5669,-2.5703,-2.5703,-2.5703,-2.5703,-2.566,-2.5615,-2.5543,-2.5472,-2.5403,-2.5348,-2.5313,-2.5163,-2.4986,0.0,0.0,0.0,0.0,0.0,0.0,0.0,0.0,0.0,0.0,0.0,0.0,0.0,0.0,0.0,0.0,0.0,0.0,0.0,0.0,0.0,0.0,0.0,-0.0181,-0.0344,-0.0619,-0.0822,-0.0921,-0.1089,-0.1244,-0.136,-0.1649,-0.1826,-0.191,-0.2048,-0.2059,-0.1994,-0.1765,-0.1557,-0.1428,-0.1594,0.0,0.0,0.0,0.0,0.0,0.0,0.0,0.0,-0.2063,-0.2221,-0.2216,-0.1795,0.0,0.0,0.0,0.0,0.0,-0.0536,0.0034,0.0509,0.0403,0.0268,0.0067,-0.0335,0.0,0.0,0.0,0.0,0.0,0.0,-0.588,-0.7352,-0.6925,-1.179,-1.6514,-1.9092,-1.8246,-1.7884,-1.9144,-2.0086,-2.091,-2.161,-2.2349,-2.3258,-2.4416,-2.4654,-2.4828,-2.4962,-2.5152,-2.5244,-2.5244,-2.539,-2.5502,-2.555,-2.559,-2.5641,-2.5703,-2.5703,-2.5703,-2.5703,-2.5703,-2.5703,-2.5703,-2.5703,-2.5703,-2.5703,-2.5703,-2.566,-2.5588,-2.5535,-2.5465,-2.5391,-2.5322,-2.5194,-2.501,0.0,0.0,0.0,0.0,0.0,0.0,0.0,0.0,0.0,0.0,0.0,0.0,0.0,0.0,0.0,0.0,0.0,0.0,0.0,0.0,0.0,0.0,0.027,0.0163,-0.0149,-0.08,-0.1103,-0.1075,-0.1113,-0.1295,-0.163,-0.1644,-0.1764,-0.1976,-0.202,-0.2038,-0.2082,-0.198,-0.1958,-0.1975,-0.196,0.0,0.0,0.0,0.0,0.0,0.0,0.0,0.0,-0.2,-0.192,-0.177,-0.1533,0.0,0.0,0.0,0.0,0.0,-0.0664,-0.0694,-0.0779,-0.1007,-0.0963,-0.1031,-0.1727,0.0,0.0,0.0,0.0,0.0,-0.5022,-0.6545,-0.795,-0.9066,-1.3461,-1.7125,-1.811,-1.9594,-1.9804,-1.7733,-1.9663,-2.1171,-2.1139,-2.2565,-2.3794,-2.4452,-2.4528,-2.4623,-2.4823,-2.4968,-2.5055,-2.5055,-2.5235,-2.534,-2.5358,-2.5571,-2.5693,-2.5703,-2.5703,-2.5703,-2.5703,-2.5703,-2.5703,-2.5703,-2.5703,-2.5703,-2.5703,-2.5703,-2.566,-2.5588,-2.5535,-2.5455,-2.5389,-2.5321,-2.5283,-2.5213,0.0,0.0,0.0,0.0,0.0,0.0,0.0,0.0,0.0,0.0,0.0,0.0,0.0,0.0,0.0,0.0,0.0,0.0,0.0,0.0,0.0,0.0203,0.0024,-0.015,-0.031,-0.0895,-0.1192,-0.1218,-0.1325,-0.1459,-0.1637,-0.1549,-0.1634,-0.188,-0.183,-0.1813,-0.1885,-0.196,-0.2021,-0.2053,0.0,0.0,0.0,0.0,0.0,0.0,0.0,0.0,0.0,0.0,-0.1941,-0.1759,-0.1522,0.0,0.0,0.0,0.0,0.0,-0.0695,-0.0718,-0.0967,-0.2006,-0.232,-0.2628,-0.3451,0.0,0.0,0.0,0.0,-0.5242,-0.6051,-0.7736,-1.0221,-1.3953,-1.5801,-1.7397,-1.9175,-1.9599,-1.9359,-1.8369,-2.0023,-2.1311,-2.1427,-2.2637,-2.3687,-2.4284,-2.4436,-2.4536,-2.4623,-2.4868,-2.4989,-2.4952,-2.5172,-2.5293,-2.5293,-2.5571,-2.5703,-2.5703,-2.5703,-2.5703,-2.5703,-2.5703,-2.5703,-2.5703,-2.5703,-2.5703,-2.5703,-2.5703,-2.5683,-2.5637,-2.5537,-2.5483,-2.5437,-2.5339,-2.5234,-2.512,0.0,0.0,0.0,0.0,0.0,0.0,0.0,0.0,0.0,0.0,0.0,0.0,0.0,0.0,0.0,0.0,0.0,0.0,0.0,0.0,0.0529,0.0248,-0.0205,-0.0523,-0.0627,-0.0972,-0.1188,-0.1266,-0.1425,-0.15,-0.1477,-0.132,-0.138,-0.16,-0.1527,-0.157,-0.1724,-0.1914,-0.2079,-0.2232,0.0,0.0,0.0,0.0,0.0,0.0,0.0,0.0,0.0,0.0,0.0,0.0,0.0,0.0,0.0,-0.1008,-0.0762,-0.0582,-0.0693,-0.0772,-0.1204,-0.2628,-0.3115,0.0,0.0,0.0,0.0,0.0,-0.6234,-0.6987,-0.7244,-0.9121,-1.2285,-1.7308,-1.7443,-1.7769,-2.0286,-1.9896,-1.9383,-1.9547,-2.0689,-2.1622,-2.2081,-2.2783,-2.3468,-2.4151,-2.4348,-2.4436,-2.4436,-2.4757,-2.492,-2.4831,-2.5139,-2.5293,-2.5293,-2.5498,-2.5645,-2.5703,-2.5703,-2.5703,-2.5703,-2.5703,-2.5703,-2.5703,-2.5703,-2.5703,-2.5703,-2.5703,-2.5693,-2.5661,-2.5551,-2.5483,-2.5441,-2.5339,-2.5163,-2.5001,0.0,0.0,0.0,0.0,0.0,0.0,0.0,0.0,0.0,0.0,0.0,0.0,0.0,0.0,0.0,0.0,0.0,0.0,0.0,0.0,0.0475,0.0382,-0.0122,-0.061,-0.1057,-0.1021,-0.1084,-0.1196,-0.1225,-0.119,-0.1131,-0.0945,-0.0925,-0.1049,-0.112,-0.1341,-0.1699,-0.1902,-0.2295,-0.2783,-0.3329,0.0,0.0,0.0,0.0,0.0,0.0,0.0,0.0,0.0,0.0,0.0,0.0,0.0,-0.0813,-0.1102,-0.0827,-0.0463,-0.0718,-0.134,-0.2065,-0.2738,-0.2651,0.0,-0.4184,-0.5281,0.0,-0.6178,-0.713,-0.8122,-0.889,-1.0582,-1.2942,-1.6218,-1.7273,-1.8432,-2.0511,-2.1511,-2.1674,-2.0774,-2.1594,-2.2458,-2.3043,-2.3156,-2.3468,-2.4151,-2.4209,-2.4228,-2.4228,-2.4591,-2.476,-2.4626,-2.5058,-2.5293,-2.5293,-2.5322,-2.5444,-2.5703,-2.5703,-2.5703,-2.5703,-2.5703,-2.5703,-2.5703,-2.5703,-2.5703,-2.5703,-2.5703,-2.5661,-2.5601,-2.5525,-2.5421,-2.5313,-2.5303,-2.5163,-2.5001,0.0,0.0,0.0,0.0,0.0,0.0,0.0,0.0,0.0,0.0,0.0,0.0,0.0,0.0,0.0,0.0,0.0,0.0,0.0,0.0,0.0427,0.0406,0.0127,-0.0078,-0.0165,-0.0632,-0.0927,-0.1021,-0.1055,-0.1006,-0.0851,-0.0785,-0.0727,-0.0703,-0.099,-0.1243,-0.1473,-0.2009,-0.2479,-0.285,-0.3414,-0.3563,0.0,0.0,0.0,0.0,0.0,0.0,0.0,0.0,-0.1867,-0.1604,-0.1489,-0.1289,-0.1101,-0.0973,-0.0788,-0.0606,-0.0592,-0.1066,-0.1707,-0.2373,-0.3,0.0,0.0,-0.7292,-0.8142,-0.7654,-0.8682,-0.9726,-0.9924,-1.2645,-1.5368,-1.6846,-1.8683,-2.0332,-2.1566,-2.2052,-2.2163,-2.1782,-2.2081,-2.2462,-2.2848,-2.2889,-2.3174,-2.3846,-2.3896,-2.3976,-2.4199,-2.4495,-2.4695,-2.4716,-2.5103,-2.5293,-2.5293,-2.5293,-2.5356,-2.5453,-2.5542,-2.5603,-2.5636,-2.5641,-2.5641,-2.5636,-2.5683,-2.5703,-2.5703,-2.5703,-2.566,-2.5586,-2.5478,-2.5385,-2.5293,-2.5293,-2.5244,-2.5183,0.0,0.0,0.0,0.0,0.0,0.0,0.0,0.0,0.0,0.0,0.0,0.0,0.0,0.0,0.0,0.0,0.0,0.0,0.0,0.0545,0.0477,0.0429,0.035,0.0327,0.0361,-0.0118,-0.046,-0.0674,-0.0714,-0.0674,-0.0538,-0.0471,-0.0447,-0.0478,-0.083,-0.1141,-0.144,-0.2008,-0.2452,-0.2739,-0.3285,-0.3416,0.0,0.0,0.0,0.0,0.0,0.0,0.0,0.0,-0.1911,-0.1637,-0.1482,-0.1315,-0.1114,-0.1009,-0.0905,-0.0901,-0.1023,-0.1459,-0.2053,-0.3027,0.0,0.0,-0.7193,-0.8681,-0.955,-0.9091,-0.9934,-1.0842,-1.13,-1.3727,-1.5997,-1.7025,-1.9124,-2.0893,-2.1642,-2.1855,-2.1862,-2.1617,-2.1556,-2.1692,-2.1977,-2.2084,-2.2371,-2.2923,-2.3288,-2.3573,-2.3804,-2.4306,-2.4617,-2.4731,-2.5094,-2.5293,-2.5293,-2.5293,-2.5293,-2.5293,-2.5392,-2.5476,-2.557,-2.5566,-2.5577,-2.5598,-2.5647,-2.5683,-2.5703,-2.5703,-2.5648,-2.5554,-2.5424,-2.5339,-2.5293,-2.5293,-2.5293,-2.5293,0.0,0.0,0.0,0.0,0.0,0.0,0.0,0.0,0.0,0.0,0.0,0.0,0.0,0.0,0.0,0.0,0.0,0.0,0.072,0.0698,0.063,0.0517,0.0495,0.045,0.0315,0.0495,0.0337,-0.0202,-0.0202,-0.0202,-0.0181,-0.0,-0.0084,-0.0394,-0.0606,-0.104,-0.1608,-0.1879,-0.2206,-0.2516,-0.2876,-0.3036,-0.3093,0.0,0.0,0.0,0.0,0.0,0.0,0.0,-0.1664,-0.1592,-0.1522,-0.11,-0.0686,-0.1159,-0.1253,-0.1358,-0.2104,-0.265,-0.3386,-0.5004,0.0,0.0,-0.7972,-0.9021,-0.9765,-1.0377,-1.0662,-1.1343,-1.3154,-1.3564,-1.4299,-1.6355,-1.8193,-1.9647,-2.0377,-2.0902,-2.0889,-2.0086,-2.0002,-2.0135,-2.0469,-2.0736,-2.1034,-2.1376,-2.2373,-2.2978,-2.2997,-2.3948,-2.4528,-2.4594,-2.5058,-2.5293,-2.5293,-2.5293,-2.5293,-2.5293,-2.5293,-2.5376,-2.5502,-2.5497,-2.5541,-2.56,-2.5595,-2.5636,-2.5703,-2.5703,-2.5619,-2.5488,-2.5346,-2.5293,-2.5293,-2.5293,-2.5293,-2.5293,0.0,0.0,0.0,0.0,0.0,0.0,0.0,0.0,0.0,0.0,0.0,0.0,0.0,0.0,0.0,0.0,0.0,0.0,0.085,0.0805,0.0717,0.0585,0.0562,0.0562,0.0517,0.0811,0.0648,-0.0,0.0162,0.0232,0.0221,0.0282,0.0263,0.0141,-0.0447,-0.1177,-0.1956,-0.1948,-0.2192,-0.2669,-0.2862,-0.2913,-0.2907,0.0,0.0,0.0,0.0,0.0,0.0,0.0,0.0,0.0,-0.1385,-0.1289,-0.1219,-0.0803,-0.0996,-0.1475,-0.2122,-0.3037,-0.4037,-0.52,-0.6253,-0.7403,-0.8803,-0.9389,-0.9932,-1.082,-1.1587,-1.2012,-1.1784,-1.3256,-1.4733,-1.5398,-1.7103,-1.8684,-1.9657,-1.992,-2.0013,-1.9993,-2.0002,-2.0044,-2.0135,-2.0399,-2.0679,-2.1013,-2.1515,-2.1917,-2.2143,-2.3511,-2.4303,-2.4321,-2.4952,-2.5293,-2.5293,-2.5293,-2.5293,-2.5293,-2.5293,-2.5368,-2.55,-2.5406,-2.5417,-2.5531,-2.5577,-2.5641,-2.5693,-2.5601,-2.5543,-2.5488,-2.5346,-2.5293,-2.5293,-2.5293,-2.5293,-2.5293,0.0,0.0,0.0,0.0,0.0,0.0,0.0,0.0,0.0,0.0,0.0,0.0,0.0,0.0,0.0,0.0,0.0,0.0,0.0,0.0,0.0805,0.0608,0.0632,0.0663,0.0684,0.0797,0.068,0.0329,0.0555,0.0627,0.0532,0.0639,0.0604,0.041,-0.0252,-0.0988,-0.1718,-0.1836,-0.2074,-0.2384,-0.2601,-0.2609,-0.2554,0.0,0.0,0.0,0.0,0.0,0.0,0.0,0.0,0.0,-0.1193,0.0,-0.1279,-0.1043,-0.1441,-0.221,-0.3107,-0.3934,-0.4837,-0.6201,-0.7251,-0.829,-0.9676,-1.0103,-1.0484,-1.1491,-1.2055,-1.2424,-1.2529,-1.395,-1.5219,-1.547,-1.6955,-1.8263,-1.876,-1.8964,-1.9083,-1.9124,-1.9123,-1.9123,-1.9123,-1.9473,-1.9764,-1.9976,-2.0604,-2.1079,-2.1281,-2.2832,-2.3787,-2.3925,-2.468,-2.5169,-2.5293,-2.5293,-2.5293,-2.5293,-2.5293,-2.5341,-2.5422,-2.5341,-2.5369,-2.5513,-2.5602,-2.5658,-2.5693,-2.5583,-2.5521,-2.5488,-2.5376,-2.5322,-2.5293,-2.5293,-2.5293,-2.5293,0.0,0.0,0.0,0.0,0.0,0.0,0.0,0.0,0.0,0.0,0.0,0.0,0.0,0.0,0.0,0.0,0.0,0.0,0.0,0.0,0.0872,0.0608,0.0641,0.0708,0.0787,0.0598,0.0579,0.0702,0.0936,0.0937,0.0681,0.0929,0.0857,0.0485,-0.0031,-0.0571,-0.1099,-0.1616,-0.1853,-0.1925,-0.2116,-0.2167,-0.2095,-0.2131,0.0,0.0,0.0,0.0,0.0,0.0,0.0,0.0,-0.1019,-0.0924,-0.1036,-0.1549,-0.2235,-0.307,-0.4421,-0.4966,-0.5573,-0.7465,-0.8161,-0.8777,-1.0271,-1.0839,-1.13,-1.2147,-1.2259,-1.2715,-1.4429,-1.5072,-1.5524,-1.6055,-1.7242,-1.8018,-1.7753,-1.8026,-1.8153,-1.7842,-1.7811,-1.7811,-1.7811,-1.827,-1.8566,-1.8594,-1.9703,-2.0367,-2.0383,-2.1896,-2.2904,-2.3211,-2.4101,-2.4755,-2.5108,-2.5168,-2.5226,-2.5274,-2.5293,-2.5293,-2.5293,-2.5293,-2.5369,-2.5508,-2.5637,-2.5703,-2.5693,-2.5633,-2.5561,-2.5493,-2.5428,-2.5363,-2.5293,-2.5293,-2.5293,-2.5293,0.0,0.0,0.0,0.0,0.0,0.0,0.0,0.0,0.0,0.0,0.0,0.0,0.0,0.0,0.0,0.0,0.0,0.0,0.0,0.0,0.0872,0.0608,0.0517,0.0511,0.0649,0.0642,0.0678,0.0694,0.0753,0.0666,0.0457,0.0698,0.0731,0.0639,0.0088,-0.0434,-0.0945,-0.1172,-0.1477,-0.1803,-0.1665,-0.1743,-0.1942,-0.1908,-0.196,0.0,0.0,0.0,0.0,0.0,0.0,0.0,-0.1204,-0.1137,-0.1142,-0.1097,-0.1508,-0.2107,-0.2837,-0.4209,-0.563,-0.653,-0.7874,-0.8873,-0.8605,-0.9966,-1.1411,-1.1784,-1.2432,-1.3089,-1.3488,-1.3905,-1.4329,-1.4805,-1.5398,-1.6106,-1.6897,-1.7091,-1.7313,-1.776,-1.7811,-1.7811,-1.7811,-1.8082,-1.8371,-1.8585,-1.9058,-1.9397,-1.9555,-2.051,-2.1066,-2.1142,-2.2257,-2.3121,-2.3723,-2.415,-2.46,-2.5067,-2.5224,-2.5293,-2.5293,-2.5293,-2.5369,-2.5508,-2.5637,-2.5703,-2.5693,-2.5633,-2.5561,-2.5493,-2.5428,-2.5363,-2.5293,-2.5293,-2.5293,-2.5293,0.0,0.0,0.0,0.0,0.0,0.0,0.0,0.0,0.0,0.0,0.0,0.0,0.0,0.0,0.0,0.0,0.0,0.0,0.0,0.0,0.0,0.0571,0.0464,0.0452,0.055,0.055,0.0597,0.0653,0.0582,0.0576,0.0607,0.0759,0.0824,0.0773,0.036,-0.0087,-0.0585,-0.0772,-0.1098,-0.1438,-0.1324,-0.1351,-0.152,-0.1544,-0.1614,-0.1706,-0.1681,0.0,0.0,0.0,0.0,0.0,0.0,0.0,-0.1313,-0.1331,-0.1702,-0.2268,-0.2869,-0.422,-0.5729,-0.6828,-0.7591,-0.8131,-0.8273,-0.9591,-1.0912,-1.1259,-1.2303,-1.3213,-1.3194,-1.3566,-1.3919,-1.4164,-1.4721,-1.5367,-1.6134,-1.6549,-1.6985,-1.7502,-1.7704,-1.7811,-1.7811,-1.8154,-1.845,-1.8594,-1.8939,-1.9198,-1.9289,-2.0179,-2.0678,-2.0631,-2.141,-2.2195,-2.296,-2.3712,-2.4255,-2.4577,-2.5061,-2.5293,-2.5303,-2.533,-2.5396,-2.5508,-2.5615,-2.5672,-2.5703,-2.5661,-2.5605,-2.5537,-2.5472,-2.541,-2.5337,-2.5313,-2.5293,-2.5293,0.0,0.0,0.0,0.0,0.0,0.0,0.0,0.0,0.0,0.0,0.0,0.0,0.0,0.0,0.0,0.0,0.0,0.0,0.0,0.0,0.0,0.0,0.0425,0.0425,0.0491,0.0445,0.0486,0.0608,0.0457,0.0495,0.0,0.0745,0.0765,0.0728,0.0465,0.0135,-0.0238,-0.049,-0.0752,-0.1009,-0.1033,-0.1041,-0.1056,-0.1172,-0.127,-0.1335,-0.1283,-0.1395,-0.1533,-0.1372,0.0,0.0,0.0,0.0,-0.1423,-0.1692,-0.2078,-0.2554,-0.3186,-0.4278,-0.5601,-0.7166,-0.7307,-0.7344,-0.8329,-0.9482,-1.0436,-1.0833,-1.205,-1.3088,-1.3198,-1.352,-1.3802,-1.3901,-1.4533,-1.5128,-1.5527,-1.6297,-1.6934,-1.7264,-1.7604,-1.7811,-1.7811,-1.8208,-1.8489,-1.8585,-1.8964,-1.9202,-1.9299,-2.0134,-2.0597,-2.0541,-2.0863,-2.1491,-2.2426,-2.3381,-2.4005,-2.4255,-2.4976,-2.5293,-2.5303,-2.5364,-2.5431,-2.5503,-2.5567,-2.5636,-2.5703,-2.5703,-2.566,-2.5588,-2.5535,-2.5455,-2.5389,-2.5321,-2.5293,-2.5293,0.0,0.0,0.0,0.0,0.0,0.0,0.0,0.0,0.0,0.0,0.0,0.0,0.0,0.0,0.0,0.0,0.0,0.0,0.0,0.0,0.0,0.0414,0.0398,0.0431,0.049,0.0487,0.0531,0.0608,0.0455,0.0,0.0,0.0,0.0,0.0116,-0.0099,-0.0256,-0.0393,-0.0525,-0.0595,-0.0576,-0.0695,-0.0775,-0.0849,-0.087,-0.0974,-0.1133,-0.1132,-0.1215,-0.1365,-0.1442,-0.1483,0.0,0.0,0.0,-0.1348,-0.1552,-0.1635,-0.1748,-0.2192,-0.3382,-0.4793,-0.59,-0.6778,-0.7446,-0.7922,-0.9459,-1.0827,-1.0903,-1.1791,-1.272,-1.3129,-1.3267,-1.3425,-1.3835,-1.4278,-1.481,-1.549,-1.6297,-1.6934,-1.7264,-1.7604,-1.7811,-1.7811,-1.7869,-1.8091,-1.8575,-1.866,-1.886,-1.9274,-1.9452,-1.9507,-1.9506,-1.9834,-2.0554,-2.1714,-2.2566,-2.3621,-2.4872,-2.5166,-2.5293,-2.5293,-2.5313,-2.5376,-2.5503,-2.5567,-2.5636,-2.5703,-2.5703,-2.566,-2.5588,-2.5535,-2.5455,-2.5389,-2.5321,-2.5293,-2.5293,0.0,0.0,0.0,0.0,0.0,0.0,0.0,0.0,0.0,0.0,0.0,0.0,0.0,0.0,0.0,0.0,0.0,0.0,0.0,0.0,0.0,0.0468,0.0427,0.0444,0.0551,0.0484,0.0474,0.054,0.0,0.0,0.0,-0.028,-0.0443,0.0,0.0,0.0,-0.033,-0.0297,-0.0313,-0.0385,-0.0457,-0.0525,-0.0623,-0.0623,-0.07,-0.0798,-0.0946,-0.1106,-0.1258,-0.1394,-0.1444,-0.1464,-0.1637,0.0,0.0,0.0,-0.1708,-0.1835,-0.267,-0.3214,-0.3859,-0.5058,-0.5777,-0.6411,-0.7129,-0.8988,-1.0593,-1.07,-1.1641,-1.2586,-1.3107,-1.2941,-1.2908,-1.3435,-1.4058,-1.4613,-1.4941,-1.5897,-1.6638,-1.6785,-1.7383,-1.7861,-1.8065,-1.8255,-1.8464,-1.868,-1.8895,-1.9081,-1.9289,-1.9305,-1.9356,-1.9458,-1.9877,-2.0279,-2.0697,-2.2096,-2.3602,-2.5172,-2.5264,-2.5293,-2.5303,-2.5338,-2.541,-2.5503,-2.5529,-2.5603,-2.5703,-2.5703,-2.5683,-2.5648,-2.5583,-2.5543,-2.5498,-2.5389,-2.5354,-2.5346,0.0,0.0,0.0,0.0,0.0,0.0,0.0,0.0,0.0,0.0,0.0,0.0,0.0,0.0,0.0,0.0,0.0,0.0,0.0,0.0,0.0,0.0472,0.0434,0.0473,0.0606,0.0495,0.0453,0.0,0.0,0.0,0.0087,-0.0304,-0.061,0.0,-0.049,-0.0302,0.0,-0.0026,-0.0028,-0.0181,-0.0373,-0.042,-0.0437,-0.0639,-0.0589,-0.0504,-0.0788,-0.1061,-0.1265,-0.1378,-0.142,-0.1457,-0.1618,-0.1565,0.0,0.0,0.0,-0.2098,-0.289,-0.3026,-0.3203,-0.4252,-0.484,-0.5471,-0.6635,-0.8577,-1.025,-1.0632,-1.1582,-1.2464,-1.2948,-1.2677,-1.2542,-1.2922,-1.3835,-1.4501,-1.4501,-1.5671,-1.6473,-1.6404,-1.7294,-1.8061,-1.8344,-1.8708,-1.892,-1.892,-1.9162,-1.9305,-1.9305,-1.9305,-1.9361,-1.9517,-1.9911,-2.0212,-2.0393,-2.2,-2.3543,-2.5005,-2.5005,-2.5005,-2.4995,-2.5045,-2.4995,-2.489,-2.5332,-2.5588,-2.5703,-2.5703,-2.5703,-2.5693,-2.5631,-2.5601,-2.5595,-2.5467,-2.5415,-2.5389,0.0,0.0,0.0,0.0,0.0,0.0,0.0,0.0,0.0,0.0,0.0,0.0,0.0,0.0,0.1428,0.1323,0.0,0.0,0.0,0.0,0.0,0.0403,0.0393,0.0,0.0606,0.0536,0.0535,0.0,0.0,0.0,0.0099,-0.0119,-0.0336,-0.0537,-0.0694,-0.0519,-0.0091,0.0,0.0197,0.0114,-0.0513,-0.0536,-0.0302,-0.0976,-0.0873,-0.0368,-0.077,-0.1098,-0.1412,-0.1467,-0.1501,-0.1514,-0.159,-0.1594,-0.16,0.0,0.0,0.0,-0.2107,-0.2581,-0.316,-0.3396,-0.4141,-0.5228,-0.6749,-0.8451,-0.9956,-1.0804,-1.158,-1.2202,-1.2484,-1.2466,-1.2423,-1.2454,-1.3601,-1.4501,-1.4501,-1.5836,-1.6688,-1.6438,-1.7509,-1.8364,-1.8566,-1.8998,-1.9265,-1.9265,-1.9289,-1.9305,-1.9305,-1.9305,-1.9305,-1.932,-1.9517,-2.0238,-2.1505,-2.2365,-2.3263,-2.4158,-2.4158,-2.4158,-2.4158,-2.4177,-2.379,-2.3216,-2.4882,-2.5634,-2.5703,-2.5703,-2.5703,-2.5693,-2.5631,-2.5601,-2.5588,-2.5521,-2.5455,-2.5403,0.0,0.0,0.0,0.0,0.0,0.0,0.0,0.0,0.0,0.0,0.0,0.0,0.0,0.1065,0.1012,0.1093,0.1073,0.0,0.0,0.0,0.0,0.0472,0.0546,0.0589,0.0607,0.0611,0.0,0.0,0.0,0.0398,0.0172,0.0172,0.0086,-0.0129,-0.0376,-0.0286,0.0024,0.0147,0.0213,0.018,-0.0094,-0.0764,-0.1492,-0.0993,-0.119,-0.1744,-0.1561,-0.1655,-0.1849,-0.1812,-0.1752,-0.1685,-0.1616,-0.1642,-0.171,-0.1871,-0.2144,-0.2373,-0.2339,-0.257,-0.2832,-0.2782,-0.3904,-0.532,-0.6236,-0.841,-1.0356,-1.0881,-1.1581,-1.2014,-1.1774,-1.1683,-1.1748,-1.2079,-1.3192,-1.385,-1.3403,-1.4663,-1.5893,-1.6564,-1.577,-1.6186,-1.8799,-1.8422,-1.8279,-1.8925,-1.9178,-1.9305,-1.9305,-1.9305,-1.94,-1.9606,-1.9695,-2.0058,-2.0755,-2.1484,-2.2317,-2.3273,-2.3273,-2.3273,-2.3273,-2.3349,-2.3255,-2.3041,-2.3753,-2.4373,-2.4912,-2.5469,-2.5703,-2.5703,-2.5672,-2.5661,-2.5659,-2.5586,-2.5521,-2.5455,0.0,0.0,0.0,0.0,0.0,0.0,0.0,0.0,0.0,0.0,0.0,0.0,0.0,0.0,0.0776,0.089,0.0782,0.0696,0.0701,0.0645,0.0567,0.0494,0.063,0.0653,0.0562,0.0,0.0,0.0,0.0,0.0,0.0,0.0366,0.035,0.0202,0.0042,0.0022,0.0,0.0316,0.0344,0.024,0.0032,-0.0674,-0.1534,-0.1128,-0.153,-0.2291,-0.1989,-0.2308,-0.2819,-0.2577,-0.2429,-0.2311,-0.215,-0.1963,-0.1851,-0.2122,-0.231,-0.2441,-0.2475,-0.2578,-0.2656,-0.2487,-0.3479,-0.4759,-0.5793,-0.7868,-0.9903,-1.1011,-1.1626,-1.1842,-1.139,-1.1246,-1.1373,-1.1835,-1.2836,-1.341,-1.3028,-1.4069,-1.5145,-1.5855,-1.4954,-1.5383,-1.8194,-1.7853,-1.7859,-1.8806,-1.9022,-1.9178,-1.9289,-1.9305,-1.9405,-1.9628,-1.9781,-1.9952,-2.0126,-2.069,-2.1435,-2.236,-2.236,-2.236,-2.2369,-2.2481,-2.2377,-2.2146,-2.2545,-2.3368,-2.4443,-2.5019,-2.5439,-2.5703,-2.5703,-2.5703,-2.5693,-2.5648,-2.558,-2.5493,0.0,0.0,0.0,0.0,0.0,0.0,0.0,0.0,0.0,0.0,0.0,0.0,0.0,0.0,0.0,0.0704,0.0579,0.0504,0.0487,0.0434,0.0432,0.0493,0.0,0.0,0.0,0.0,0.0,0.0,0.0,0.0,0.0,0.0,0.0477,0.0405,0.0472,0.0405,0.0227,0.0634,0.0646,0.0373,-0.017,-0.0317,-0.034,-0.1511,-0.1908,-0.1867,-0.2052,-0.3056,-0.4195,-0.3663,-0.3452,-0.3334,-0.3128,-0.2601,-0.2075,-0.2341,-0.2442,-0.2475,0.0,0.0,0.0,-0.2534,-0.2832,-0.3618,-0.5465,-0.6884,-0.8553,-1.1089,-1.1649,-1.1621,-1.1356,-1.1303,-1.1411,-1.1663,-1.2543,-1.325,-1.3428,-1.4155,-1.4547,-1.4204,-1.5208,-1.6159,-1.6711,-1.7357,-1.8068,-1.8911,-1.8851,-1.8936,-1.9274,-1.9299,-1.9305,-1.932,-1.9741,-1.9933,-1.9811,-2.0126,-2.0688,-2.1466,-2.1466,-2.1456,-2.1474,-2.1533,-2.1137,-2.0453,-2.1367,-2.2738,-2.4326,-2.4385,-2.4912,-2.5703,-2.5703,-2.5703,-2.5703,-2.5703,-2.5617,-2.5503,0.0,0.0,0.0,0.0,0.0,0.0,0.0,0.0,0.0,0.0,0.0,0.0,0.0,0.0,0.0504,0.0486,0.0441,0.042,0.0431,0.0456,0.0417,0.0292,0.054,0.0653,0.0,0.0,0.0,0.0,0.0,0.0,0.0,0.0,0.0,0.0,0.0675,0.063,0.05,0.066,0.0661,0.0515,0.0265,-0.0142,-0.0831,-0.2474,-0.2856,-0.2496,-0.301,-0.3391,-0.3639,-0.3697,-0.3272,-0.27,-0.2513,-0.2401,-0.238,-0.2446,-0.2543,-0.2646,-0.2681,0.0,0.0,0.0,0.0,0.0,-0.4944,-0.6873,-0.8746,-0.9508,-1.0742,-1.1686,-1.1666,-1.1659,-1.1777,-1.2079,-1.2529,-1.2688,-1.2268,-1.3357,-1.3954,-1.3328,-1.3771,-1.4622,-1.5878,-1.5913,-1.6452,-1.794,-1.8202,-1.8522,-1.904,-1.9221,-1.9405,-1.9657,-1.9688,-1.9858,-2.0153,-2.0106,-2.0276,-2.0629,-2.0629,-2.0629,-2.0624,-2.0706,-2.0638,-2.0487,-2.0805,-2.1562,-2.2685,-2.3896,-2.4912,-2.5703,-2.5703,-2.5703,-2.5703,-2.5703,-2.5617,-2.5503,0.0,0.0,0.0,0.0,0.0,0.0,0.2014,0.0,0.0,0.0,0.0,0.0,0.0,0.0,0.0422,0.0409,0.0452,0.0471,0.0447,0.045,0.0427,0.0337,0.0517,0.0585,0.0517,0.0,0.0,0.0,0.0,0.0,0.0,0.0,0.0,0.0,0.0,0.0,0.0648,0.0731,0.0686,0.0568,0.0568,0.0216,-0.0536,-0.2218,-0.2777,-0.2739,-0.3175,-0.3507,-0.3796,-0.4284,-0.4053,-0.3504,-0.3122,-0.2889,-0.2722,-0.2618,-0.2676,-0.2775,-0.2782,-0.2831,-0.2891,-0.2868,0.0,0.0,-0.4284,-0.5984,-0.7848,-0.9072,-0.9097,-0.8921,-0.8964,-0.9163,-0.9936,-1.1803,-1.2343,-1.2464,-1.2276,-1.3014,-1.3464,-1.3151,-1.3354,-1.4001,-1.521,-1.5267,-1.5768,-1.7095,-1.7444,-1.7901,-1.859,-1.9186,-1.9563,-1.971,-1.9834,-1.9982,-2.0169,-2.0142,-2.0179,-2.0302,-2.0301,-2.0302,-2.0303,-2.0397,-2.046,-2.05,-2.0574,-2.1094,-2.1982,-2.2949,-2.3867,-2.4687,-2.5029,-2.5156,-2.5195,-2.5566,-2.5617,-2.5503,0.0,0.0,0.0,0.2321,0.2355,0.2352,0.229,0.1926,0.1602,0.0,0.0,0.0,0.0,0.0,0.0,0.0,0.0519,0.0579,0.0515,0.045,0.045,0.0517,0.0517,0.0495,0.0427,0.0292,0.0,0.0,0.0,0.0,0.0,0.0,0.0,0.0,0.0,0.0,0.0,0.083,0.0724,0.0515,0.068,0.0509,-0.0037,-0.13,-0.2231,-0.2831,-0.295,-0.3491,-0.4219,-0.493,-0.5146,-0.4985,-0.4257,-0.3712,-0.3221,-0.2823,-0.2854,-0.2992,-0.2883,-0.295,-0.305,-0.3216,-0.3323,0.0,-0.3751,-0.4838,-0.6451,-0.8748,-0.7,-0.4991,-0.4833,-0.5557,-0.7325,-1.091,-1.1851,-1.2341,-1.2871,-1.2916,-1.3025,-1.3388,-1.3534,-1.392,-1.4679,-1.5077,-1.5614,-1.6381,-1.6734,-1.7257,-1.8051,-1.9089,-1.9599,-1.9488,-1.9993,-2.0187,-2.0031,-2.0205,-2.0302,-2.0302,-2.0299,-2.0303,-2.032,-2.0438,-2.05,-2.0513,-2.0575,-2.1035,-2.1758,-2.1758,-2.2334,-2.3281,-2.4092,-2.4404,-2.4512,-2.5381,-2.5617,-2.5503,0.0,0.0,0.0,0.2012,0.2081,0.215,0.2147,0.1751,0.0,0.0,0.0,0.0,0.0,0.0,0.0,0.0,0.0549,0.0575,0.0494,0.0585,0.063,0.0585,0.063,0.063,0.0562,0.0427,0.0,0.0,0.0,0.0,0.0,0.0,0.0,0.0,0.0,0.0,0.0,0.0667,0.0543,0.0507,0.0527,-0.0144,-0.1204,-0.164,-0.2482,-0.3447,-0.3445,-0.3576,-0.376,-0.4208,-0.4717,-0.5003,-0.3994,-0.4125,-0.4402,-0.3156,-0.3204,-0.3625,-0.3284,-0.3166,-0.3219,-0.3516,-0.3819,0.0,-0.4368,-0.5453,-0.6147,-0.5183,-0.516,-0.4962,-0.3771,-0.5894,-0.8184,-0.9285,-1.047,-1.1579,-1.2549,-1.2455,-1.2606,-1.3451,-1.3306,-1.3485,-1.4388,-1.4557,-1.4997,-1.5958,-1.667,-1.7346,-1.7984,-1.8488,-1.8769,-1.8787,-1.962,-2.0115,-2.0241,-2.0277,-2.0302,-2.0302,-2.0299,-2.0331,-2.0374,-2.046,-2.0527,-2.0575,-2.0586,-2.0703,-2.085,-2.085,-2.1777,-2.3281,-2.4092,-2.4404,-2.4512,-2.5381,-2.5617,-2.5503,0.0,0.0,0.1971,0.1916,0.1974,0.2053,0.2039,0.1766,0.0,0.0,0.0,0.0,0.0,0.0,0.0,0.0,0.0,0.0,0.0608,0.0653,0.0698,0.0698,0.0764,0.0777,0.0762,0.0643,0.0534,0.0,0.0,0.0,0.0,0.0,0.0,0.0,0.0,0.0,0.0,0.0595,0.0184,-0.0398,-0.0337,-0.1185,-0.2552,-0.2676,-0.3071,-0.358,-0.358,-0.3751,-0.4008,-0.4206,-0.4499,-0.4853,-0.4778,-0.4525,-0.4058,-0.3169,-0.3226,-0.35,-0.3292,-0.3387,-0.3619,-0.4129,-0.4459,0.0,0.0,-0.5618,-0.6125,-0.5523,-0.579,-0.5924,-0.5189,-0.6441,-0.7888,-0.8761,-0.9684,-1.0508,-1.111,-1.1958,-1.2508,-1.2589,-1.3158,-1.3792,-1.4434,-1.453,-1.4786,-1.5355,-1.6076,-1.6656,-1.7024,-1.8069,-1.8668,-1.8698,-1.9644,-2.0197,-2.0294,-2.0302,-2.0302,-2.0302,-2.0332,-2.0371,-2.0401,-2.05,-2.0574,-2.0596,-2.0596,-2.0596,-2.0596,-2.0596,-2.1113,-2.1992,-2.2832,-2.3418,-2.3896,-2.4736,-2.5236,-2.5503,0.1266,0.0,0.1814,0.1834,0.1909,0.1951,0.1984,0.1806,0.0,0.0,0.0,0.0,0.0,0.0747,0.0731,0.0,0.0,0.0,0.0637,0.0731,0.0778,0.0778,0.0915,0.0965,0.0975,0.0874,0.0713,0.0503,0.0,0.0,0.0,0.0,0.0,0.0,0.0,0.0,0.0,0.0462,-0.0078,-0.0857,-0.1183,-0.2132,-0.3387,-0.3463,-0.3492,-0.3494,-0.357,-0.388,-0.4273,-0.4291,-0.4389,-0.4601,-0.5264,-0.4745,-0.376,-0.3215,-0.3277,-0.3512,-0.343,-0.3726,-0.4202,-0.4936,-0.5296,-0.5521,0.0,0.0,0.0,-0.7302,-0.7411,-0.7394,-0.7388,-0.7388,-0.77,-0.8638,-0.9257,-0.9435,-0.8933,-1.0776,-1.1997,-1.1499,-1.2336,-1.3295,-1.42,-1.4421,-1.4621,-1.4877,-1.532,-1.5668,-1.5902,-1.748,-1.8367,-1.8357,-1.9471,-2.0067,-2.0052,-2.0225,-2.0302,-2.0302,-2.0371,-2.0401,-2.0404,-2.054,-2.0596,-2.0596,-2.0596,-2.0596,-2.0596,-2.0596,-2.0596,-2.0703,-2.1728,-2.2568,-2.332,-2.4287,-2.5012,-2.5503,0.1146,0.1296,0.0,0.1607,0.1686,0.1779,0.1894,0.1745,0.0,0.0,0.0,0.0,0.072,0.1001,0.1042,0.055,0.0603,0.063,0.044,0.0823,0.0958,0.0711,0.1067,0.1264,0.1246,0.1024,0.0916,0.0923,0.0,0.0,0.0,0.0,0.0,0.0,0.1049,0.1033,0.0896,0.0076,0.0133,0.0662,-0.1354,-0.2302,-0.2582,-0.2867,-0.3042,-0.3178,-0.3485,-0.3624,-0.3727,-0.3884,-0.4177,-0.4346,-0.4033,-0.4461,-0.4863,-0.354,-0.3873,-0.4553,-0.4319,-0.4572,-0.5076,-0.598,-0.6516,-0.6955,-0.7611,0.0,-0.8649,-0.8896,0.0,-0.9186,-0.9132,0.0,0.0,-0.8464,-0.9108,-0.8698,-0.5859,-0.7812,-0.986,-1.0777,-0.9642,-0.9943,-1.2898,-1.3565,-1.4117,-1.485,-1.4598,-1.4633,-1.5185,-1.6247,-1.6826,-1.6758,-1.8372,-1.9217,-1.9146,-1.9908,-2.0302,-2.0302,-2.0371,-2.0401,-2.0404,-2.054,-2.0596,-2.0596,-2.0596,-2.0596,-2.0596,-2.0596,-2.0596,-2.0762,-2.2344,-2.3057,-2.3389,-2.4971,-2.5529,-2.5503,0.1219,0.1343,0.0,0.0,0.1507,0.1495,0.1541,0.1514,0.0,0.0,0.0,0.1082,0.0834,0.0886,0.0827,0.0532,0.0522,0.0477,0.0392,0.0616,0.0839,0.1035,0.1035,0.1055,0.1185,0.1007,0.0904,0.0938,0.0875,0.0,0.0,0.0,0.0,0.0,0.102,0.0912,0.0664,-0.0202,-0.0614,-0.0746,-0.1458,-0.2004,-0.2425,-0.2775,-0.3085,-0.3402,-0.3556,-0.358,-0.3614,-0.3716,-0.3821,-0.3898,-0.3716,-0.3993,-0.4254,-0.3726,-0.4079,-0.4659,-0.4837,-0.5847,-0.6934,-0.7296,-0.8117,-0.8892,-0.9008,-0.9118,-0.9244,-0.9458,0.0,0.0,0.0,0.0,0.0,0.0,-0.8567,-0.8076,-0.6715,-0.8507,-0.9602,-0.8594,-0.9735,-1.1464,-1.3712,-1.4116,-1.4287,-1.4434,-1.4432,-1.4638,-1.5128,-1.6069,-1.6573,-1.6499,-1.7699,-1.8575,-1.9053,-1.9381,-1.9794,-2.0302,-2.0371,-2.0401,-2.0404,-2.054,-2.0596,-2.0596,-2.0596,-2.0596,-2.0596,-2.0596,-2.0596,-2.0771,-2.2451,-2.3115,-2.3291,-2.4502,-2.5178,-2.5503,0.1275,0.0,0.0,0.1456,0.1366,0.1308,0.1315,0.1386,0.1397,0.1322,0.133,0.1263,0.0965,0.1132,0.1017,0.0404,0.0314,0.0296,0.0295,0.0324,0.059,0.1063,0.0826,0.0754,0.0947,0.0884,0.0871,0.0942,0.0841,0.0824,0.0,0.0,0.0,0.0,0.0935,0.0762,0.0408,-0.0431,-0.1316,-0.2165,-0.1811,-0.1779,-0.2031,-0.2649,-0.3188,-0.358,-0.358,-0.358,-0.358,-0.358,-0.358,-0.3573,-0.3485,-0.3677,-0.3914,-0.3943,-0.4465,-0.5145,-0.5518,-0.6876,-0.8262,-0.8423,-0.9333,-1.0182,-1.0162,-1.0143,-1.0178,-1.0425,-1.0466,0.0,0.0,0.0,-1.0165,-0.9329,0.0,-0.8287,-0.8117,-0.9358,-0.9615,-0.7789,-1.0275,-1.2595,-1.3798,-1.3727,-1.3725,-1.3996,-1.4109,-1.4473,-1.5187,-1.5867,-1.6221,-1.6169,-1.7229,-1.8096,-1.8742,-1.9148,-1.9669,-2.0302,-2.0371,-2.0401,-2.0404,-2.054,-2.0596,-2.0596,-2.0596,-2.0596,-2.0596,-2.0596,-2.0596,-2.0742,-2.2197,-2.2773,-2.293,-2.4268,-2.5082,-2.5517,0.1185,0.1252,0.0,0.1298,0.1298,0.1333,0.1391,0.146,0.1448,0.1329,0.1761,0.1787,0.1087,0.1963,0.1943,0.0184,-0.0,-0.0,-0.0,-0.0,0.0167,0.0502,0.0468,0.0435,0.0503,0.0637,0.0839,0.1111,0.0908,0.0807,0.0,0.0,0.0,0.0,0.0794,0.0653,0.0341,-0.0602,-0.1635,-0.2674,-0.2666,-0.1927,-0.0996,-0.2362,-0.3188,-0.358,-0.358,-0.358,-0.358,-0.358,-0.358,-0.3553,-0.3232,-0.3696,-0.4386,-0.4282,-0.5297,-0.6492,-0.6706,-0.7442,-0.8388,-0.9232,-0.977,-1.0312,-1.1169,-1.1629,-1.2007,-1.2336,-1.2416,-1.242,-1.2489,-1.2396,-1.1835,-1.0391,-1.0089,0.0,0.0,-0.9337,-0.9527,-0.9513,-1.0655,-1.1627,-1.2133,-1.1531,-1.1863,-1.3672,-1.3344,-1.3715,-1.5223,-1.5332,-1.5337,-1.5342,-1.6937,-1.7809,-1.7842,-1.9453,-2.0273,-2.0302,-2.0371,-2.0401,-2.0404,-2.054,-2.0596,-2.0596,-2.0596,-2.0596,-2.0596,-2.0596,-2.0596,-2.0693,-2.1592,-2.1943,-2.2236,-2.4736,-2.5626,-2.5587,0.114,0.0,0.136,0.131,0.1335,0.1394,0.1502,0.1436,0.1431,0.1612,0.1611,0.1438,0.111,0.1169,0.0966,0.0309,0.0098,-0.0,-0.0,-0.0,0.0034,0.0177,0.0274,0.0171,-0.0142,0.0103,0.0403,0.0706,0.0605,0.0639,0.0,0.0,0.0,0.0,0.0742,0.0675,0.0523,-0.063,-0.1744,-0.2723,-0.3152,-0.2371,-0.1004,-0.0985,-0.2061,-0.3592,-0.3592,-0.309,-0.2546,-0.3318,-0.3592,-0.3581,-0.3477,-0.3636,-0.4025,-0.4749,-0.5608,-0.6641,-0.8282,-0.9853,-1.1025,-1.1033,-1.1948,-1.2704,-1.1953,-1.2071,-1.2602,-1.3497,-1.3157,-1.2902,-1.3546,-1.2903,-1.1971,-1.1072,-1.0914,-1.07,0.0,-1.0935,-1.1579,-1.1639,-1.1231,-1.1054,-1.1342,-1.1269,-1.1845,-1.342,-1.3856,-1.4653,-1.6024,-1.6143,-1.6164,-1.6157,-1.7266,-1.7835,-1.7805,-1.8892,-1.9725,-2.0302,-2.032,-2.0327,-2.0342,-2.0429,-2.0494,-2.0529,-2.0529,-2.0563,-2.0596,-2.0596,-2.0596,-2.0693,-2.1562,-2.1553,-2.1348,-2.3896,-2.4772,-2.4715,0.1163,0.1266,0.1354,0.1271,0.1309,0.1379,0.1577,0.1483,0.1445,0.1602,0.1598,0.1417,0.0928,0.0542,0.0289,0.0247,0.0098,-0.0,-0.0,-0.0,-0.0,-0.0,0.0108,0.0036,-0.0299,-0.0213,-0.0035,0.0138,0.0305,0.0471,0.0706,0.0,0.0,0.0,0.0622,0.0608,0.0652,-0.0242,-0.1064,-0.1859,-0.308,-0.2577,-0.1058,-0.0577,-0.1538,-0.3185,-0.3468,-0.2825,-0.1834,-0.2193,-0.2598,-0.3001,-0.3127,-0.3372,-0.3834,-0.5094,-0.6056,-0.726,-0.9439,-1.124,-1.2553,-1.2964,-1.4144,-1.4897,-1.398,-1.4066,-1.4537,-1.5305,-1.4417,-1.3831,-1.4986,-1.3635,-1.2223,-1.1896,-1.1564,-1.1319,0.0,-1.2212,-1.2904,-1.2693,-1.1942,-1.1323,-1.103,-1.1323,-1.1542,-1.1543,-1.3272,-1.4798,-1.5906,-1.6276,-1.6483,-1.653,-1.7627,-1.8228,-1.8261,-1.8747,-1.9444,-2.0302,-2.003,-2.006,-2.0342,-2.0432,-2.0486,-2.0539,-2.0539,-2.0563,-2.0596,-2.0596,-2.0596,-2.0664,-2.1221,-2.1094,-2.0869,-2.3114,-2.4049,-2.428,0.1293,0.1295,0.1283,0.1245,0.1248,0.1361,0.1575,0.164,0.1563,0.1322,0.1739,0.1645,0.0587,0.0185,-0.0,-0.0,-0.0,-0.0,-0.0,-0.0,-0.0,-0.0,-0.0,-0.0,-0.0,-0.0263,-0.0402,-0.0474,0.0035,0.037,0.0504,0.0,0.0,0.0,0.04,0.0446,0.0631,0.0465,0.0246,-0.02,-0.2484,-0.245,-0.1059,-0.1097,-0.1579,-0.2329,-0.3158,-0.2699,-0.1523,-0.0403,-0.0759,-0.1785,-0.2226,-0.2976,-0.3932,-0.5288,-0.6681,-0.8222,-1.0215,-1.1643,-1.301,-1.4994,-1.6177,-1.6873,-1.7027,-1.7381,-1.7687,-1.7744,-1.6244,-1.5345,-1.678,-1.4671,-1.2759,-1.2807,-1.2112,-1.1747,-1.2218,-1.3096,-1.3439,-1.2767,-1.2776,-1.2379,-1.1157,-1.1501,-1.0871,-0.864,-1.1818,-1.4228,-1.5087,-1.5861,-1.6361,-1.6531,-1.8049,-1.8943,-1.9078,-1.9017,-1.9408,-2.0225,-1.9478,-1.9525,-2.0274,-2.0449,-2.0527,-2.0527,-2.0576,-2.0596,-2.0596,-2.0596,-2.0596,-2.0596,-2.0596,-2.0596,-2.079,-2.2429,-2.3531,-2.4278,0.1526,0.1405,0.1373,0.1606,0.2055,0.2265,0.196,0.2306,0.2284,0.1275,0.1344,0.1149,0.023,0.0066,-0.0,-0.0,-0.0,-0.0,-0.0,-0.0,-0.0,-0.0,-0.0,-0.0,-0.0,-0.0079,-0.0114,-0.0146,-0.0,0.021,0.0504,0.0,0.0,0.0,0.0471,0.0215,-0.0179,0.0234,0.0246,-0.0054,-0.0672,-0.0662,-0.0346,-0.09,-0.1223,-0.1377,-0.1049,-0.0708,-0.0404,-0.009,-0.0224,-0.0627,-0.1651,-0.3303,-0.4963,-0.5535,-0.6681,-0.8385,-1.1069,-1.2957,-1.4605,-1.6443,-1.7701,-1.8441,-1.8302,-1.8499,-1.8962,-1.9795,-1.8864,-1.7792,-1.7499,-1.5974,-1.4343,-1.3082,-1.2842,-1.2933,-1.3202,-1.3515,-1.3695,-1.3712,-1.3694,-1.3155,-1.1801,-1.0024,-0.9874,-1.2122,-1.3785,-1.5368,-1.6919,-1.73,-1.775,-1.8388,-1.9294,-1.9478,-1.8879,-1.8856,-1.8966,-1.9183,-1.8488,-1.8266,-1.8489,-1.9172,-1.951,-1.9597,-2.0243,-2.0553,-2.0596,-2.0596,-2.0596,-2.0596,-2.0596,-2.054,-2.0581,-2.1659,-2.297,-2.4191,0.1695,0.1571,0.1465,0.1575,0.2252,0.2746,0.2642,0.275,0.2621,0.1907,0.1517,0.1272,0.1175,0.047,-0.0,-0.0,-0.0,-0.0,-0.0,-0.0,-0.0,-0.0,-0.0,-0.0,-0.0,-0.0,-0.015,-0.0474,-0.0285,-0.0104,0.0067,0.0,0.0,0.0,0.0422,0.0033,-0.0454,0.0014,0.0139,0.0,0.0,0.0,0.0,-0.0466,-0.0826,-0.0983,-0.0277,-0.0,-0.0,-0.0,-0.0,-0.0225,-0.1429,-0.3086,-0.4706,-0.549,-0.6656,-0.8397,-1.1301,-1.3544,-1.5606,-1.8121,-1.9587,-2.0501,-2.089,-2.1182,-2.1531,-2.2086,-2.1014,-1.9858,-1.9496,-1.741,-1.5167,-1.3365,-1.3244,-1.3461,-1.366,-1.3806,-1.3915,-1.4033,-1.4096,-1.3822,-1.3027,-1.1619,-1.1709,-1.4048,-1.4758,-1.5506,-1.6474,-1.7287,-1.7973,-1.8515,-1.9179,-1.9521,-1.9496,-1.871,-1.8695,-1.9441,-1.8355,-1.8032,-1.8388,-1.8913,-1.9178,-1.929,-2.0131,-2.054,-2.0596,-2.0596,-2.0596,-2.0596,-2.0596,-2.0525,-2.0459,-2.0951,-2.1933,-2.3081,0.1792,0.1693,0.1506,0.1334,0.204,0.2806,0.3194,0.302,0.2788,0.2694,0.1984,0.1809,0.2595,0.1309,0.0269,0.0034,-0.0,-0.0,-0.0,-0.0,-0.0,-0.0,-0.0,-0.0,-0.0,-0.0,-0.033,-0.0948,-0.0626,-0.0474,0.0,0.0,0.0,0.0,0.0302,-0.0067,-0.042,-0.0127,-0.0,0.0,0.0,0.0,0.0,0.0,-0.0403,-0.0888,-0.0221,-0.0,-0.0,-0.0,-0.0,-0.0225,-0.1429,-0.2639,-0.388,-0.531,-0.6732,-0.8448,-1.146,-1.3902,-1.6419,-1.9899,-2.1586,-2.2686,-2.3842,-2.4279,-2.4373,-2.4215,-2.2755,-2.155,-2.1737,-1.8778,-1.5764,-1.4041,-1.3786,-1.3926,-1.4298,-1.4285,-1.4236,-1.4262,-1.428,0.0,-1.4246,-1.4338,-1.4519,-1.4803,-1.5026,-1.5147,-1.5144,-1.6662,-1.7665,-1.7962,-1.8634,-1.9375,-2.0176,-1.8627,-1.8494,-1.9756,-1.8378,-1.8029,-1.862,-1.8903,-1.9074,-1.918,-2.0109,-2.0551,-2.0596,-2.0596,-2.0596,-2.0596,-2.0596,-2.0525,-2.0401,-2.0401,-2.0799,-2.1547,0.159,0.1463,0.1336,0.1305,0.1622,0.2029,0.2437,0.3018,0.3267,0.2773,0.257,0.2517,0.2696,0.2424,0.1613,0.0134,-0.0,-0.0,-0.0,-0.0,-0.0,-0.0,-0.0,-0.0,-0.0,-0.0,-0.0076,-0.0182,-0.0542,-0.0703,0.0,0.0,0.0,0.0,-0.0,-0.0,-0.01,-0.0029,-0.0,0.0,0.0,0.0,0.0,0.0,-0.0077,-0.0168,-0.0041,-0.0,-0.0,-0.0,-0.0,-0.0225,-0.1429,-0.263,-0.3919,-0.5537,-0.712,-0.9142,-1.2697,-1.5352,-1.7932,-2.132,-2.3051,-2.4144,-2.5022,-2.517,-2.5131,-2.5151,-2.4057,-2.2775,-2.1742,-1.9332,-1.7211,-1.6316,-1.5692,-1.5767,-1.7087,-1.5915,-1.5108,-1.5592,-1.4802,-1.4149,-1.3992,-1.423,-1.4414,-1.4481,-1.4736,-1.5168,-1.5867,-1.7018,-1.8035,-1.8845,-1.9578,-1.9672,-1.9088,-1.8775,-1.8073,-1.6998,-1.6826,-1.6499,-1.6099,-1.7491,-1.8158,-1.832,-1.9902,-2.0586,-2.0596,-2.0596,-2.0596,-2.0596,-2.0596,-2.0525,-2.0401,-2.0401,-2.045,-2.072,0.137,0.1252,0.1213,0.1379,0.1612,0.1903,0.2252,0.2829,0.3068,0.2664,0.2673,0.2659,0.2611,0.2647,0.2151,0.0804,0.0268,-0.0,-0.0,-0.0,-0.0,-0.0,-0.0,-0.0,-0.0,-0.0,-0.0036,-0.014,-0.049,-0.069,-0.0807,-0.0471,-0.0403,-0.0505,-0.0519,-0.062,-0.0798,-0.0246,-0.0,-0.0,-0.0,0.0,-0.0,-0.0,-0.0,-0.0,-0.0,-0.0,-0.0,-0.0,-0.0,-0.0225,-0.1429,-0.2635,-0.3882,-0.5288,-0.698,-0.919,-1.2551,-1.5363,-1.8116,-2.1545,-2.312,-2.413,-2.529,-2.5526,-2.5507,-2.55,-2.4909,-2.3774,-2.1763,-1.9564,-1.7911,-1.7446,-1.6806,-1.6824,-1.8133,-1.7214,-1.6485,-1.6742,-1.5805,-1.4858,-1.4128,-1.4074,-1.4161,-1.434,-1.4595,-1.496,-1.5443,-1.6885,-1.794,-1.8464,-1.9233,-1.9611,-1.9581,-1.9129,-1.8504,-1.7701,-1.7341,-1.6991,-1.6671,-1.752,-1.8161,-1.8686,-1.9994,-2.0574,-2.0596,-2.0596,-2.0596,-2.0596,-2.0563,-2.0492,-2.0397,-2.0357,-2.0334,-2.05,0.1373,0.1221,0.1162,0.1432,0.1811,0.2147,0.2344,0.2645,0.2778,0.2565,0.2646,0.2645,0.2546,0.2651,0.239,0.1676,0.0603,-0.0,-0.0,-0.0,-0.0,-0.0,-0.0,-0.0,-0.0,-0.0,-0.0067,-0.0235,-0.0471,-0.0706,-0.0942,-0.0875,-0.0914,-0.1028,-0.1129,-0.138,-0.1641,-0.0733,-0.0204,-0.0,-0.0,-0.0,-0.0,-0.0,-0.0,-0.0,-0.0,-0.0315,-0.0674,-0.018,-0.0359,-0.0898,-0.1564,-0.2728,-0.4072,-0.5298,-0.7045,-0.929,-1.2585,-1.5394,-1.8232,-2.1562,-2.3062,-2.4031,-2.5291,-2.5602,-2.5594,-2.551,-2.5143,-2.4117,-2.1751,-2.0124,-1.9021,-1.8594,-1.8091,-1.8116,-1.9173,-1.8351,-1.7723,-1.7967,-1.6764,-1.5582,-1.4674,-1.4149,-1.3959,-1.4179,-1.4462,-1.4765,-1.5037,-1.6604,-1.7702,-1.8161,-1.8956,-1.9597,-2.0054,-1.9539,-1.9003,-1.8463,-1.8004,-1.7686,-1.7528,-1.7777,-1.8383,-1.9247,-2.0142,-2.0552,-2.0596,-2.0576,-2.0576,-2.0575,-2.0525,-2.0454,-2.0366,-2.032,-2.0305,-2.0463,0.1932,0.1618,0.1377,0.1417,0.2082,0.263,0.2661,0.2708,0.2703,0.2699,0.2706,0.2711,0.2694,0.2683,0.2663,0.2561,0.1007,-0.0,-0.0,-0.0,-0.0,-0.0,-0.0,-0.0,-0.0,-0.0,-0.0,-0.0034,-0.0538,-0.0875,-0.1077,-0.1077,-0.1347,-0.1803,-0.1801,-0.1891,-0.2026,-0.1623,-0.0894,-0.0,-0.0,-0.0,-0.0,-0.0,-0.0,-0.0,-0.0,-0.1393,-0.293,-0.0719,-0.1438,-0.3109,-0.2101,-0.3075,-0.4891,-0.6313,-0.7937,-1.0077,-1.3959,-1.6735,-1.9219,-2.2048,-2.372,-2.482,-2.5379,-2.542,-2.53,-2.5169,-2.4347,-2.3191,-2.1658,-2.1683,-2.1644,-2.0754,-2.0363,-2.054,-2.1533,-1.9442,-1.822,-1.9446,-1.7297,-1.576,-1.5818,-1.4763,-1.4006,-1.3868,-1.4202,-1.4754,-1.5493,-1.6334,-1.7503,-1.9027,-1.986,-1.9957,-1.9311,-1.9895,-1.9023,-1.6734,-1.7395,-1.7333,-1.6653,-1.7514,-1.8381,-1.9247,-2.0193,-2.0586,-2.0596,-2.0529,-2.0507,-2.0511,-2.0498,-2.0415,-2.0309,-2.0303,-2.0305,-2.0377,0.1775,0.1628,0.1582,0.1784,0.2117,0.2421,0.2655,0.2688,0.2686,0.2714,0.2688,0.2656,0.2531,0.2639,0.2701,0.2708,0.2025,0.1144,0.0067,-0.0,-0.0,-0.0,-0.0,-0.0,-0.0,-0.0,-0.0168,-0.0471,-0.0706,-0.0874,-0.0976,-0.1425,-0.1922,-0.2396,-0.2576,-0.2229,-0.1514,-0.1666,-0.1049,0.0,0.0,-0.0,-0.0,-0.0,-0.0,-0.018,-0.1662,-0.3655,-0.5368,-0.3728,-0.3358,-0.3448,-0.3001,-0.4609,-0.6752,-0.733,-0.9124,-1.1529,-1.4376,-1.6838,-1.9275,-2.1953,-2.3295,-2.4171,-2.4959,-2.5096,-2.4988,-2.4735,-2.405,-2.3353,-2.2865,-2.245,-2.2207,-2.2272,-2.182,-2.1666,-2.2227,-2.0927,-1.9847,-1.9698,-1.8601,-1.7674,-1.7189,-1.5812,-1.4819,-1.4548,-1.4324,-1.4501,-1.5151,-1.6452,-1.7521,-1.8281,-1.9634,-2.019,-1.9863,-1.9629,-1.8747,-1.7215,-1.7549,-1.7533,-1.7252,-1.8224,-1.9178,-2.0055,-2.0394,-2.0564,-2.0586,-2.0477,-2.0458,-2.0494,-2.0408,-2.0297,-2.0181,-2.0131,-2.0077,-2.0028,0.1997,0.2,0.2095,0.2387,0.2346,0.2414,0.2808,0.2777,0.2714,0.2714,0.2691,0.2657,0.2516,0.262,0.2708,0.2706,0.22,0.1357,0.0067,-0.0,-0.0,-0.0,-0.0,-0.0,-0.0,-0.0,-0.0302,-0.0942,-0.0942,-0.1043,-0.128,-0.1783,-0.2234,-0.2665,-0.2983,-0.2628,-0.1816,-0.1431,-0.0781,-0.0046,-0.0582,-0.0803,-0.0779,-0.0493,-0.0386,-0.0562,-0.2009,-0.4146,-0.6177,-0.59,-0.5147,-0.4347,-0.4755,-0.6362,-0.8171,-0.8608,-1.0391,-1.2697,-1.4765,-1.691,-1.9104,-2.1261,-2.2405,-2.3241,-2.4207,-2.4401,-2.4352,-2.4281,-2.3823,-2.3514,-2.3874,-2.3166,-2.2677,-2.3138,-2.2631,-2.2198,-2.2184,-2.1273,-2.0426,-1.9899,-1.9147,-1.8583,-1.8308,-1.6768,-1.5796,-1.5786,-1.5146,-1.4969,-1.5424,-1.6909,-1.7962,-1.8448,-1.9658,-2.0305,-2.0301,-1.9692,-1.8819,-1.7702,-1.7955,-1.7946,-1.7748,-1.8988,-1.9929,-2.0574,-2.0498,-2.0511,-2.0565,-2.0428,-2.0408,-2.046,-2.0337,-2.0204,-2.0062,-2.0021,-1.9922,-1.98,0.2899,0.2944,0.3054,0.3236,0.2972,0.2843,0.3227,0.2972,0.2714,0.2714,0.2691,0.2698,0.2696,0.2687,0.269,0.269,0.1054,0.0032,-0.0,-0.0,-0.0,-0.0,-0.0,-0.0,-0.0,-0.0,-0.0437,-0.128,-0.128,-0.1551,-0.2095,-0.2019,-0.2198,-0.2607,-0.2817,-0.3168,-0.3398,-0.1026,-0.0014,-0.0156,-0.1957,-0.2656,-0.256,-0.164,-0.1294,-0.118,-0.0325,-0.1936,-0.4679,-0.641,-0.6634,-0.6349,-0.7492,-0.8131,-0.8784,-1.0233,-1.1652,-1.324,-1.5229,-1.7175,-1.8861,-1.9866,-2.1069,-2.2242,-2.3113,-2.3215,-2.3289,-2.3879,-2.3572,-2.3477,-2.4337,-2.3931,-2.3444,-2.3331,-2.2786,-2.2173,-2.1513,-2.0038,-1.9376,-2.0273,-1.8526,-1.7739,-1.9057,-1.7548,-1.6824,-1.7601,-1.6793,-1.6417,-1.6759,-1.7746,-1.8894,-2.0224,-2.0296,-2.0299,-2.0297,-2.0289,-1.9408,-1.7712,-1.8564,-1.8525,-1.7767,-1.9566,-2.0425,-2.0496,-2.0432,-2.0438,-2.0488,-2.0361,-2.0341,-2.0397,-2.0331,-2.0178,-2.0003,-2.0003,-1.9922,-1.9776,0.2762,0.2766,0.2822,0.2887,0.2777,0.2747,0.2874,0.2777,0.2714,0.2714,0.2699,0.2455,0.1825,0.2308,0.2199,0.0958,0.0323,-0.0,-0.0,-0.0,-0.0,-0.0,-0.0,-0.0,-0.0,-0.1212,-0.1993,-0.2267,-0.2055,-0.2124,-0.2449,-0.2335,-0.2545,-0.3042,-0.2578,-0.2698,-0.3178,-0.1799,-0.1097,-0.0991,-0.2205,-0.2694,-0.2677,-0.2382,-0.2255,-0.2202,-0.1944,-0.3284,-0.5337,-0.6007,-0.6757,-0.7527,-0.8602,-0.947,-1.0524,-1.281,-1.4283,-1.5319,-1.6189,-1.735,-1.8529,-1.9421,-2.0067,-2.0662,-2.1256,-2.0789,-2.0759,-2.2667,-2.2328,-2.2165,-2.3685,-2.3981,-2.3716,-2.295,-2.2661,-2.2014,-2.0525,-2.0037,-1.9811,-1.9785,-1.9213,-1.9092,-1.9753,-1.851,-1.7742,-1.7967,-1.66,-1.6154,-1.7087,-1.8008,-1.8782,-1.9383,-1.999,-2.0308,-2.0299,-1.9704,-1.9138,-1.8588,-1.8876,-1.9164,-1.9493,-2.0073,-2.0371,-2.0429,-2.0357,-2.0397,-2.0488,-2.0361,-2.0341,-2.0393,-2.0331,-2.0123,-1.9859,-1.9859,-1.9685,-1.9448,0.2714,0.2714,0.2714,0.2714,0.2714,0.2779,0.2975,0.2845,0.2659,0.2601,0.2593,0.2261,0.1402,0.1522,0.1229,0.0113,-0.0,-0.0,-0.0,-0.0,-0.0,-0.0,-0.0639,-0.1009,-0.1009,-0.1786,-0.2364,-0.2708,-0.2529,-0.253,-0.2645,-0.2534,-0.2606,-0.2742,-0.2539,-0.2618,-0.2925,-0.2476,-0.1894,-0.1383,-0.2318,-0.2689,-0.2703,-0.2689,-0.2782,-0.2926,-0.2964,-0.4036,-0.5443,-0.5803,-0.6579,-0.7632,-0.8859,-0.9943,-1.1303,-1.3861,-1.5242,-1.6076,-1.6696,-1.7449,-1.8108,-1.848,-1.8763,-1.9026,-1.9365,-1.9313,-1.9694,-2.1443,-2.1532,-2.1845,-2.3594,-2.3888,-2.3639,-2.2942,-2.206,-2.1046,-1.9829,-1.9511,-1.9506,-1.9768,-2.0023,-2.0383,-2.0975,-1.9896,-1.9132,-1.9124,-1.7734,-1.7289,-1.819,-1.8209,-1.8592,-1.9465,-2.0023,-2.0302,-2.0302,-1.9756,-1.9321,-1.9001,-1.9001,-1.93,-1.9858,-2.0162,-2.0316,-2.0357,-2.0337,-2.0388,-2.0453,-2.0336,-2.0343,-2.0393,-2.0326,-2.0103,-1.98,-1.98,-1.9589,-1.9305,0.2714,0.2714,0.2714,0.2714,0.2714,0.2878,0.3366,0.3008,0.2625,0.2438,0.239,0.2134,0.1434,0.055,-0.0,-0.0,-0.0,-0.0,-0.0,-0.0,-0.0063,-0.0167,-0.1786,-0.2715,-0.2713,-0.1848,-0.1811,-0.2696,-0.2696,-0.2691,-0.2714,-0.2714,-0.241,-0.19,-0.2659,-0.2891,-0.2731,-0.2973,-0.2418,-0.1469,-0.2344,-0.2714,-0.2714,-0.2714,-0.2939,-0.3325,-0.3558,-0.4262,-0.5172,-0.5723,-0.6223,-0.6891,-0.8466,-0.978,-1.1236,-1.3617,-1.4926,-1.5816,-1.6922,-1.7464,-1.7625,-1.7228,-1.7271,-1.7442,-1.7579,-1.8543,-1.9573,-2.0273,-2.1013,-2.2088,-2.3823,-2.3605,-2.3119,-2.2964,-2.1043,-1.9505,-1.9286,-1.8601,-1.8654,-2.0044,-2.067,-2.1367,-2.2321,-2.1328,-2.0653,-2.0709,-1.9734,-1.9342,-1.9778,-1.8403,-1.8425,-2.0236,-2.0302,-2.0302,-2.0302,-2.0302,-1.9888,-1.9088,-1.9088,-1.912,-1.9213,-1.9962,-2.0301,-2.0297,-2.0371,-2.0363,-2.0311,-2.0312,-2.0309,-2.0311,-2.0311,-2.0107,-1.9802,-1.98,-1.9602,-1.932,0.2714,0.2714,0.2714,0.2714,0.2714,0.2747,0.2878,0.2779,0.2659,0.2501,0.2299,0.2111,0.1994,0.0787,-0.0,-0.0,-0.0,-0.0,-0.0,-0.0,-0.0621,-0.1988,-0.2485,-0.2712,-0.2701,-0.2493,-0.2486,-0.2684,-0.2684,-0.2684,-0.2714,-0.2714,-0.2637,-0.2506,-0.27,-0.2759,-0.2719,-0.2754,-0.2622,-0.2383,-0.2627,-0.2714,-0.2714,-0.2714,-0.2939,-0.3423,-0.4497,-0.4967,-0.5172,-0.5723,-0.6223,-0.6819,-0.8,-0.9258,-1.0851,-1.3803,-1.5321,-1.628,-1.7374,-1.771,-1.7602,-1.6803,-1.6598,-1.6641,-1.682,-1.6503,-1.6842,-1.9191,-1.9287,-1.974,-2.2253,-2.2225,-2.1525,-2.0544,-1.9848,-1.9048,-1.7958,-1.8185,-1.8663,-1.917,-1.9658,-2.0113,-2.0498,-2.0121,-1.987,-1.988,-1.9132,-1.9001,-1.9762,-1.9021,-1.9104,-2.0256,-2.0302,-2.0302,-2.0302,-2.0302,-2.0206,-1.9994,-1.9994,-1.9992,-2.0015,-2.0207,-2.0294,-2.0294,-2.0323,-1.9984,-1.9459,-2.0113,-1.999,-1.9465,-2.0123,-2.0197,-1.9944,-1.9836,-1.9676,-1.9513,0.2746,0.301,0.3173,0.2779,0.2569,0.2525,0.2692,0.2566,0.2449,0.2335,0.2197,0.2081,0.2012,0.1309,0.0603,0.0045,-0.0,-0.0,-0.0,-0.0,-0.0811,-0.2607,-0.2697,-0.2705,-0.2698,-0.2693,-0.2685,-0.2609,-0.2609,-0.2609,-0.2609,-0.268,-0.2714,-0.2714,-0.2714,-0.2714,-0.2714,-0.2714,-0.2714,-0.2714,-0.2714,-0.2714,-0.2714,-0.2714,-0.3072,-0.3721,-0.4438,-0.4924,-0.5222,-0.5544,-0.5988,-0.6615,-0.7661,-0.8975,-1.0682,-1.3637,-1.5239,-1.6307,-1.7442,-1.7645,-1.7294,-1.6355,-1.5863,-1.5659,-1.5861,-1.5806,-1.6262,-1.806,-1.86,-1.936,-2.1372,-2.1323,-2.0726,-1.9911,-1.9314,-1.8643,-1.7816,-1.8171,-1.878,-1.954,-1.995,-2.0367,-2.0946,-2.0488,-2.0154,-2.0154,-1.9492,-1.9294,-1.9771,-1.963,-1.9769,-2.0275,-2.0302,-2.0302,-2.0302,-1.9898,-1.9706,-1.9706,-1.9715,-1.9708,-1.9717,-2.0121,-2.0302,-2.0302,-2.0331,-1.9876,-1.9142,-1.9636,-1.9553,-1.914,-1.959,-1.9858,-1.9983,-1.9847,-1.971,-1.9578,0.2779,0.3261,0.349,0.271,0.2362,0.2305,0.2572,0.237,0.2173,0.2095,0.2091,0.1981,0.1699,0.1753,0.1324,0.0112,-0.0,-0.0,-0.0,-0.016,-0.0908,-0.2352,-0.2552,-0.2628,-0.2628,-0.2618,-0.2582,-0.245,-0.245,-0.2492,-0.2607,-0.2714,-0.2823,-0.2878,-0.2812,-0.2777,-0.2777,-0.2777,-0.2777,-0.2812,-0.2878,-0.2909,-0.2909,-0.2909,-0.3403,-0.4088,-0.4088,-0.457,-0.5182,-0.5182,-0.557,-0.6191,-0.7186,-0.8635,-1.0427,-1.3128,-1.4701,-1.59,-1.7266,-1.7135,-1.6467,-1.5803,-1.5166,-1.4781,-1.5036,-1.5808,-1.6653,-1.7239,-1.8385,-1.9645,-2.0779,-2.0598,-2.0174,-1.9875,-1.9039,-1.8357,-1.8153,-1.8344,-1.8932,-2.0136,-2.0448,-2.0914,-2.1757,-2.1073,-2.0574,-2.0574,-2.0063,-1.9776,-1.98,-2.0088,-2.0277,-2.0294,-2.0302,-2.0302,-2.0302,-1.9444,-1.9001,-1.9001,-1.9004,-1.8996,-1.9025,-1.99,-2.03,-2.0304,-2.023,-1.9712,-1.8936,-1.9113,-1.9069,-1.8918,-1.9114,-1.9532,-2.0031,-1.9858,-1.9735,-1.9609,0.2714,0.2569,0.2362,0.2014,0.2075,0.2207,0.2258,0.2183,0.2082,0.2037,0.2075,0.1831,0.1127,0.1502,0.1324,0.0112,-0.0,-0.0,-0.0,-0.096,-0.1419,-0.1199,-0.1837,-0.2222,-0.2281,-0.2279,-0.2266,-0.2244,-0.2244,-0.2508,-0.3,-0.3029,-0.3313,-0.3796,-0.3397,-0.3196,-0.3196,-0.3196,-0.3196,-0.3229,-0.363,-0.3798,-0.3798,-0.3798,-0.4086,-0.4503,-0.4503,-0.4599,-0.4698,-0.4698,-0.4967,-0.5393,-0.5989,-0.7513,-0.9582,-1.2159,-1.3566,-1.4738,-1.6735,-1.5671,-1.4124,-1.4713,-1.4606,-1.4492,-1.4911,-1.5711,-1.66,-1.7534,-1.8034,-1.8676,-1.9882,-1.9623,-1.9092,-1.8654,-1.8571,-1.8378,-1.7855,-1.8427,-1.8984,-1.9206,-1.941,-1.9586,-1.976,-1.9629,-1.9525,-1.9525,-1.9597,-1.9682,-1.9788,-1.9963,-2.0124,-2.0285,-2.0302,-2.0302,-2.0302,-1.9444,-1.9001,-1.8996,-1.8994,-1.9001,-1.903,-1.9898,-2.0299,-2.026,-1.9591,-1.8841,-1.8137,-1.8828,-1.8682,-1.8137,-1.9554,-2.0159,-2.0225,-1.9909,-1.9788,-1.9716,0.278,0.3319,0.3454,0.2178,0.1978,0.2042,0.2177,0.2046,0.1971,0.2034,0.1993,0.1799,0.1417,0.1643,0.1306,0.0112,-0.0,-0.0,-0.0,-0.1137,-0.1668,-0.1386,-0.1879,-0.2155,-0.2155,-0.2102,-0.2088,-0.2088,-0.2171,-0.2467,-0.2996,-0.298,-0.3342,-0.3986,-0.36,-0.3517,-0.3693,-0.3693,-0.3693,-0.3691,-0.3923,-0.3993,-0.3993,-0.3993,-0.425,-0.4567,-0.4344,-0.4409,-0.4599,-0.4599,-0.4837,-0.5223,-0.5987,-0.7467,-0.9299,-1.1362,-1.365,-1.5629,-1.5993,-1.4793,-1.3573,-1.4086,-1.4106,-1.4228,-1.4984,-1.604,-1.6973,-1.7442,-1.7853,-1.8333,-1.8878,-1.8985,-1.8878,-1.8518,-1.8744,-1.8842,-1.8447,-1.8851,-1.9166,-1.9166,-1.9243,-1.9305,-1.9305,-1.9305,-1.9305,-1.9305,-1.9545,-1.9726,-1.98,-2.0031,-2.0205,-2.0294,-2.0302,-2.0071,-1.96,-1.8742,-1.8292,-1.8292,-1.7859,-1.7885,-1.8309,-1.8715,-1.8907,-1.8879,-1.8586,-1.8242,-1.793,-1.8299,-1.8473,-1.8568,-1.9306,-1.9887,-2.026,-1.992,-1.98,-1.9687,0.2683,0.358,0.3957,0.2317,0.1907,0.186,0.207,0.1933,0.1847,0.2015,0.177,0.1593,0.1593,0.1464,0.1015,0.009,-0.0,-0.0067,-0.0202,-0.107,-0.1649,-0.1798,-0.199,-0.2095,-0.204,-0.1976,-0.1957,-0.1957,-0.205,-0.2384,-0.2954,-0.294,-0.3395,-0.4135,-0.3804,-0.3891,-0.4283,-0.4186,-0.4153,-0.4153,-0.425,-0.4315,-0.4315,-0.4315,-0.4505,-0.4698,-0.4283,-0.4344,-0.4599,-0.4505,-0.47,-0.5098,-0.5822,-0.7152,-0.8763,-1.0338,-1.3297,-1.5889,-1.4961,-1.3984,-1.3288,-1.346,-1.352,-1.3841,-1.5003,-1.62,-1.7122,-1.7358,-1.7818,-1.8208,-1.829,-1.8669,-1.8931,-1.8734,-1.904,-1.9236,-1.9027,-1.9173,-1.9305,-1.9305,-1.9305,-1.9305,-1.9305,-1.9305,-1.9305,-1.9305,-1.9576,-1.9774,-1.98,-1.9898,-1.9971,-2.0004,-2.0004,-1.9677,-1.9011,-1.7953,-1.7417,-1.7407,-1.6801,-1.6917,-1.7712,-1.7914,-1.8008,-1.8021,-1.7921,-1.7891,-1.7896,-1.7882,-1.836,-1.9112,-1.9249,-1.9673,-2.0198,-1.9909,-1.9776,-1.9591,0.2096,0.1961,0.2018,0.1854,0.1815,0.1811,0.1833,0.1818,0.1808,0.182,0.132,0.096,0.096,0.0471,0.009,-0.0,-0.0,-0.0247,-0.0788,-0.0924,-0.1219,-0.177,-0.1823,-0.182,-0.1827,-0.1823,-0.1821,-0.1821,-0.1832,-0.2254,-0.3081,-0.3075,-0.3643,-0.4626,-0.431,-0.4545,-0.5182,-0.473,-0.4567,-0.4599,-0.502,-0.5214,-0.5214,-0.5214,-0.5214,-0.5182,-0.473,-0.4567,-0.4535,-0.4183,-0.4323,-0.466,-0.4722,-0.5859,-0.7429,-0.8851,-1.1362,-1.3649,-1.3556,-1.3015,-1.2507,-1.2636,-1.2745,-1.3217,-1.4833,-1.5767,-1.6551,-1.7569,-1.8005,-1.827,-1.8528,-1.8816,-1.8993,-1.8966,-1.9166,-1.9236,-1.9027,-1.9173,-1.9305,-1.9305,-1.9305,-1.9305,-1.9305,-1.9305,-1.9305,-1.9305,-1.9499,-1.9679,-1.9788,-1.9229,-1.8968,-1.9098,-1.9098,-1.9061,-1.8996,-1.7398,-1.659,-1.659,-1.6532,-1.6917,-1.7731,-1.854,-1.8944,-1.8952,-1.8153,-1.7835,-1.7899,-1.7828,-1.832,-1.9171,-1.9925,-2.0131,-1.9993,-1.9858,-1.9723,-1.9471,0.2805,0.2283,0.1804,0.1804,0.1804,0.1804,0.1804,0.1804,0.1804,0.1804,0.1609,0.1162,0.0423,0.0134,-0.0,-0.0,-0.0,-0.0247,-0.0856,-0.0896,-0.116,-0.1765,-0.1806,-0.1804,-0.1804,-0.2046,-0.2134,-0.2042,-0.2338,-0.2784,-0.3345,-0.3222,-0.3643,-0.4489,-0.3729,-0.4108,-0.5277,-0.5116,-0.502,-0.5052,-0.5214,-0.5312,-0.5312,-0.5312,-0.5312,-0.5249,-0.4762,-0.4599,-0.457,-0.4409,-0.447,-0.4666,-0.4953,-0.5941,-0.7444,-0.9688,-1.1419,-1.2701,-1.3244,-1.2903,-1.2399,-1.2347,-1.3037,-1.3915,-1.475,-1.6103,-1.73,-1.7707,-1.8005,-1.8229,-1.833,-1.8715,-1.8993,-1.8993,-1.9166,-1.9274,-1.9198,-1.9252,-1.9305,-1.9305,-1.9305,-1.9305,-1.9305,-1.9305,-1.9305,-1.9305,-1.9559,-1.9512,-1.9022,-1.844,-1.839,-1.8982,-1.7991,-1.7686,-1.8186,-1.7071,-1.6234,-1.5695,-1.5695,-1.6138,-1.6946,-1.6734,-1.6957,-1.7466,-1.7179,-1.7384,-1.7939,-1.8415,-1.9104,-1.987,-2.0174,-2.0249,-2.0095,-1.9341,-1.8939,-1.8575,0.2805,0.2326,0.1804,0.1804,0.1804,0.1804,0.1804,0.1804,0.1806,0.1809,0.1794,0.1478,0.0646,0.0224,-0.0,-0.0,-0.0,-0.0337,-0.1128,-0.119,-0.1362,-0.1781,-0.1804,-0.1804,-0.1804,-0.2154,-0.2287,-0.2193,-0.2625,-0.3004,-0.3305,-0.3162,-0.3473,-0.4092,-0.3257,-0.3725,-0.5104,-0.5262,-0.5312,-0.5312,-0.5312,-0.5312,-0.5312,-0.5312,-0.5312,-0.5249,-0.4762,-0.4695,-0.4794,-0.4666,-0.4695,-0.489,-0.5182,-0.6163,-0.7668,-1.0097,-1.1351,-1.2134,-1.3026,-1.2931,-1.2579,-1.2467,-1.3352,-1.4351,-1.4829,-1.6248,-1.7537,-1.7863,-1.807,-1.8249,-1.841,-1.8752,-1.9027,-1.9076,-1.9205,-1.9305,-1.9305,-1.9305,-1.9305,-1.9305,-1.9305,-1.9305,-1.9305,-1.9069,-1.8913,-1.8913,-1.898,-1.8681,-1.7909,-1.7479,-1.755,-1.8193,-1.683,-1.6494,-1.7321,-1.6503,-1.5792,-1.5199,-1.5484,-1.5917,-1.6494,-1.6447,-1.6443,-1.6518,-1.6859,-1.7351,-1.7937,-1.8465,-1.9304,-2.0234,-2.0208,-2.0144,-1.9993,-1.9198,-1.86,-1.7921,0.1804,0.1804,0.1804,0.1804,0.1804,0.1804,0.1804,0.1804,0.1806,0.1796,0.1799,0.1799,0.1799,0.0717,-0.0,-0.0,-0.0,-0.0517,-0.1723,-0.1806,-0.1794,-0.1804,-0.1804,-0.1804,-0.1804,-0.2064,-0.2195,-0.2193,-0.2546,-0.2759,-0.2904,-0.2898,-0.3093,-0.3476,-0.3082,-0.3579,-0.4716,-0.5107,-0.5306,-0.5306,-0.5306,-0.5306,-0.5309,-0.5309,-0.5309,-0.5249,-0.4762,-0.4922,-0.5246,-0.4762,-0.4925,-0.5309,-0.5312,-0.6368,-0.7952,-0.9698,-1.086,-1.1817,-1.2754,-1.3005,-1.3005,-1.3005,-1.3559,-1.4296,-1.5031,-1.598,-1.6986,-1.799,-1.8187,-1.8371,-1.8896,-1.8993,-1.9069,-1.9268,-1.9289,-1.9289,-1.9289,-1.9305,-1.9305,-1.9305,-1.9305,-1.9305,-1.9305,-1.8574,-1.8106,-1.8106,-1.7606,-1.7064,-1.6535,-1.6374,-1.6366,-1.6503,-1.5647,-1.5618,-1.6484,-1.5638,-1.5209,-1.5218,-1.609,-1.6503,-1.6567,-1.8291,-1.8134,-1.6551,-1.7494,-1.7904,-1.7888,-1.7838,-1.8725,-2.0083,-2.0021,-1.9845,-1.9605,-1.9596,-1.883,-1.7683,0.1804,0.1804,0.1804,0.1804,0.1804,0.1804,0.1804,0.1804,0.1493,0.065,0.1279,0.1799,0.1799,0.0717,-0.0,-0.0,-0.0,-0.0516,-0.1712,-0.1794,-0.1808,-0.1804,-0.1804,-0.1804,-0.1804,-0.2156,-0.2287,-0.2193,-0.2546,-0.2759,-0.2893,-0.2369,-0.2185,-0.2339,-0.3025,-0.368,-0.4302,-0.4556,-0.4666,-0.4666,-0.4666,-0.4786,-0.494,-0.494,-0.51,-0.5312,-0.5453,-0.5606,-0.5703,-0.5575,-0.5786,-0.6244,-0.6815,-0.7617,-0.8649,-1.0114,-1.1085,-1.1868,-1.2762,-1.3005,-1.3005,-1.3005,-1.3559,-1.4296,-1.5031,-1.598,-1.6932,-1.7752,-1.8208,-1.8528,-1.8688,-1.8869,-1.9069,-1.9268,-1.9173,-1.9134,-1.9274,-1.9305,-1.9305,-1.9305,-1.9305,-1.9305,-1.9305,-1.8574,-1.8106,-1.8106,-1.7079,-1.6431,-1.6361,-1.583,-1.5834,-1.6474,-1.5647,-1.5618,-1.6484,-1.6244,-1.6109,-1.6118,-1.6378,-1.6801,-1.7318,-1.671,-1.6478,-1.6621,-1.7509,-1.7866,-1.7913,-1.8981,-1.9665,-2.0012,-1.9903,-1.9811,-1.966,-1.9008,-1.8315,-1.7607,0.1714,0.1804,0.1648,0.1181,0.1492,0.1804,0.1804,0.1404,0.0646,-0.056,0.0335,0.1097,0.1094,0.0448,-0.0,-0.0,-0.0448,-0.1027,-0.1746,-0.1808,-0.1804,-0.1804,-0.1804,-0.1804,-0.1804,-0.2046,-0.2134,-0.2042,-0.2589,-0.2869,-0.2893,-0.2449,-0.2317,-0.2508,-0.3535,-0.4079,-0.4242,-0.4476,-0.4545,-0.4545,-0.4545,-0.4651,-0.4817,-0.4937,-0.5124,-0.534,-0.5765,-0.5917,-0.5917,-0.6095,-0.6384,-0.6824,-0.7496,-0.8241,-0.9104,-1.0215,-1.1098,-1.187,-1.2633,-1.2924,-1.3031,-1.3138,-1.3932,-1.4799,-1.5258,-1.6278,-1.7296,-1.7833,-1.831,-1.8594,-1.8594,-1.8816,-1.9035,-1.9166,-1.9076,-1.9069,-1.9274,-1.9305,-1.9305,-1.9305,-1.9305,-1.9161,-1.8858,-1.8106,-1.7376,-1.6802,-1.6004,-1.5621,-1.5781,-1.5359,-1.5395,-1.5974,-1.5474,-1.5455,-1.5984,-1.633,-1.633,-1.5993,-1.634,-1.6571,-1.6702,-1.645,-1.6433,-1.6649,-1.7519,-1.8059,-1.8379,-1.9223,-1.9531,-1.9457,-1.9654,-1.9479,-1.9085,-1.8763,-1.8207,-1.7516,0.1426,0.1648,0.1293,0.0202,0.0915,0.1669,0.1781,0.0691,-0.056,-0.1661,-0.0851,-0.0157,-0.0156,-0.0157,-0.0157,-0.0157,-0.1159,-0.1804,-0.1804,-0.1804,-0.1804,-0.1804,-0.1804,-0.1804,-0.1804,-0.1804,-0.1804,-0.1804,-0.2589,-0.2934,-0.2837,-0.2837,-0.3059,-0.3493,-0.4247,-0.4505,-0.4382,-0.4618,-0.4731,-0.4731,-0.4731,-0.4748,-0.4801,-0.5127,-0.5289,-0.5372,-0.5793,-0.5944,-0.6037,-0.6457,-0.6824,-0.7152,-0.7637,-0.8486,-0.9429,-1.0139,-1.0996,-1.1835,-1.2431,-1.2778,-1.3041,-1.3329,-1.4453,-1.5519,-1.5578,-1.6644,-1.7708,-1.8086,-1.8371,-1.8566,-1.8566,-1.877,-1.8931,-1.8949,-1.8949,-1.9009,-1.9236,-1.9274,-1.9246,-1.9198,-1.9179,-1.8876,-1.8078,-1.7257,-1.6202,-1.4809,-1.4708,-1.4803,-1.499,-1.5012,-1.5072,-1.5199,-1.5199,-1.5199,-1.5199,-1.5993,-1.6022,-1.533,-1.6118,-1.608,-1.5374,-1.6951,-1.7274,-1.6642,-1.7506,-1.8338,-1.906,-1.8859,-1.8706,-1.8638,-1.9141,-1.8767,-1.8029,-1.8645,-1.8244,-1.7382,0.0336,0.0381,0.0314,0.0045,0.0224,0.0715,0.1648,-0.0022,-0.1493,-0.1762,-0.1582,-0.1402,-0.14,-0.1401,-0.1402,-0.1402,-0.1648,-0.1804,-0.1804,-0.1804,-0.1804,-0.1804,-0.1804,-0.1804,-0.1804,-0.1804,-0.1804,-0.1804,-0.1978,-0.2174,-0.2346,-0.2346,-0.2651,-0.3193,-0.36,-0.387,-0.4093,-0.4156,-0.4183,-0.4183,-0.4183,-0.4295,-0.4529,-0.4791,-0.5077,-0.54,-0.6125,-0.6366,-0.6488,-0.72,-0.7486,-0.7661,-0.8361,-0.9245,-1.0157,-1.064,-1.1257,-1.1896,-1.2447,-1.2649,-1.2807,-1.3286,-1.4064,-1.4893,-1.5468,-1.5849,-1.6428,-1.7632,-1.8112,-1.829,-1.829,-1.833,-1.845,-1.8651,-1.8508,-1.8547,-1.9009,-1.9069,-1.889,-1.8421,-1.8363,-1.8041,-1.7238,-1.6435,-1.5606,-1.4762,-1.4794,-1.4901,-1.4988,-1.5095,-1.5168,-1.5199,-1.5199,-1.5199,-1.5199,-1.5397,-1.5734,-1.6215,-1.6407,-1.6397,-1.6211,-1.5971,-1.6096,-1.6574,-1.7445,-1.8218,-1.8852,-1.8697,-1.8554,-1.836,-1.7555,-1.7124,-1.6995,-1.759,-1.7387,-1.6761,-0.0,-0.0,-0.0,-0.0,-0.0,0.0022,0.0066,-0.0995,-0.1804,-0.1804,-0.1804,-0.1804,-0.1804,-0.1804,-0.1804,-0.1804,-0.1804,-0.1804,-0.1804,-0.1804,-0.1804,-0.1804,-0.1804,-0.1804,-0.1804,-0.1804,-0.1891,-0.209,-0.2176,-0.237,-0.263,-0.2762,-0.3064,-0.3541,-0.3819,-0.4021,-0.42,-0.42,-0.4123,-0.3995,-0.3995,-0.417,-0.4436,-0.4694,-0.502,-0.5404,-0.6213,-0.6734,-0.7166,-0.7768,-0.8104,-0.8333,-0.8899,-0.9778,-1.0592,-1.0653,-1.1196,-1.1868,-1.2257,-1.249,-1.2724,-1.3269,-1.3946,-1.468,-1.5426,-1.5866,-1.6432,-1.7574,-1.8005,-1.8166,-1.8027,-1.8103,-1.8258,-1.8391,-1.8391,-1.8528,-1.8949,-1.9076,-1.8881,-1.8183,-1.8106,-1.7638,-1.6445,-1.56,-1.5019,-1.4725,-1.4822,-1.4926,-1.4997,-1.5133,-1.5199,-1.5199,-1.5199,-1.5199,-1.5199,-1.5199,-1.5436,-1.5878,-1.5904,-1.593,-1.5906,-1.5517,-1.601,-1.7187,-1.7623,-1.8198,-1.8826,-1.8678,-1.8057,-1.7174,-1.6771,-1.6369,-1.6126,-1.6993,-1.7156,-1.6868,-0.0269,-0.0135,-0.0067,-0.0269,-0.0314,-0.0648,-0.1648,-0.1804,-0.1804,-0.1804,-0.1804,-0.1826,-0.1891,-0.1847,-0.1804,-0.1804,-0.1804,-0.1804,-0.1804,-0.1804,-0.1825,-0.1891,-0.1847,-0.1825,-0.1869,-0.1825,-0.1958,-0.2291,-0.2461,-0.2676,-0.2958,-0.322,-0.3548,-0.393,-0.4196,-0.4355,-0.4399,-0.4349,-0.4192,-0.3995,-0.3995,-0.414,-0.4369,-0.4678,-0.4957,-0.5332,-0.6198,-0.6968,-0.7646,-0.8057,-0.8404,-0.8791,-0.926,-1.0059,-1.0763,-1.0556,-1.1066,-1.1775,-1.2038,-1.2357,-1.2732,-1.3208,-1.3836,-1.4546,-1.5401,-1.6182,-1.6919,-1.765,-1.7971,-1.807,-1.7914,-1.8048,-1.8217,-1.827,-1.845,-1.8688,-1.8949,-1.8999,-1.8709,-1.7943,-1.7604,-1.6922,-1.5619,-1.4908,-1.4591,-1.4718,-1.485,-1.4951,-1.5028,-1.514,-1.5199,-1.5199,-1.5199,-1.5199,-1.5199,-1.5199,-1.5199,-1.5205,-1.527,-1.5298,-1.5302,-1.537,-1.6305,-1.7866,-1.7647,-1.8046,-1.881,-1.8326,-1.7224,-1.5838,-1.6055,-1.571,-1.5201,-1.6148,-1.6648,-1.6767,-0.1359,-0.0715,-0.0336,-0.1381,-0.1558,-0.1603,-0.1781,-0.1804,-0.1804,-0.1804,-0.1804,-0.1936,-0.2289,-0.2002,-0.1804,-0.1804,-0.1804,-0.1804,-0.1804,-0.1804,-0.1957,-0.2313,-0.198,-0.1913,-0.215,-0.1913,-0.1826,-0.187,-0.1914,-0.2064,-0.2326,-0.2654,-0.309,-0.3573,-0.3909,-0.4193,-0.4385,-0.4163,-0.4032,-0.3995,-0.3995,-0.4019,-0.4116,-0.4602,-0.4834,-0.5015,-0.6103,-0.6799,-0.7237,-0.7587,-0.7963,-0.8421,-0.9154,-0.9906,-1.0508,-1.0763,-1.1087,-1.1483,-1.203,-1.2396,-1.2668,-1.2987,-1.331,-1.3913,-1.5282,-1.6182,-1.6919,-1.765,-1.7825,-1.7905,-1.8112,-1.8175,-1.827,-1.8508,-1.8575,-1.8688,-1.8949,-1.826,-1.7499,-1.6881,-1.556,-1.4707,-1.4668,-1.4677,-1.4727,-1.4859,-1.494,-1.5038,-1.5171,-1.5183,-1.5199,-1.5199,-1.5199,-1.5199,-1.5199,-1.5199,-1.5199,-1.5205,-1.527,-1.5298,-1.5302,-1.537,-1.6279,-1.7774,-1.6953,-1.7372,-1.8524,-1.6916,-1.5954,-1.5392,-1.4588,-1.4094,-1.3867,-1.4013,-1.4498,-1.4986,-0.0692,-0.0915,-0.1181,-0.1714,-0.1804,-0.1804,-0.1804,-0.1804,-0.1804,-0.1804,-0.1804,-0.187,-0.2046,-0.1913,-0.1804,-0.1804,-0.2002,-0.2134,-0.2134,-0.2134,-0.2224,-0.2401,-0.2224,-0.209,-0.1978,-0.1869,-0.1804,-0.1804,-0.1955,-0.2261,-0.2697,-0.2851,-0.323,-0.3791,-0.3944,-0.4066,-0.418,-0.4049,-0.3898,-0.3724,-0.3724,-0.3824,-0.4025,-0.4255,-0.4529,-0.4901,-0.58,-0.6655,-0.7446,-0.782,-0.8356,-0.8968,-0.9514,-1.0141,-1.066,-1.0636,-1.108,-1.1623,-1.1852,-1.2245,-1.2668,-1.2924,-1.3508,-1.4183,-1.4842,-1.5866,-1.6953,-1.783,-1.7671,-1.7434,-1.7696,-1.7762,-1.78,-1.7912,-1.8311,-1.8651,-1.8752,-1.8386,-1.7719,-1.6673,-1.5655,-1.4904,-1.4533,-1.5031,-1.5242,-1.4923,-1.4936,-1.4989,-1.5082,-1.5088,-1.5308,-1.5799,-1.5405,-1.5436,-1.5917,-1.5445,-1.5445,-1.5917,-1.5496,-1.5297,-1.53,-1.5326,-1.5898,-1.6827,-1.6531,-1.6615,-1.692,-1.6201,-1.5445,-1.4666,-1.4117,-1.3891,-1.3848,-1.3674,-1.3859,-1.4199]},{"header":{"parameterUnit":"m.s-1","parameterCategory":1,"la1":30.6,"la2":28.766,"lo1":-90.7593,"lo2":-88.6598,"dy":0.0162,"dx":0.0183,"nx":116,"ny":114,"refTime":"2023-05-19T00:00:00:Z","depth":0,"parameterNumber":3,"parameterNumberName":"V-component_of_WINDS"},"data":[0.0,0.0,0.0,0.0,0.0,0.0,0.0,0.0,0.0,0.0,0.0,0.0,0.0,0.0,0.0,0.0,0.0,0.0,0.0,0.0,0.0,0.0,0.0,0.0,0.0,0.0,0.0,0.0,0.0,0.0,0.0,0.0,0.0,0.0,0.0,0.0,0.0,0.0,0.0,0.0,0.0,0.0,0.0,0.0,0.0,0.0,0.0,0.0,0.0,0.0,0.0,0.0,0.0,0.0,0.0,0.0,0.0,0.0,0.0,0.0,0.0,0.0,0.0,0.0,0.0,0.0,0.0,0.0,0.0,0.0,0.0,0.0,0.0,0.0,0.0,0.0,0.0,0.0,0.0,0.0,0.0,0.0,0.0,0.0,0.0,0.0,0.0,0.0,0.0,0.0,0.0,0.0,0.0,0.0,0.0,0.0,0.0,0.0,0.0,0.0,0.0,0.0,0.0,0.0,0.0,0.0,0.0,0.0,0.0,0.0,0.0,0.0,0.0,0.0,0.0,0.0,0.0,0.0,0.0,0.0,0.0,0.0,0.0,0.0,0.0,0.0,0.0,0.0,0.0,0.0,0.0,0.0,0.0,0.0,0.0,0.0,0.0,0.0,0.0,0.0,0.0,0.0,0.0,0.0,0.0,0.0,0.0,0.0,0.0,0.0,0.0,0.0,0.0,0.0,0.0,0.0,0.0,0.0,0.0,0.0,0.0,0.0,0.0,0.0,0.0,0.0,0.0,0.0,0.0,0.0,0.0,0.0,0.0,0.0,0.0,0.0,0.0,0.0,0.0,0.0,0.0,0.0,0.0,0.0,0.0,0.0,0.0,0.0,0.0,0.0,0.0,0.0,0.0,0.0,0.0,0.0,0.0,0.0,0.0,0.0,0.0,0.0,0.0,0.0,0.0,0.0,0.0,0.0,0.0,0.0,0.0,0.0,0.0,0.0,0.0,0.0,0.0,0.0,0.0,0.0,0.0,0.0,0.0,0.0,0.0,0.0,0.0,0.0,0.0,0.0,0.0,0.0,0.0,0.0,0.0,0.0,0.0,0.0,0.0,0.0,0.0,0.0,0.0,0.0,0.0,0.0,0.0,0.0,0.0,0.0,0.0,0.0,0.0,0.0,0.0,0.0,0.0,0.0,0.0,0.0,0.0,0.0,0.0,0.0,0.0,0.0,0.0,0.0,0.0,0.0,0.0,0.0,0.0,0.0,0.0,0.0,0.0,0.0,0.0,0.0,0.0,0.0,0.0,0.0,0.0,0.0,0.0,0.0,0.0,0.0,0.0,0.0,0.0,0.0,0.0,0.0,0.0,0.0,0.0,0.0,0.0,0.0,0.0,0.0,0.0,0.0,0.0,0.0,0.0,0.0,0.0,0.0,0.0,0.0,0.0,0.0,0.0,0.0,0.0,0.0,0.0,0.0,0.0,0.0,0.0,0.0,0.0,0.0,0.0,0.0,0.0,0.0,0.0,0.0,0.0,0.0,0.0,0.0,0.0,0.0,0.0,0.0,0.0,0.0,0.0,0.0,0.0,0.0,0.0,0.0,0.0,0.0,0.0,0.0,0.0,0.0,0.0,0.0,0.0,0.0,0.0,0.0,0.0,0.0,0.0,0.0,0.0,0.0,0.0,0.0,0.0,0.0,0.0,0.0,0.0,0.0,0.0,0.0,0.0,0.0,0.0,0.0,0.0,0.0,0.0,0.0,0.0,0.0,0.0,0.0,0.0,0.0,0.0,0.0,0.0,0.0,0.0,0.0,0.0,0.0,0.0,0.0,0.0,0.0,0.0,0.0,0.0,0.0,0.0,0.0,0.0,0.0,0.0,0.0,0.0,0.0,0.0,0.0,0.0,0.0,0.0,0.0,0.0,0.0,0.0,0.0,0.0,0.0,0.0,0.0,0.0,0.0,0.0,0.0,0.0,0.0,0.0,0.0,0.0,0.0,0.0,0.0,0.0,0.0,0.0,0.0,0.0,0.0,0.0,0.0,0.0,0.0,0.0,0.0,0.0,0.0,0.0,0.0,0.0,0.0,0.0,0.0,0.0,0.0,0.0,0.0,0.0,0.0,0.0,0.0,0.0,0.0,0.0,0.0,0.0,0.0,0.0,0.0,0.0,0.0,0.0,0.0,0.0,0.0,0.0,0.0,0.0,0.0,0.0,0.0,0.0,0.0,0.0,0.0,0.0,0.0,0.0,0.0,0.0,0.0,0.0,0.0,0.0,0.0,0.0,0.0,0.0,0.0,0.0,0.0,0.0,0.0,0.0,0.0,0.0,0.0,0.0,0.0,0.0,0.0,0.0,0.0,0.0,0.0,0.0,0.0,0.0,0.0,0.0,0.0,0.0,0.0,0.0,0.0,0.0,0.0,0.0,0.0,0.0,0.0,0.0,0.0,0.0,0.0,0.0,0.0,0.0,0.0,0.0,0.0,0.0,0.0,0.0,0.0,0.0,0.0,0.0,0.0,0.0,0.0,0.0,0.0,0.0,0.0,0.0,0.0,0.0,0.0,0.0,0.0,0.0,0.0,0.0,0.0,0.0,0.0,0.0,0.0,0.0,0.0,0.0,0.0,0.0,0.0,0.0,0.0,0.0,0.0,0.0,0.0,0.0,0.0,0.0,0.0,0.0,0.0,0.0,0.0,0.0,0.0,0.0,0.0,0.0,0.0,0.0,0.0,0.0,0.0,0.0,0.0,0.0,0.0,0.0,0.0,0.0,0.0,0.0,0.0,0.0,0.0,0.0,0.0,0.0,0.0,0.0,0.0,0.0,0.0,0.0,0.0,0.0,0.0,0.0,0.0,0.0,0.0,0.0,0.0,0.0,0.0,0.0,0.0,0.0,0.0,0.0,0.0,0.0,0.0,0.0,0.0,0.0,0.0,0.0,0.0,0.0,0.0,0.0,0.0,0.0,0.0,0.0,0.0,0.0,0.0,0.0,0.0,0.0,0.0,0.0,0.0,0.0,0.0,0.0,0.0,0.0,0.0,0.0,0.0,0.0,0.0,0.0,0.0,0.0,0.0,0.0,0.0,0.0,0.0,0.0,0.0,0.0,0.0,0.0,0.0,0.0,0.0,0.0,0.0,0.0,0.0,0.0,0.0,0.0,0.0,0.0,0.0,0.0,0.0,0.0,0.0,0.0,0.0,0.0,0.0,0.0,0.0,0.0,0.0,0.0,0.0,0.0,0.0,0.0,0.0,0.0,0.0,0.0,0.0,0.0,0.0,0.0,0.0,0.0,0.0,0.0,0.0,0.0,0.0,0.0,0.0,0.0,0.0,0.0,0.0,0.0,0.0,0.0,0.0,0.0,0.0,0.0,0.0,0.0,0.0,0.0,0.0,0.0,0.0,0.0,0.0,0.0,0.0,0.0,0.0,0.0,0.0,0.0,0.0,0.0,0.0,0.0,0.0,0.0,0.0,0.0,0.0,0.0,0.0,0.0,0.0,0.0,0.0,0.0,0.0,0.0,0.0,0.0,0.0,0.0,0.0,0.0,0.0,0.0,0.0,0.0,0.0,0.0,0.0,0.0,0.0,0.0,0.0,0.0,0.0,0.0,0.0,0.0,0.0,0.0,0.0,0.0,0.0,0.0,0.0,0.0,0.0,0.0,0.0,0.0,0.0,0.0,0.0,0.0,0.0,0.0,0.0,0.0,0.0,0.0,0.0,0.0,0.0,0.0,0.0,0.0,0.0,0.0,0.0,0.0,0.0,0.0,0.0,0.0,0.0,0.0,0.0,0.0,0.0,0.0,0.0,0.0,0.0,0.0,0.0,0.0,0.0,0.0,0.0,0.0,0.0,0.0,0.0,0.0,0.0,0.0,0.0,0.0,0.0,0.0,0.0,0.0,0.0,0.0,0.0,0.0,0.0,0.0,0.0,0.0,0.0,0.0,0.0,0.0,0.0,0.0,0.0,0.0,0.0,0.0,0.0,0.0,0.0,0.0,0.0,0.0,0.0,0.0,0.0,0.0,0.0,0.0,0.0,0.0,0.0,0.0,0.0,0.0,0.0,0.0,0.0,0.0,0.0,0.0,0.0,0.0,0.0,0.0,0.0,0.0,0.0,0.0,0.0,0.0,0.0,0.0,0.0,0.0,0.0,0.0,0.0,0.0,0.0,0.0,0.0,0.0,0.0,0.0,0.0,0.0,0.0,0.0,0.0,0.0,0.0,0.0,0.0,0.0,0.0,0.0,0.0,0.0,0.0,0.0,0.0,0.0,0.0,0.0,0.0,0.0,0.0,0.0,0.0,0.0,0.0,0.0,0.0,0.0,0.0,0.0,0.0,0.0,0.0,0.0,0.0,0.0,0.0,0.0,0.0,0.0,0.0,0.0,0.0,0.0,0.0,0.0,0.0,0.0,0.0,0.0,0.0,0.0,0.0,0.0,0.0,0.0,0.0,0.0,0.0,0.0,0.0,0.0,0.0,0.0,0.0,0.0,0.0,0.0,0.0,0.0,0.0,0.0,0.0,0.0,0.0,0.0,0.0,0.0,0.0,0.0,0.0,0.0,0.0,0.0,0.0,0.0,0.0,0.0,0.0,0.0,0.0,0.0,0.0,0.0,0.0,0.0,0.0,0.0,0.0,0.0,0.0,0.0,0.0,0.0,0.0,0.0,0.0,0.0,0.0,0.0,0.0,0.0,0.0,0.0,0.0,0.0,0.0,0.0,0.0,0.0,0.0,0.0,0.0,0.0,0.0,0.0,0.0,0.0,0.0,0.0,0.0,0.0,0.0,0.0,0.0,0.0,0.0,0.0,0.0,0.0,0.0,0.0,0.0,0.0,0.0,0.0,0.0,0.0,0.0,0.0,0.0,0.0,0.0,0.0,0.0,0.0,0.0,0.0,0.0,0.0,0.0,0.0,0.0,0.0,0.0,0.0,0.0,0.0,0.0,0.0,0.0,0.0,0.0,0.0,0.0,0.0,0.0,0.0,0.0,0.0,0.0,0.0,0.0,0.0,0.0,0.0,0.0,0.0,0.0,0.0,0.0,0.0,0.0,0.0,0.0,0.0,0.0,0.0,0.0,0.0,0.0,0.0,0.0,0.0,0.0,0.0,0.0,0.0,0.0,0.0,0.0,0.0,0.0,0.0,0.0,0.0,0.0,0.0,0.0,0.0,0.0,0.0,0.0,0.0,0.0,0.0,0.0,0.0,0.0,0.0,0.0,0.0,0.0,0.0,0.0,0.0,0.0,0.0,0.0,0.0,0.0,0.0,0.0,0.0,0.0,0.0,0.0,0.0,0.0,0.0,0.0,0.0,0.0,0.0,0.0,0.0,0.0,0.0,0.0,0.0,0.0,0.0,0.0,0.0,0.0,0.0,0.0,0.0,0.0,0.0,0.0,0.0,0.0,0.0,0.0,0.0,0.0,0.0,0.0,0.0,0.0,0.0,0.0,0.0,0.0,0.0,0.0,0.0,0.0,0.0,0.0,0.0,0.0,0.0,0.0,0.0,0.0,0.0,0.0,0.0,0.0,0.0,0.0,0.0,0.0,0.0,0.0,0.0,0.0,0.0,0.0,0.0,0.0,0.0,0.0,0.0,0.0,0.0,0.0,0.0,0.0,0.0,0.0,0.0,0.0,0.0,0.0,0.0,0.0,0.0,0.0,0.0,0.0,0.0,0.0,0.0,0.0,0.0,0.0,0.0,0.0,0.0,0.0,0.0,0.0,0.0,0.0,0.0,0.0,0.0,0.0,0.0,0.0,0.0,0.0,0.0,0.0,0.0,0.0,0.0,0.0,0.0,0.0,0.0,0.0,0.0,0.0,0.0,0.0,0.0,0.0,0.0,0.0,0.0,0.0,0.0,0.0,0.0,0.0,0.0,0.0,0.0,0.0,0.0,0.0,0.0,0.0,0.0,0.0,0.0,0.0,0.0,0.0,0.0,0.0,0.0,0.0,0.0,0.0,0.0,0.0,0.0,0.0,0.0,0.0,0.0,0.0,0.0,0.0,0.0,0.0,0.0,0.0,0.0,0.0,0.0,0.0,0.0,0.0,0.0,0.0,0.0,0.0,0.0,0.0,0.0,0.0,0.0,0.0,0.0,0.0,0.0,0.0,0.0,0.0,0.0,0.0,0.0,0.0,0.0,0.0,1.0883,1.0586,0.0,0.0,0.0,0.0,0.0,0.0,0.0,0.0,0.0,0.0,0.0,0.0,0.0,0.0,0.0,0.0,0.0,0.0,0.0,0.0,0.0,0.0,0.0,0.0,0.0,0.0,0.0,0.0,0.0,0.0,0.0,0.0,0.0,0.0,0.0,0.0,0.0,0.0,0.0,0.0,0.0,0.0,0.0,0.0,0.0,0.0,0.0,0.0,0.0,0.0,0.0,0.0,0.0,0.0,0.0,0.0,0.0,0.0,0.0,0.0,0.0,0.0,0.0,0.0,0.0,0.0,0.0,0.0,0.0,0.0,0.0,0.0,0.0,0.0,0.0,0.0,0.0,0.0,0.0,0.0,0.0,0.0,0.0,0.0,0.0,0.0,0.0,0.0,0.0,0.0,0.0,0.0,0.0,0.0,0.0,0.0,0.0,0.0,0.0,0.0,0.0,0.0,0.0,0.0,0.0,0.0,0.0,0.0,0.0,0.0,0.0,0.0,0.0,0.0,1.1176,1.0599,0.0,0.0,0.0,0.0,0.0,0.0,0.0,0.0,0.0,0.0,0.0,0.0,0.0,0.0,0.0,0.0,0.0,0.0,0.0,0.0,0.0,0.0,0.0,0.0,0.0,0.0,0.0,0.0,0.0,0.0,0.0,0.0,0.0,0.0,0.0,0.0,0.0,0.0,0.0,0.0,0.0,0.0,0.0,0.0,0.0,0.0,0.0,0.0,0.0,0.0,0.0,0.0,0.0,0.0,0.0,0.0,0.0,0.0,0.0,0.0,0.0,0.0,0.0,0.0,0.0,0.0,0.0,0.0,0.0,0.0,0.0,0.0,0.0,0.0,0.0,0.0,0.0,0.0,0.0,0.0,0.0,0.0,0.0,0.0,0.0,0.0,0.0,0.0,0.0,0.0,0.0,0.0,0.0,0.0,0.0,0.0,0.0,0.0,0.0,0.0,0.0,0.0,0.0,0.0,0.0,0.0,0.0,0.0,1.3996,1.4363,1.4565,1.4782,1.4058,1.2584,1.1689,1.0749,0.9889,1.0063,0.0,0.0,0.0,0.0,0.0,0.0,0.0,0.0,0.0,0.0,0.0,0.0,0.0,0.0,0.0,0.0,0.0,0.0,0.0,0.0,0.0,0.0,0.0,0.0,0.0,0.0,0.0,0.0,0.0,0.0,0.0,0.0,0.0,0.0,0.0,0.0,0.0,0.0,0.6804,0.7928,0.8444,0.84,0.7688,0.0,0.0,0.0,0.0,0.0,0.0,0.0,0.0,0.0,0.0,0.0,0.0,0.0,0.0,0.0,0.0,0.0,0.0,0.0,0.0,0.0,0.0,0.0,0.0,0.0,0.0,0.0,0.0,0.0,0.0,0.0,0.0,0.0,0.0,0.0,0.0,0.0,0.0,0.0,0.0,0.0,0.0,0.0,0.997,1.094,0.0,0.0,0.0,0.0,0.0,0.0,0.0,0.0,0.0,0.0,0.0,0.0,0.0,1.2527,1.2803,1.4583,1.4916,1.3856,1.5298,1.5389,1.4343,1.4081,1.3834,1.3544,1.2258,0.0,0.8315,0.9468,0.0,0.0,0.0,0.0,0.0,0.0,0.0,0.0,0.0,0.0,0.0,0.0,0.0,0.0,0.0,0.0,0.0,0.0,0.0,0.0,0.0,0.0,0.0,0.0,0.0,0.0,0.0,0.0,0.0,0.0,0.0,0.0,0.0,0.0,0.0,0.0,0.5737,0.7288,0.8033,0.8915,0.9235,0.9018,0.8324,0.7978,0.7879,0.7147,0.0,0.0,0.0,0.0,0.0,0.0,0.0,0.0,0.0,0.0,0.0,0.0,0.0,0.0,0.0,0.0,0.0,0.0,0.0,0.0,0.0,0.0,0.0,0.0,0.0,0.0,0.0,0.0,0.0,0.0,0.0,0.0,0.0,0.0,0.0,0.0,0.0,0.0,0.0,0.9757,1.0157,1.045,1.0179,0.9786,0.0,0.0,0.0,0.0,0.0,0.0,0.0,0.0,0.0,1.2368,1.307,1.3661,1.4081,1.538,1.5946,1.5809,1.6408,1.6742,1.6812,1.6279,1.605,1.6025,1.5443,1.4524,1.3334,1.1652,1.1189,1.1585,0.0,0.0,0.0,0.0,1.2419,1.14,0.0,0.0,0.0,0.0,0.0,0.0,0.0,0.0,0.0,0.0,0.0,0.0,0.0,0.0,0.0,-0.5536,0.0,0.0,0.0,0.0,0.0,0.0,0.0,0.0,0.0,0.0,0.0,0.5197,0.7148,0.8407,0.8986,0.9506,0.9535,0.9133,0.873,0.8398,0.8084,0.7169,0.6691,0.0,0.0,0.0,0.0,0.0,0.0,0.0,0.0,0.0,0.0,0.0,0.0,0.0,0.0,0.0,0.0,0.0,0.0,0.0,0.0,0.0,0.0,0.0,0.0,0.0,0.0,0.0,0.0,0.0,0.0,0.0,0.0,0.0,0.0,0.0,0.0,0.0,0.0,1.0067,1.0274,1.0322,0.9961,0.9645,0.0,0.0,0.0,0.0,0.0,0.0,1.2915,1.3125,1.3322,1.352,1.4353,1.5001,1.5433,1.6231,1.6847,1.7254,1.7327,1.7775,1.8503,1.8021,1.7811,1.7789,1.7432,1.7479,1.7558,1.4577,1.2879,1.2368,1.3924,1.4068,1.3497,1.4375,1.4144,1.3303,0.0,0.0,0.0,0.0,0.0,0.0,0.0,0.0,0.0,0.0,0.0,0.0,0.0,0.0,-0.1792,-0.4439,-0.4583,-0.4691,0.0,0.0,0.0,0.0,0.0,0.0,0.0,0.0,0.0,0.7628,0.8131,0.8751,0.9463,0.9372,0.9015,0.8457,0.8616,0.8542,0.8255,0.7752,0.7427,0.7099,0.0,0.0,0.0,0.0,0.0,0.0,0.0,0.0,0.0,0.0,0.0,0.0,0.0,0.0,0.0,0.0,0.0,0.0,0.0,0.0,0.0,0.0,0.0,0.0,0.0,0.0,0.0,0.0,0.0,0.0,0.0,0.0,0.0,0.0,0.0,0.0,0.0,0.0,0.0,1.0831,1.0272,0.0,0.0,0.0,0.0,1.0383,1.2187,1.3471,1.3809,1.4371,1.4614,1.4435,1.5566,1.6322,1.6598,1.7593,1.7746,1.7119,1.7931,1.8127,1.7767,1.7796,1.7811,1.7735,1.6459,1.6617,1.7772,1.7575,1.5856,1.3607,1.6463,1.5868,1.3595,1.516,1.4735,1.3243,0.0,0.0,0.0,0.0,0.0,0.0,0.0,0.0,0.0,0.0,0.0,0.0,0.0,-0.1149,0.0323,-0.1773,-0.0757,-0.0522,-0.1742,0.0,0.0,0.0,0.0,0.0,0.0,0.0,0.6823,0.806,0.9065,0.9469,0.9304,0.9261,0.8847,0.8128,0.8042,0.81,0.8271,0.7842,0.6452,0.4319,0.1858,0.0318,0.0,0.0,0.0,0.0,0.0,0.0,0.0,0.0,0.0,0.0,0.0,0.0,0.0,0.0,0.0,0.0,0.0,0.0,0.0,0.0,0.0,0.0,0.0,0.0,0.0,0.0,0.0,0.0,0.0,0.0,0.0,0.0,0.0,0.0,0.0,0.0,0.0,1.1479,1.1289,0.0,1.0534,1.1172,1.1596,1.1554,1.2964,1.4156,1.4821,1.4846,1.5145,1.5774,1.6556,1.7256,1.792,1.8753,1.9019,1.8789,1.9096,1.9139,1.8929,1.7562,1.7719,1.8905,1.6749,1.608,1.6512,1.6512,1.6403,1.6339,1.7397,1.6624,1.4951,1.5011,1.4342,1.3346,0.0,0.0,0.0,0.0,0.0,0.0,0.0,0.0,0.0,0.0,0.0,-0.2008,-0.2573,0.0682,0.2235,0.0562,0.1212,0.0526,-0.2286,0.0,0.0,0.0,0.0,0.0,0.0,0.5487,0.7795,0.8739,0.92,0.9248,0.8928,0.8705,0.7731,0.6151,0.5778,0.5688,0.5821,0.5729,0.443,0.2203,-0.0778,-0.2552,-0.3378,0.0,0.0,0.0,0.0,0.0,0.0,0.0,0.0,0.0,0.0,0.0,0.0,0.0,0.0,0.0,0.0,0.0,0.0,0.0,0.0,0.0,0.0,0.0,0.0,0.0,0.0,0.0,0.0,0.0,0.0,0.0,0.0,0.0,0.0,1.1992,1.2677,1.244,1.2518,1.2361,1.1721,1.2327,1.2724,1.2562,1.3783,1.489,1.575,1.5561,1.5895,1.6844,1.7695,1.8387,1.8968,1.945,1.9682,1.9682,1.9682,1.9682,1.9646,1.8217,1.7541,1.7419,1.5695,1.4914,1.4914,1.4914,1.5455,1.626,1.626,1.5704,1.4868,1.4322,1.3381,1.2443,0.0,0.0,0.0,0.0,0.0,0.0,0.0,0.0,0.0,0.0,-0.1564,0.0446,0.2233,0.3667,0.3875,0.2282,0.0828,-0.2075,-0.6942,-0.7018,0.0,0.0,0.0,0.0,0.5599,0.6643,0.7993,0.975,0.8424,0.795,0.8261,0.7575,0.5566,0.2515,0.1886,0.1321,0.091,0.1334,0.1385,0.0911,-0.2315,-0.4673,-0.6075,0.0,0.0,0.0,0.0,0.0,0.0,0.0,0.0,0.0,0.0,0.0,0.0,0.0,0.0,0.0,0.0,0.0,0.0,0.0,0.0,0.0,0.0,0.0,0.0,0.0,0.0,0.0,0.0,0.0,0.0,0.0,0.0,0.0,1.1731,1.299,1.3903,1.3716,1.3901,1.4078,1.4126,1.4129,1.3915,1.3311,1.4607,1.5768,1.6478,1.6515,1.6837,1.7544,1.8893,1.9646,1.9682,1.9682,1.9682,1.9682,1.9682,1.9682,1.9682,1.9646,1.7299,1.3298,1.3229,1.3187,1.3187,1.3119,1.3123,1.3123,1.3123,1.3123,1.3123,1.3123,1.1943,1.0605,0.0,0.0,0.0,0.0,0.0,0.0,0.0,0.0,0.0,0.0,-0.3175,-0.0912,-0.1479,0.2084,0.3564,0.1238,0.0272,-0.1938,-0.6023,0.0,0.0,0.0,0.0,0.0,0.376,0.787,0.9552,0.8714,0.6163,0.5225,0.5771,0.4359,0.2802,0.1112,0.0066,-0.0971,-0.199,-0.2367,-0.2931,-0.3732,-0.5324,-0.6678,-0.7747,0.0,0.0,0.0,0.0,0.0,0.0,0.0,0.0,0.0,0.0,0.0,0.0,0.0,0.0,0.0,0.0,0.0,0.0,0.0,0.0,0.0,0.0,0.0,0.0,0.0,0.0,0.0,0.0,0.0,0.0,0.0,1.1676,1.347,1.3478,1.4613,1.5456,1.5551,1.5281,1.4969,1.4708,1.5041,1.5178,1.5034,1.5762,1.6308,1.6509,1.6515,1.6595,1.6795,1.7194,1.8138,1.9682,1.9682,1.9682,1.9682,1.9682,1.9682,1.9646,1.8099,1.6732,1.5489,1.3723,1.2994,1.289,1.162,1.1099,1.1099,1.1099,1.1099,1.1099,1.1099,1.1562,1.2231,0.0,0.0,0.0,0.0,0.0,0.0,0.0,0.0,0.0,0.0,-0.3363,-0.1224,-0.1101,0.1545,0.2607,0.079,-0.0315,-0.2321,-0.5596,0.0,0.0,0.0,0.0,-0.1455,0.1776,0.487,0.5994,0.5066,0.2792,0.1684,0.1667,0.0695,-0.1016,-0.3286,-0.3749,-0.419,-0.4534,-0.4934,-0.5423,-0.5989,-0.6876,-0.7599,-0.8289,-0.9732,-1.0482,-1.0768,-1.0838,-1.0391,-0.9712,-0.9171,0.0,0.0,0.0,0.0,0.0,0.0,0.0,0.0,0.0,0.0,0.0,0.0,0.0,0.0,0.0,0.0,0.0,0.0,0.0,0.0,0.0,0.0,0.0,0.0,1.432,1.6167,1.6338,1.6607,1.6855,1.6958,1.6569,1.616,1.5936,1.6198,1.6426,1.6501,1.6496,1.6716,1.7153,1.6759,1.6515,1.6515,1.7388,1.8458,1.9682,1.9682,1.9682,1.9682,1.9682,1.9682,1.9558,1.5669,1.3912,1.3852,1.2825,1.2534,1.2803,1.1792,1.1372,1.1299,0.0,0.0,0.0,0.0,1.2012,1.2881,0.0,0.0,0.0,0.0,0.0,0.0,0.0,0.0,0.0,0.0,0.0,-0.1064,0.1087,0.1664,0.15,0.0464,-0.12,-0.3265,0.0,0.0,0.0,-0.3636,-0.4516,-0.3726,-0.0723,-0.1086,-0.1087,-0.0636,-0.1693,-0.2555,-0.3205,-0.3199,-0.5087,-0.8455,-0.8085,-0.7466,-0.6689,-0.6701,-0.6782,-0.6962,-0.7657,-0.8029,-0.8392,-1.0215,-1.1248,-1.1897,-1.3147,-1.3184,-1.253,-1.1905,0.0,0.0,0.0,0.0,0.0,0.0,0.0,0.0,0.0,0.0,0.0,0.0,0.0,0.0,0.0,0.0,0.0,0.0,0.0,0.0,0.0,0.0,0.0,0.0,1.7314,1.9209,1.953,1.8713,1.805,1.7949,1.7619,1.7347,1.7229,1.7271,1.7347,1.747,1.6951,1.6993,1.786,1.7034,0.0,0.0,0.0,1.9682,1.9682,1.9682,1.9682,1.9682,1.9682,1.9446,1.8767,1.3085,1.0395,1.0371,1.1274,1.2054,1.2603,1.2803,1.2881,1.2725,1.1219,1.0576,1.0762,1.231,1.2881,1.2881,0.0,0.0,0.0,0.0,0.0,0.0,0.0,0.0,0.0,-0.5228,-0.3421,-0.2008,-0.1071,0.1505,0.1851,-0.135,-0.3511,-0.5466,0.0,0.0,-0.9761,-1.0849,-0.7688,-0.5706,-0.5321,-0.7973,-0.8981,-0.8178,-0.8062,-0.7583,-0.6782,-0.6862,-0.7135,-0.7676,-0.843,-0.8469,-0.7955,-0.7856,-0.8438,-0.9468,-0.941,-0.964,-1.0104,-1.1143,-1.2483,-1.3801,-1.3646,-1.3778,-1.3906,-1.3132,-1.2939,-1.2798,-1.1496,0.0,0.0,0.0,0.0,0.0,0.0,0.0,0.0,0.0,0.0,0.0,0.0,0.0,0.0,0.0,0.0,0.0,0.0,0.0,0.0,1.5749,1.8192,2.0013,2.0607,1.9852,1.8958,1.8152,1.799,1.7626,1.6759,1.7034,1.7153,1.6759,1.7111,1.7229,1.6837,1.6595,1.6515,1.6515,1.8574,1.9682,1.9682,1.9682,1.9682,1.9682,1.9682,0.0,1.4382,1.2398,1.1067,1.0351,1.1687,1.1685,1.0894,1.2305,1.2881,1.2847,1.251,1.2378,1.2422,1.2754,1.2881,1.2881,0.0,0.0,0.0,0.0,0.0,0.0,0.0,0.0,0.0,0.0,-0.5142,-0.381,-0.2945,-0.138,-0.1066,-0.271,-0.5022,0.0,0.0,-0.8709,-1.0189,-1.1408,-1.0558,-1.008,-1.0153,-1.184,-1.2177,-1.1145,-1.1037,-1.0403,-0.9355,-0.9446,-0.9696,-1.0036,-1.0574,-1.0655,-1.047,-1.0679,-1.1018,-1.1391,-1.1532,-1.1885,-1.2348,-1.291,-1.4072,-1.5423,-1.525,-1.5293,-1.5282,-1.4512,-1.409,-1.3638,-1.2133,-1.1901,-1.1838,0.0,0.0,0.0,0.0,0.0,0.0,0.0,0.0,0.0,0.0,0.0,0.0,0.0,0.0,0.7997,1.0778,0.0,1.5386,1.7685,1.9611,2.0931,2.1258,2.0887,2.0244,1.931,1.8545,1.798,1.7747,1.7706,1.7585,1.7312,1.751,1.7429,1.707,1.6716,1.6515,1.6515,1.7544,1.8099,1.8099,1.9169,1.9682,1.9667,1.7498,1.5294,1.3163,1.2246,1.1255,1.0337,1.1037,1.1216,1.1067,1.2339,1.2881,1.2881,1.2881,1.2881,1.2881,1.2881,1.2881,1.2881,0.0,0.0,0.0,0.0,0.0,0.0,0.0,0.0,0.0,0.0,-0.6673,-0.5557,-0.4523,-0.4361,-0.4429,0.0,0.0,0.0,0.0,-0.907,-1.0342,-1.0303,-1.252,-1.3874,-1.4127,-1.4119,-1.3592,-1.2442,-1.2506,-1.2107,-1.119,-1.1331,-1.1868,-1.2752,-1.296,-1.3043,-1.3048,-1.3438,-1.3466,-1.3216,-1.3524,-1.3999,-1.4578,-1.4564,-1.5256,-1.6271,-1.6417,-1.6279,-1.5878,-1.5176,-1.454,-1.3683,-1.1815,-1.2192,-1.2852,-1.0379,-1.0671,0.0,0.0,0.0,0.0,0.0,0.0,0.0,0.0,0.6276,0.6545,0.7051,0.7488,0.8979,1.2929,1.4842,1.6637,1.9122,2.0455,2.1171,2.1171,2.1117,2.0822,2.023,1.9214,1.8591,1.8734,1.8458,1.8178,1.794,1.7747,1.7544,1.7388,1.6837,1.6515,1.6515,1.6515,1.6515,1.6515,1.8217,1.8849,1.8331,1.4872,1.3012,1.2609,1.1842,1.1067,1.0288,1.0366,1.0894,1.1738,1.2229,1.2624,1.2881,1.2881,1.2881,1.2881,1.2881,1.2881,1.2881,0.0,0.0,0.0,0.0,0.0,0.0,0.0,0.0,0.0,0.0,0.0,0.0,0.0,0.0,0.0,0.0,0.0,0.0,-0.8554,-0.9319,-1.0353,-1.1631,-1.242,-1.3733,-1.5622,-1.5427,-1.4897,-1.4046,-1.366,-1.3044,-1.2236,-1.2307,-1.265,-1.3267,-1.4201,-1.459,-1.4562,-1.4494,-1.4771,-1.5216,-1.467,-1.5186,-1.6123,-1.5199,-1.5046,-1.5351,-1.5377,-1.4978,-1.4365,-1.3875,-1.3682,-1.3375,-1.1801,-1.1624,-1.1786,-1.0565,-1.0113,-0.9863,-0.9265,-0.5429,-0.0755,0.2879,0.5117,0.731,0.0,0.8984,0.7408,0.9739,1.0003,1.0853,1.4051,1.547,1.6733,1.8599,1.9327,1.9632,1.9632,1.9358,1.9265,1.9641,1.9911,1.957,1.8327,1.8574,1.8419,1.747,1.751,1.7312,1.6674,1.6558,1.6515,1.6515,1.6515,1.6515,1.6515,1.6759,1.5784,1.3637,1.3368,1.2312,1.0616,1.0505,1.0395,1.0303,1.0679,1.1343,1.2056,1.1194,1.1661,1.2881,1.2881,1.2881,1.2881,1.2881,1.2881,1.2881,0.0,0.0,0.0,0.0,0.0,0.0,0.0,0.0,0.0,0.0,0.0,0.0,0.0,0.0,0.0,0.0,0.0,0.0,-0.8543,-0.9027,-0.9956,-1.1333,-1.2047,-1.3655,-1.632,-1.6252,-1.6038,-1.5712,-1.5023,-1.4318,-1.3545,-1.3101,-1.3391,-1.4259,-1.4687,-1.5234,-1.5795,-1.5749,-1.589,-1.6095,-1.5834,-1.6027,-1.6434,-1.5649,-1.4808,-1.4025,-1.3908,-1.3995,0.0,0.0,-1.221,-1.219,-1.0441,-1.0584,-1.1172,-1.005,-1.051,-1.0712,-0.7608,-0.3256,0.1301,0.5058,0.7694,0.9644,1.0716,0.9608,0.8765,1.0178,1.0934,1.195,1.3832,1.5637,1.7063,1.7682,1.851,1.9126,1.9385,1.8965,1.8619,1.8543,1.8425,1.8512,1.8991,1.8496,1.802,1.7787,1.7271,1.6648,1.6002,1.6287,1.6515,1.6515,1.6515,1.5838,1.4427,1.4381,1.4612,1.4966,1.3663,1.2079,1.0303,1.0842,1.1067,1.1092,1.1489,1.1645,1.1598,1.1374,1.143,1.1688,1.1688,1.1688,1.1792,1.2618,1.2881,1.2881,0.0,0.0,0.0,0.0,0.0,0.0,0.0,0.0,0.0,0.0,0.0,0.0,0.0,0.0,0.0,0.0,0.0,0.0,0.0,-0.869,-0.9601,-1.083,-1.1689,-1.3528,-1.6524,-1.666,-1.6629,-1.6523,-1.5775,-1.5088,-1.4425,-1.3526,-1.3736,-1.4909,-1.4909,-1.56,-1.6716,-1.6558,-1.6595,-1.6716,-1.6558,-1.6427,-1.6214,-1.5505,-1.4273,-1.2955,-1.3185,-1.3173,0.0,0.0,-1.1311,-1.1116,-0.9806,-1.0046,-1.0715,-1.0107,-1.1361,-1.2002,-0.7743,-0.3542,0.067,0.5025,0.7974,0.9698,0.922,0.8575,0.8301,0.9085,1.0262,1.1551,1.2641,1.5031,1.6799,1.6746,1.7384,1.8039,1.8316,1.7683,1.711,1.6928,1.6226,1.6446,1.8296,1.7872,1.7605,1.786,1.7008,1.6306,1.5864,1.5644,1.5522,1.5522,1.475,1.3533,1.1805,1.2524,1.3589,1.4897,1.3547,1.2222,1.1011,1.1238,1.1374,1.1521,1.1607,1.1555,1.137,1.1303,1.1166,1.1065,1.0665,1.0762,1.117,1.1999,1.2461,1.2613,0.0,0.0,0.0,0.0,0.0,0.0,0.0,0.0,0.0,0.0,0.0,0.0,0.0,0.0,0.0,0.0,0.0,0.0,0.0,-0.8392,-0.942,-1.0561,-1.1458,-1.3278,-1.6254,-1.6572,-1.6477,-1.6017,-1.5468,-1.4964,-1.448,-1.3413,-1.3631,-1.4909,-1.4909,-1.5786,-1.7229,-1.6716,-1.6795,-1.7229,-1.6716,-1.6195,-1.5605,-1.4551,-1.3354,-1.2412,-1.3693,0.0,0.0,-1.1723,-1.1402,-1.0453,-1.059,-1.0399,-1.032,-1.1248,-1.2589,-1.3259,-1.0963,-0.7626,-0.3628,0.1316,0.4237,0.6008,0.6506,0.5486,0.4828,0.6218,0.765,0.9072,1.0512,1.3472,1.5683,1.5752,1.5703,1.5708,1.5702,1.4619,1.4019,1.4541,1.3569,1.3491,1.5278,1.6523,1.7246,1.7305,1.6754,1.6421,1.6466,1.4247,1.3022,1.3022,1.0427,0.9005,0.8906,1.1556,1.2255,1.1011,1.23,1.2852,1.2783,1.1302,1.0855,1.1172,1.0521,1.0821,1.1697,1.0411,1.0614,1.1665,1.0364,1.0614,1.1715,1.1065,1.1266,1.1814,0.0,0.0,0.0,0.0,0.0,0.0,0.0,0.0,0.0,0.0,0.0,0.0,0.0,0.0,0.0,0.0,0.0,0.0,0.0,-0.922,-1.0005,-1.0706,-1.1532,-1.2848,-1.4729,-1.4728,-1.4633,-1.4476,-1.3766,-1.3337,-1.3169,-1.2767,-1.2994,-1.3822,-1.4544,-1.5398,-1.6264,-1.6443,-1.6595,-1.6689,-1.58,-1.5549,-1.5498,-1.3526,-1.2675,-1.258,0.0,0.0,-1.1295,-1.1283,-1.1115,-1.0798,-1.0016,-0.9987,-1.0607,-1.2556,-1.3317,-1.3439,-1.3008,-0.9064,-0.4462,-0.1932,0.1778,0.499,0.5605,0.3688,0.2417,0.4601,0.4004,0.3673,0.5636,0.902,1.1522,1.1615,1.3562,1.5022,1.493,1.3871,1.2811,1.208,1.1223,1.0905,1.1468,1.368,1.5369,1.6034,1.475,1.4236,1.4869,1.3548,1.2404,1.1534,0.8793,0.783,0.8804,0.9725,0.9925,0.9462,1.088,1.1388,1.1078,1.0556,1.0549,1.0933,1.0685,1.0555,1.0415,0.9965,0.9814,0.9766,0.9309,0.9409,0.9762,0.9562,1.0163,1.1166,0.0,0.0,0.0,0.0,0.0,0.0,0.0,0.0,0.0,0.0,0.0,0.0,0.0,0.0,0.0,0.0,0.0,-0.9845,0.0,0.0,-0.9976,-1.0346,-1.098,-1.1937,-1.3259,-1.3374,-1.337,-1.3267,-1.2675,-1.2433,-1.2541,-1.2095,-1.2352,-1.317,-1.3924,-1.4727,-1.5453,-1.5798,-1.5872,-1.5756,-1.4836,-1.4439,-1.4194,-1.2422,-1.1813,0.0,0.0,0.0,-1.2012,-1.2039,-1.2151,-1.2139,-1.1364,-1.1524,-1.2347,-1.4244,-1.4997,-1.5328,-1.5771,-1.256,-0.8763,-0.7387,-0.4228,-0.1312,-0.0732,-0.2264,-0.3122,-0.0736,-0.0952,-0.1349,-0.0638,0.4443,0.8484,0.8364,1.1373,1.373,1.3669,1.2292,1.0941,1.0082,0.9154,0.8684,0.8885,1.0382,1.2105,1.3963,1.2793,1.2469,1.3543,1.2483,1.126,1.0111,0.7803,0.6802,0.7281,0.8262,0.8959,0.9312,1.0064,1.0316,1.0064,1.0064,1.0214,1.0415,1.0167,0.9965,0.9762,0.9566,0.9312,0.9106,0.8906,0.8959,0.911,0.891,0.9514,1.0415,0.0,0.0,0.0,0.0,0.0,0.0,0.0,0.0,0.0,0.0,0.0,0.0,0.0,0.0,0.0,0.0,0.0,0.0,0.0,0.0,0.0,-0.9619,-0.9932,-1.0664,-1.1884,-1.2459,-1.2619,-1.2362,-1.2175,-1.2211,-1.2434,-1.1439,-1.1656,-1.2897,-1.305,-1.3746,-1.4744,-1.4782,-1.4684,-1.4449,-1.3832,-1.2949,-1.1944,-1.1273,0.0,0.0,0.0,0.0,-1.2492,-1.3903,-1.4344,-1.4335,-1.4454,-1.478,-1.532,-1.6324,-1.757,-1.8729,-1.9199,-1.7987,-1.6232,-1.463,-1.3169,-1.2012,-1.1492,-1.1516,-1.1087,-0.9052,-0.687,-0.588,-0.7724,-0.0201,0.6154,0.5782,0.899,1.1588,1.1821,0.997,0.858,0.8612,0.7427,0.6843,0.7396,0.6889,0.7843,1.1025,1.0823,1.1164,1.2488,1.1022,0.9695,0.8804,0.7345,0.5932,0.4572,0.7337,0.9208,1.006,0.9862,0.9766,0.9766,0.9766,0.9766,0.9714,0.9057,0.9159,0.9714,0.9061,0.9159,0.9662,0.9061,0.9211,0.9714,0.9061,0.9263,0.9865,0.0,0.0,0.0,0.0,0.0,0.0,0.0,0.0,0.0,0.0,0.0,0.0,0.0,0.0,0.0,0.0,0.0,0.0,0.0,0.0,0.0,0.0,0.0,0.0,0.0,0.0,0.0,0.0,-1.0394,-1.0358,-1.0363,-1.0542,-1.0814,-1.1181,-1.1906,-1.243,-1.2746,-1.3098,-1.3297,-1.3247,0.0,-1.1984,-1.2044,0.0,0.0,0.0,0.0,0.0,-1.3554,-1.5058,-1.5689,-1.5819,-1.5695,-1.622,-1.7208,-1.8996,-1.9852,-2.0554,-2.2109,-2.158,-2.0099,-1.7888,-1.5585,-1.336,-1.1455,-1.164,-1.162,-0.9544,-1.029,-1.1045,-1.0209,-0.5707,-0.1533,0.0295,0.4522,0.8162,0.9838,0.9731,0.8888,0.7309,0.6799,0.6256,0.5378,0.5113,0.5584,0.6974,0.7909,0.9123,1.0746,0.9703,0.9002,0.8804,0.7345,0.6258,0.5542,0.7176,0.8093,0.8346,0.884,0.9057,0.9057,0.9057,0.9057,0.9061,0.8857,0.8906,0.9061,0.8854,0.891,0.9061,0.8857,0.9211,0.9714,0.9061,0.9562,1.0462,0.0,0.0,0.0,0.0,0.0,0.0,0.0,0.0,0.0,0.0,0.0,0.0,0.0,0.0,0.0,0.0,0.0,0.0,0.0,0.0,0.0,0.0,0.0,0.0,0.0,0.0,0.0,0.0,0.0,0.0,-0.9998,-1.0133,-1.0314,-1.0564,-1.1133,-1.1424,-1.1494,-1.1977,0.0,0.0,0.0,0.0,0.0,0.0,0.0,0.0,0.0,0.0,-1.5606,-1.6233,-1.6537,-1.6676,-1.6772,-1.7588,-1.8922,-2.1002,-2.153,-2.1814,-2.3635,-2.3506,-2.2476,-2.0942,-1.9195,-1.7427,-1.5894,-1.548,-1.4988,-1.358,-1.4127,-1.4588,-1.3688,-0.865,-0.4393,-0.3691,0.1774,0.6256,0.7193,0.7319,0.6921,0.577,0.5653,0.5389,0.4572,0.4182,0.4286,0.5001,0.6088,0.7267,0.8534,0.8293,0.815,0.8159,0.7399,0.6583,0.5756,0.6411,0.7069,0.7723,0.778,0.7996,0.8318,0.7993,0.7996,0.8318,0.8318,0.848,0.8808,0.911,0.9061,0.8808,0.911,0.9465,0.9762,0.9361,0.9913,1.0767,0.0,0.0,0.0,0.0,0.0,0.0,0.0,0.0,0.0,0.0,0.0,0.0,0.0,0.0,0.0,0.0,0.0,0.0,0.0,0.0,0.0,0.0,0.0,0.0,0.0,0.0,0.0,0.0,0.0,0.0,0.0,0.0,0.0,0.0,0.0,0.0,0.0,0.0,0.0,0.0,0.0,0.0,0.0,0.0,0.0,0.0,0.0,0.0,-1.7422,-1.7079,-1.7189,-1.7553,-1.802,-1.9088,-2.0562,-2.2508,-2.283,-2.2859,-2.4318,-2.4331,-2.3823,-2.3335,-2.2575,-2.1835,-2.1357,-1.997,-1.8687,-1.8288,-1.7342,-1.6648,-1.6905,-1.0622,-0.58,-0.7009,-0.096,0.3857,0.3789,0.3643,0.3712,0.4071,0.4152,0.4231,0.4349,0.3622,0.3511,0.4406,0.4864,0.5411,0.6256,0.6657,0.6879,0.7015,0.6907,0.6359,0.538,0.5374,0.6027,0.7396,0.6858,0.6912,0.7509,0.6912,0.6964,0.756,0.7667,0.8046,0.8699,0.9409,0.9312,0.8857,0.9462,0.9714,0.9766,0.9714,1.0115,1.0767,0.0,0.0,0.0,0.0,0.0,0.0,0.0,0.0,0.0,0.0,-1.0135,-1.0134,0.0,0.0,0.0,0.0,0.0,0.0,0.0,0.0,0.0,0.0,0.0,0.0,0.0,-1.0346,-1.0341,-1.0168,-1.0251,0.0,0.0,0.0,0.0,0.0,0.0,0.0,0.0,0.0,0.0,0.0,0.0,0.0,0.0,0.0,0.0,0.0,0.0,0.0,0.0,0.0,-1.8146,-1.9966,-2.044,-2.1285,-2.2372,-2.3674,-2.4195,-2.4413,-2.4698,-2.4702,-2.442,-2.3505,-2.2234,-2.0976,-2.0124,-1.8221,-1.6748,-1.716,-1.6809,-1.6479,-1.6642,-1.4791,-1.2742,-1.1214,-0.7916,-0.4504,-0.1493,-0.0357,0.0776,0.2565,0.2653,0.2871,0.351,0.2843,0.2954,0.4406,0.3401,0.3337,0.4701,0.4313,0.4311,0.492,0.4166,0.4065,0.4679,0.4602,0.5035,0.5867,0.6367,0.6642,0.6804,0.664,0.6696,0.6804,0.7453,0.7777,0.794,0.8689,0.891,0.8804,0.891,0.9309,0.971,0.9159,0.9413,1.0068,0.0,0.0,0.0,0.0,0.0,0.0,0.0,-0.9643,-1.0053,-0.9628,-0.9971,-1.0264,-1.0299,-1.0273,-1.0263,0.0,0.0,0.0,0.0,0.0,0.0,0.0,0.0,0.0,0.0,-1.0701,-1.0706,-1.0255,0.0,-1.0631,-1.0147,-1.0047,-0.999,-0.9987,-1.0774,-1.0882,-1.0537,0.0,0.0,-1.12,-1.1648,-1.1896,0.0,0.0,0.0,0.0,0.0,0.0,0.0,0.0,-1.8333,-1.9849,-2.056,-2.1839,-2.3217,-2.3976,-2.4631,-2.5103,-2.5072,-2.5068,-2.4822,-2.3814,-2.2095,-2.0498,-1.9984,-1.7673,-1.5849,-1.6626,-1.6285,-1.6125,-1.7103,-1.5078,-1.3223,-1.3069,-0.9657,-0.6207,-0.3915,-0.2418,-0.1285,-0.051,0.0107,0.0656,0.1093,0.11,0.1881,0.3789,0.251,0.2285,0.3778,0.2889,0.2501,0.289,0.2453,0.2792,0.3903,0.3837,0.4381,0.5485,0.5494,0.5714,0.6036,0.566,0.5714,0.6036,0.6414,0.7012,0.7774,0.8455,0.8984,0.9361,0.9714,1.0064,1.0265,0.9965,1.0064,1.0368,0.0,0.0,0.0,0.0,0.0,0.0,0.0,-0.9085,-0.9645,-0.8826,-0.9276,-0.9752,-0.9978,-1.0132,-1.0235,0.0,0.0,0.0,0.0,0.0,0.0,0.0,0.0,0.0,0.0,0.0,0.0,-1.0556,-1.1258,0.0,0.0,0.0,0.0,0.0,-1.1178,-1.1537,-1.1652,-1.2473,-1.2704,0.0,0.0,-1.3663,0.0,0.0,0.0,0.0,0.0,-1.5118,-1.6374,-1.7173,-1.7896,-1.8617,-1.9528,-2.1183,-2.2891,-2.3402,-2.4151,-2.4854,-2.5001,-2.5165,-2.5004,-2.3783,-2.1886,-2.0164,-1.9638,-1.7443,-1.5664,-1.6227,-1.6083,-1.6221,-1.7418,-1.5001,-1.3314,-1.4828,-1.1308,-0.7841,-0.6258,-0.5128,-0.412,-0.3159,-0.2698,-0.2167,-0.1353,-0.0926,0.0274,0.2497,0.156,0.1395,0.2621,0.1898,0.1397,0.1397,0.1397,0.1954,0.3122,0.3065,0.3727,0.5048,0.4677,0.4787,0.5271,0.4734,0.4787,0.5271,0.5433,0.6249,0.7503,0.8221,0.8911,0.9662,1.0167,1.0364,1.0364,1.0364,1.0364,1.0415,0.0,0.0,0.0,0.0,0.0,0.0,0.0,-0.8969,-0.8796,-0.7936,-0.7883,-0.8211,-0.8948,-0.9788,-1.0291,0.0,0.0,0.0,0.0,0.0,0.0,0.0,0.0,0.0,0.0,0.0,0.0,-1.1393,-1.1532,0.0,0.0,0.0,0.0,0.0,0.0,-1.2118,-1.2627,-1.349,0.0,0.0,0.0,0.0,0.0,0.0,0.0,0.0,0.0,-1.528,-1.5536,-1.6337,-1.6661,-1.6871,-1.7685,-1.9122,-2.0665,-2.1503,-2.2314,-2.3127,-2.3982,-2.4736,-2.4839,-2.2923,-2.1367,-1.9836,-1.8049,-1.704,-1.6286,-1.564,-1.6655,-1.7485,-1.6924,-1.6992,-1.7357,-1.8064,-1.6705,-1.4245,-1.0491,-1.0705,-0.9171,-0.3722,-0.537,-0.5661,-0.2406,-0.2571,-0.2025,0.0166,0.0166,0.0167,0.028,0.0839,0.1118,0.1118,0.1118,0.1507,0.2286,0.2286,0.2731,0.362,0.4236,0.4517,0.457,0.4517,0.4517,0.4625,0.5218,0.598,0.675,0.7501,0.8206,0.8906,0.8959,0.8959,0.8959,0.8959,0.8959,0.9057,0.0,0.0,0.0,0.0,0.0,0.0,-0.8381,-0.906,-0.9236,-0.7873,-0.8582,-0.9142,-0.8982,-0.9767,-1.0303,-1.0304,0.0,0.0,0.0,0.0,0.0,0.0,0.0,0.0,0.0,0.0,-1.0709,-1.1555,-1.1551,0.0,0.0,0.0,0.0,0.0,0.0,-1.3337,-1.3596,-1.4464,0.0,0.0,0.0,0.0,0.0,0.0,0.0,0.0,0.0,0.0,-1.5401,-1.5679,-1.5752,-1.5776,-1.6054,-1.6593,-1.7605,-2.0063,-2.1754,-2.3013,-2.3871,-2.4693,-2.485,-2.2947,-2.1388,-1.9947,-1.861,-1.7009,-1.5893,-1.6132,-1.6304,-1.6461,-1.6664,-1.6922,-1.7113,-1.7147,-1.6101,-1.4537,-1.2328,-1.1505,-1.0356,-0.8208,-0.8397,-0.7681,-0.5047,-0.4259,-0.2848,-0.0222,0.0,0.0,0.0,0.028,0.0448,0.0448,0.0448,0.0783,0.1507,0.1563,0.212,0.3343,0.3678,0.407,0.4517,0.4517,0.4517,0.4519,0.4789,0.5275,0.598,0.6249,0.732,0.8761,0.8761,0.9033,0.9413,0.9413,0.9162,0.8857,0.0,0.0,0.0,0.0,0.0,-0.9719,-0.827,-0.9054,-0.931,-0.7889,-0.8728,-0.9332,-0.9005,-0.9533,-1.0015,-1.0276,-1.0302,0.0,0.0,0.0,0.0,0.0,0.0,0.0,0.0,0.0,-1.0839,-1.1952,-1.2086,-1.2314,0.0,0.0,-1.3186,-1.2559,0.0,0.0,0.0,0.0,0.0,0.0,0.0,0.0,0.0,0.0,0.0,0.0,0.0,0.0,0.0,0.0,0.0,-1.5222,-1.5151,0.0,0.0,-1.8396,-2.0377,-2.1903,-2.2754,-2.3747,-2.4184,-2.2612,-2.1058,-1.9667,-1.8734,-1.7045,-1.5799,-1.6233,-1.6034,-1.5964,-1.659,-1.6699,-1.6662,-1.6526,-1.5243,-1.397,-1.312,-1.1715,-1.0943,-1.1271,-1.0875,-0.9878,-0.8049,-0.618,-0.384,-0.0889,-0.0668,-0.0558,-0.0336,-0.0112,0.0,0.0,0.0,0.0224,0.0783,0.1006,0.1619,0.2675,0.3122,0.368,0.4182,0.4181,0.4125,0.4125,0.3903,0.4224,0.4871,0.5093,0.622,0.7762,0.7994,0.8376,0.8862,0.9079,0.8886,0.848,0.0,0.0,0.0,0.0,0.0,0.0,-0.9019,-0.8896,-0.8624,-0.7811,-0.7712,-0.8027,-0.8818,-0.8964,-0.9365,-1.0224,-1.0299,0.0,0.0,0.0,0.0,0.0,0.0,0.0,0.0,0.0,-1.1124,-1.2785,-1.3377,-1.3812,-1.4096,-1.4972,-1.4765,-1.3724,0.0,0.0,0.0,0.0,0.0,0.0,0.0,0.0,0.0,0.0,0.0,0.0,0.0,0.0,0.0,0.0,0.0,0.0,0.0,0.0,0.0,0.0,-1.7685,-1.9148,-2.0085,-2.1562,-2.2581,-2.1567,-2.015,-1.8775,-1.7829,-1.708,-1.6356,-1.5581,-1.609,-1.6689,-1.6702,-1.6702,-1.6809,-1.714,-1.5228,-1.3537,-1.307,-1.2134,-1.153,-1.1574,-1.252,-1.2611,-1.1284,-0.8387,-0.5339,-0.2395,-0.2175,-0.1841,-0.1118,-0.0392,0.0,0.0,0.0,0.0,0.0,0.0727,0.1118,0.1118,0.262,0.3343,0.34,0.3343,0.3288,0.3287,0.2564,0.2667,0.3373,0.4094,0.4856,0.561,0.6352,0.6642,0.6748,0.7453,0.772,0.783,0.0,0.0,0.0,0.0,0.0,0.0,0.0,-0.9823,-0.9549,-0.8704,-0.9068,-0.9294,-0.9,-0.9522,-0.9998,-1.028,-1.0302,0.0,0.0,0.0,0.0,0.0,0.0,0.0,0.0,0.0,-1.1718,-1.2249,-1.3182,-1.4104,-1.499,-1.5268,-1.5212,-1.4883,-1.5238,-1.5399,0.0,0.0,0.0,0.0,0.0,0.0,-1.448,0.0,0.0,0.0,0.0,0.0,0.0,0.0,0.0,0.0,0.0,0.0,0.0,-1.5613,-1.6855,-1.8344,-1.9237,-2.027,-2.088,-2.0012,-1.898,-1.7956,-1.7108,-1.6327,-1.5712,-1.5449,-1.5624,-1.5808,-1.5814,-1.5772,-1.5637,-1.5338,-1.4361,-1.3663,-1.3735,-1.2678,-1.2322,-1.344,-1.2235,-1.0994,-1.027,-0.7544,-0.5462,-0.4455,-0.3049,-0.212,-0.1841,-0.1174,-0.0504,0.0,0.0,0.0,0.0,0.0224,0.0616,0.1118,0.2064,0.2564,0.2621,0.3065,0.301,0.2509,0.2286,0.2339,0.2614,0.3335,0.4102,0.4803,0.5588,0.6147,0.6642,0.6858,0.7292,0.7723,0.0,0.0,0.0,0.0,0.0,0.0,0.0,-1.0243,-1.0076,-0.9559,-0.9928,-1.0043,-0.9509,-0.9956,-1.0297,-1.0304,-1.0302,0.0,0.0,0.0,0.0,0.0,0.0,0.0,0.0,-1.1425,-1.1937,-1.1807,-1.3041,-1.3912,-1.442,-1.4647,-1.4965,-1.5358,-1.539,-1.539,0.0,0.0,0.0,0.0,0.0,0.0,-1.406,0.0,0.0,0.0,0.0,0.0,0.0,0.0,0.0,0.0,0.0,0.0,0.0,0.0,-1.6041,-1.7047,-1.7924,-1.8742,-1.9235,-1.8728,-1.7968,-1.7216,-1.6712,-1.5957,-1.5358,-1.5358,-1.5338,-1.5322,-1.5323,-1.513,-1.4923,-1.483,-1.3941,-1.3625,-1.4673,-1.3144,-1.232,-1.3512,-1.2771,-1.1564,-0.9851,-0.8355,-0.6764,-0.5163,-0.376,-0.2781,-0.223,-0.1786,-0.1285,-0.0839,-0.056,-0.028,0.0,0.0,0.0224,0.0671,0.1452,0.1842,0.1954,0.2286,0.2231,0.1786,0.1507,0.1396,0.0,0.2175,0.2893,0.3659,0.4385,0.516,0.5825,0.6093,0.6635,0.7343,0.0,0.0,0.0,0.0,0.0,0.0,0.0,-1.0197,-1.0234,-1.0286,-1.0287,-1.0274,-1.0205,-1.0263,-1.0304,-1.0297,0.0,0.0,0.0,0.0,0.0,0.0,0.0,0.0,0.0,-1.1497,-1.193,-1.1539,-1.2908,-1.3293,-1.2754,-1.335,-1.4179,-1.5183,-1.5333,-1.5361,0.0,0.0,0.0,0.0,0.0,0.0,0.0,0.0,0.0,0.0,0.0,0.0,0.0,0.0,0.0,0.0,0.0,0.0,0.0,0.0,0.0,0.0,0.0,-1.706,-1.7624,-1.7625,-1.7069,-1.6509,-1.6509,-1.5895,0.0,-1.5303,-1.5255,-1.5196,-1.5197,-1.4761,-1.4635,-1.5384,-1.4007,-1.3535,-1.5493,-1.3473,-1.1932,-1.2318,-1.4021,-1.3747,-1.0232,-1.0237,-0.8872,-0.4905,-0.4479,-0.3824,-0.2452,-0.2286,-0.2286,-0.2286,-0.1619,-0.0895,-0.0112,0.0,0.0,0.0,0.0783,0.1229,0.1398,0.1229,0.1062,0.1006,0.028,0.0,0.0056,0.0783,0.1507,0.2286,0.3066,0.3847,0.4572,0.5218,0.5871,0.6642,0.0,0.0,0.0,0.0,0.0,0.0,0.0,0.0,0.0,0.0,-1.0223,-1.0215,-1.0199,-1.0259,-1.0298,0.0,0.0,0.0,0.0,0.0,0.0,0.0,0.0,0.0,0.0,-1.2266,-1.2827,-1.1875,-1.223,-1.2304,-1.2125,-1.2684,-1.3291,-1.3966,-1.4905,-1.5315,0.0,0.0,0.0,0.0,0.0,0.0,0.0,0.0,0.0,0.0,-1.2867,-1.2959,0.0,0.0,0.0,0.0,0.0,0.0,0.0,0.0,-1.5381,-1.5421,-1.563,0.0,-1.59,-1.5951,-1.5819,-1.5681,0.0,0.0,0.0,0.0,0.0,0.0,0.0,-1.4756,-1.4661,-1.5455,-1.4829,-1.4054,-1.3551,-1.3681,-1.3802,-1.382,-1.4218,-1.3845,-1.2076,-0.9811,-0.7988,-0.6903,-0.5341,-0.4268,-0.3958,-0.34,-0.3065,-0.3121,-0.2955,-0.2231,-0.0839,-0.028,0.0,0.0,0.0951,0.1063,0.0392,0.1063,0.1007,0.0224,0.0056,0.0,0.0056,0.0783,0.1507,0.2286,0.301,0.379,0.4517,0.468,0.5166,0.5871,0.0,0.0,0.0,0.0,0.0,0.0,0.0,0.0,0.0,0.0,0.0,0.0,0.0,0.0,0.0,0.0,0.0,0.0,0.0,0.0,0.0,0.0,0.0,0.0,-1.0305,-1.1904,-1.2415,-1.1766,-1.2175,-1.2141,-1.1728,-1.2137,-1.2615,-1.3199,-1.4651,-1.5079,-1.4679,0.0,0.0,0.0,-1.368,0.0,0.0,0.0,0.0,0.0,-1.2183,-1.2094,0.0,-1.255,-1.3282,-1.4051,0.0,0.0,0.0,0.0,-1.5397,-1.5398,-1.54,-1.5368,-1.5347,-1.5392,-1.5401,-1.5402,-1.5397,0.0,0.0,0.0,0.0,0.0,0.0,-1.4744,-1.4649,-1.5276,-1.5098,-1.4472,-1.3295,-1.321,-1.3445,-1.3937,-1.3822,-1.3448,-1.2645,-1.073,-0.903,-0.7735,-0.6284,-0.5261,-0.4948,-0.4231,-0.3846,-0.3901,-0.3458,-0.2568,-0.1286,-0.0895,-0.0448,0.0,0.056,0.0504,0.0,0.056,0.0504,0.0,0.0,0.0,0.0056,0.0448,0.1006,0.1786,0.2509,0.3288,0.4015,0.4349,0.4948,0.5597,0.0,0.0,0.0,0.0,0.0,0.0,0.0,0.0,0.0,0.0,0.0,0.0,0.0,0.0,0.0,0.0,0.0,0.0,0.0,0.0,0.0,0.0,0.0,-1.036,-1.0502,-1.1341,-1.1758,-1.1702,-1.2443,-1.235,-1.1492,-1.173,-1.2218,-1.2975,-1.4574,-1.4888,-1.4187,-1.4119,-1.3662,-1.3037,-1.3726,0.0,0.0,0.0,0.0,0.0,0.0,0.0,0.0,-1.1853,-1.244,-1.2728,-1.3406,0.0,0.0,0.0,0.0,0.0,-1.5362,-1.5488,-1.5548,-1.5385,-1.5359,-1.5371,-1.5358,0.0,0.0,0.0,0.0,0.0,0.0,-1.4739,-1.4666,-1.5196,-1.5091,-1.4804,-1.4322,-1.3015,-1.258,-1.3973,-1.3548,-1.2939,-1.2414,-1.1759,-1.0355,-0.7874,-0.7128,-0.6421,-0.5706,-0.5003,-0.4679,-0.4679,-0.3738,-0.2793,-0.1955,-0.1509,-0.0839,0.0,0.0,0.0,0.0,0.0,0.0,0.0,0.0,0.0,0.0,0.0,0.0448,0.1173,0.1898,0.2676,0.3456,0.4237,0.484,0.5487,0.0,0.0,0.0,0.0,0.0,0.0,0.0,0.0,0.0,0.0,0.0,0.0,0.0,0.0,0.0,0.0,0.0,0.0,0.0,0.0,0.0,0.0,-1.0299,-1.0653,-1.1376,-1.22,-1.2608,-1.2601,-1.2725,-1.2325,-1.1417,-1.1514,-1.2355,-1.3844,-1.4844,-1.5225,-1.5052,-1.4317,-1.3935,-1.3834,-1.3945,0.0,0.0,0.0,0.0,0.0,0.0,0.0,0.0,-1.0664,-1.1471,-1.2591,-1.2051,0.0,0.0,0.0,0.0,0.0,-1.52,-1.5903,-1.6212,-1.5358,-1.5194,-1.5219,-1.5156,0.0,0.0,0.0,0.0,0.0,-1.5229,-1.4788,-1.4796,-1.5942,-1.5081,-1.4952,-1.7036,-1.5035,-1.4126,-1.625,-1.475,-1.3037,-1.1839,-1.0763,-0.9433,-0.7827,-0.7616,-0.7235,-0.6477,-0.5764,-0.5326,-0.5326,-0.462,-0.4184,-0.4016,-0.1508,-0.0168,0.0,0.0,0.0,0.0,0.0,0.0,0.0,0.0,0.0,0.0,0.0,0.0448,0.1173,0.1898,0.2675,0.3399,0.4181,0.4572,0.4844,0.0,0.0,0.0,0.0,0.0,0.0,0.0,0.0,0.0,0.0,0.0,0.0,0.0,0.0,0.0,0.0,0.0,0.0,0.0,0.0,0.0,-1.032,-1.1201,-1.1454,-1.0914,-1.1694,-1.21,-1.2097,-1.2096,-1.1883,-1.1466,-1.197,-1.2846,-1.4045,-1.4908,-1.5038,-1.4566,-1.4172,-1.3729,-1.3339,0.0,0.0,0.0,0.0,0.0,0.0,0.0,0.0,0.0,0.0,-1.2428,-1.2721,-1.2859,0.0,0.0,0.0,0.0,0.0,-1.516,-1.5667,-1.581,-1.524,-1.5294,-1.5293,-1.4658,0.0,0.0,0.0,0.0,-1.501,-1.5071,-1.5184,-1.5369,-1.5702,-1.4165,-1.347,-1.5049,-1.3723,-1.3367,-1.5482,-1.402,-1.2616,-1.2123,-1.1041,-0.9751,-0.8421,-0.794,-0.756,-0.7235,-0.6143,-0.554,-0.5703,-0.495,-0.4517,-0.4517,-0.1508,0.0,0.0,0.0,0.0,0.0,0.0,0.0,0.0,0.0,0.0,0.0,0.0,0.0224,0.0615,0.173,0.2398,0.2842,0.407,0.4734,0.5111,0.0,0.0,0.0,0.0,0.0,0.0,0.0,0.0,0.0,0.0,0.0,0.0,0.0,0.0,0.0,0.0,0.0,0.0,0.0,0.0,-1.1003,-1.0329,-1.1766,-1.1971,-1.0626,-1.1394,-1.1796,-1.1797,-1.1602,-1.1396,-1.1222,-1.2302,-1.3131,-1.3775,-1.4843,-1.4937,-1.4301,-1.4296,-1.3908,-1.334,0.0,0.0,0.0,0.0,0.0,0.0,0.0,0.0,0.0,0.0,0.0,0.0,0.0,0.0,0.0,-1.3977,-1.3964,-1.4031,-1.5111,-1.5381,-1.5294,-1.5095,-1.5311,0.0,0.0,0.0,0.0,0.0,-1.5429,-1.5693,-1.536,-1.5561,-1.5584,-1.498,-1.3506,-1.2674,-1.33,-1.2553,-1.2648,-1.4464,-1.3308,-1.2295,-1.2114,-1.1297,-1.0265,-0.891,-0.8265,-0.794,-0.794,-0.6576,-0.5925,-0.6249,-0.5115,-0.4517,-0.4517,-0.2231,-0.0672,0.0,0.0,0.0,0.0,0.0,0.0,0.0,0.0,0.0,0.0,0.0,0.0112,0.0392,0.1675,0.2398,0.2899,0.407,0.4948,0.5485,0.0,0.0,0.0,0.0,0.0,0.0,0.0,0.0,0.0,0.0,0.0,0.0,0.0,0.0,0.0,0.0,0.0,0.0,0.0,0.0,-1.037,-1.0296,-1.12,-1.1634,-1.1504,-1.2292,-1.2708,-1.2708,-1.19,-1.1089,-1.0329,-1.2014,-1.2828,-1.2965,-1.4635,-1.5322,-1.5208,-1.5214,-1.513,-1.5018,-1.5016,0.0,0.0,0.0,0.0,0.0,0.0,0.0,0.0,0.0,0.0,0.0,0.0,0.0,-1.2004,-1.3627,-1.3529,-1.3263,-1.4944,-1.5313,-1.5173,-1.4956,-1.5032,0.0,-1.5753,-1.6253,0.0,-1.7568,-1.8099,-1.803,-1.6719,-1.5762,-1.4823,-1.3791,-1.3925,-1.4207,-1.4429,-1.3507,-1.3282,-1.4479,-1.3559,-1.2321,-1.1053,-1.0859,-1.0265,-0.891,-0.8752,-0.8699,-0.8699,-0.7343,-0.675,-0.7295,-0.5498,-0.4517,-0.4517,-0.4294,-0.2787,0.0,0.0,0.0,0.0,0.0,0.0,0.0,0.0,0.0,0.0,0.0,0.0392,0.1118,0.1897,0.3065,0.4349,0.4462,0.4948,0.5485,0.0,0.0,0.0,0.0,0.0,0.0,0.0,0.0,0.0,0.0,0.0,0.0,0.0,0.0,0.0,0.0,0.0,0.0,0.0,0.0,-1.087,-1.0324,-1.165,-1.1904,-1.0819,-1.1584,-1.1457,-1.037,-1.0042,-0.9989,-1.0238,-1.1976,-1.2802,-1.2881,-1.4615,-1.536,-1.53,-1.5259,-1.5219,-1.5194,-1.5087,-1.4701,0.0,0.0,0.0,0.0,0.0,0.0,0.0,0.0,-1.3721,-1.3548,-1.36,-1.3385,-1.3255,-1.3911,-1.3874,-1.3873,-1.5066,-1.5735,-1.5905,-1.5197,-1.5255,0.0,0.0,-1.6283,-1.651,-1.6602,-1.78,-1.8486,-1.7364,-1.5546,-1.4206,-1.4198,-1.3512,-1.3141,-1.3476,-1.3185,-1.3055,-1.3479,-1.3137,-1.2515,-1.1516,-1.1412,-1.0868,-0.9514,-0.9413,-0.9263,-0.8808,-0.7723,-0.7023,-0.6912,-0.5336,-0.4517,-0.4517,-0.4517,-0.3903,-0.2788,-0.2178,-0.1454,-0.0671,-0.0839,-0.0839,-0.0671,-0.0224,0.0,0.0,0.0,0.0448,0.1229,0.2453,0.3568,0.4517,0.4517,0.4679,0.4895,0.0,0.0,0.0,0.0,0.0,0.0,0.0,0.0,0.0,0.0,0.0,0.0,0.0,0.0,0.0,0.0,0.0,0.0,0.0,-1.0855,-1.0917,-1.0333,-1.144,-1.1519,-1.0326,-1.0839,-1.0537,-0.9341,-0.9338,-0.9644,-1.0269,-1.1993,-1.2805,-1.2882,-1.4615,-1.5358,-1.5303,-1.5249,-1.5056,-1.4778,-1.4666,-1.4094,0.0,0.0,0.0,0.0,0.0,0.0,0.0,0.0,-1.4277,-1.4095,-1.4406,-1.4315,-1.4155,-1.4428,-1.4288,-1.4229,-1.5102,-1.5508,-1.5598,-1.5219,0.0,0.0,-1.6945,-1.7037,-1.688,-1.7187,-1.8108,-1.8684,-1.7996,-1.5861,-1.4341,-1.48,-1.3767,-1.2929,-1.2939,-1.2809,-1.2622,-1.248,-1.2508,-1.221,-1.1501,-1.1252,-1.067,-0.9554,-0.9409,-0.9167,-0.8723,-0.7897,-0.7292,-0.6858,-0.5334,-0.4517,-0.4517,-0.4517,-0.4517,-0.4517,-0.3795,-0.2846,-0.1676,-0.1732,-0.1564,-0.1174,-0.0616,-0.0224,0.0,0.0,0.056,0.1619,0.3122,0.407,0.4517,0.4517,0.4517,0.4517,0.0,0.0,0.0,0.0,0.0,0.0,0.0,0.0,0.0,0.0,0.0,0.0,0.0,0.0,0.0,0.0,0.0,0.0,-1.0297,-1.0299,-1.0303,-1.0299,-1.0301,-1.0303,-1.0298,-1.0301,-1.0297,-1.031,-1.0301,-1.0301,-1.035,-1.2031,-1.2812,-1.2885,-1.4616,-1.5355,-1.5297,-1.5305,-1.4758,-1.3915,-1.3825,-1.3281,-1.2403,0.0,0.0,0.0,0.0,0.0,0.0,0.0,-1.3314,-1.4247,-1.5119,-1.4803,-1.428,-1.5151,-1.4693,-1.4105,-1.497,-1.4476,-1.397,-1.4956,0.0,0.0,-1.8895,-1.8808,-1.8366,-2.0041,-1.9536,-1.8784,-1.8698,-1.6825,-1.5334,-1.5452,-1.4931,-1.4144,-1.3233,-1.2559,-1.2061,-1.1655,-1.1606,-1.1334,-1.0655,-1.0058,-0.942,-0.8745,-0.8532,-0.842,-0.837,-0.7955,-0.7616,-0.7402,-0.5498,-0.4517,-0.4517,-0.4517,-0.4517,-0.4517,-0.4517,-0.3962,-0.2962,-0.2455,-0.1954,-0.151,-0.1229,-0.0671,0.0,0.0,0.0895,0.2342,0.3901,0.4517,0.4517,0.4517,0.4517,0.4517,0.0,0.0,0.0,0.0,0.0,0.0,0.0,0.0,0.0,0.0,0.0,0.0,0.0,0.0,0.0,0.0,0.0,0.0,-1.0228,-1.0232,-1.0248,-1.0296,-1.0297,-1.0297,-1.0299,-1.03,-1.0595,-1.1211,-1.0604,-1.0613,-1.1248,-1.2927,-1.3406,-1.2939,-1.4642,-1.5385,-1.5374,-1.5316,-1.5115,-1.4761,-1.4067,-1.3278,-1.2468,0.0,0.0,0.0,0.0,0.0,0.0,0.0,0.0,0.0,-1.4387,-1.4729,-1.5068,-1.5321,-1.5192,-1.4976,-1.5096,-1.5625,-1.6043,-1.554,-1.5873,-1.6726,-1.8251,-1.7659,-1.7202,-1.8741,-1.8543,-1.7977,-1.7636,-1.637,-1.5123,-1.4359,-1.3544,-1.2901,-1.2583,-1.2387,-1.2085,-1.166,-1.1606,-1.1514,-1.1334,-1.0789,-1.0198,-0.9466,-0.9022,-0.8523,-0.8059,-0.8326,-0.8427,-0.8374,-0.5875,-0.4517,-0.4517,-0.4517,-0.4517,-0.4517,-0.4517,-0.4075,-0.3301,-0.3627,-0.3177,-0.1953,-0.1564,-0.0839,0.0056,0.1118,0.1786,0.2342,0.3901,0.4517,0.4517,0.4517,0.4517,0.4517,0.0,0.0,0.0,0.0,0.0,0.0,0.0,0.0,0.0,0.0,0.0,0.0,0.0,0.0,0.0,0.0,0.0,0.0,0.0,0.0,-1.0232,-1.0304,-0.997,-0.9782,-0.9781,-1.0125,-1.073,-1.1597,-1.1051,-1.1047,-1.1599,-1.3295,-1.3844,-1.3421,-1.4431,-1.5075,-1.5373,-1.4956,-1.4757,-1.4641,-1.3701,-1.2823,-1.2017,0.0,0.0,0.0,0.0,0.0,0.0,0.0,0.0,0.0,-1.3982,0.0,-1.5396,-1.5394,-1.5313,-1.5241,-1.5443,-1.6078,-1.6595,-1.626,-1.6675,-1.7187,-1.719,-1.7498,-1.7977,-1.866,-1.83,-1.7743,-1.7404,-1.6262,-1.5219,-1.4809,-1.3791,-1.2907,-1.2476,-1.2198,-1.1809,-1.1153,-1.1096,-1.1096,-1.1096,-1.0408,-0.98,-0.9315,-0.8693,-0.8144,-0.7746,-0.831,-0.8365,-0.7774,-0.6211,-0.5064,-0.4517,-0.4517,-0.4517,-0.4517,-0.4517,-0.4241,-0.3856,-0.4298,-0.3678,-0.2176,-0.1286,-0.056,0.0112,0.1285,0.1953,0.2342,0.3566,0.4237,0.4517,0.4517,0.4517,0.4517,0.0,0.0,0.0,0.0,0.0,0.0,0.0,0.0,0.0,0.0,0.0,0.0,0.0,0.0,0.0,0.0,0.0,0.0,0.0,0.0,-1.0227,-1.0304,-0.9461,-0.8996,-0.8999,-0.9777,-1.0609,-1.1482,-1.1573,-1.1583,-1.1552,-1.3288,-1.4017,-1.3878,-1.4033,-1.454,-1.5234,-1.4461,-1.4078,-1.392,-1.2993,-1.2132,-1.1302,-1.0359,0.0,0.0,0.0,0.0,0.0,0.0,0.0,0.0,-1.3712,-1.458,-1.5297,-1.5381,-1.5178,-1.5091,-1.5809,-1.5995,-1.6186,-1.6965,-1.7206,-1.7042,-1.6279,-1.8039,-1.9671,-1.9067,-1.8434,-1.7908,-1.7581,-1.6376,-1.5592,-1.6055,-1.4922,-1.3639,-1.2663,-1.2045,-1.1344,-1.0405,-1.0283,-1.0283,-1.0283,-0.9359,-0.8756,-0.872,-0.796,-0.7514,-0.7469,-0.8024,-0.7719,-0.6382,-0.6458,-0.5943,-0.4767,-0.4551,-0.4505,-0.457,-0.4517,-0.4517,-0.4517,-0.4517,-0.3678,-0.212,-0.0615,0.0,0.0056,0.0783,0.1507,0.2286,0.301,0.379,0.4517,0.4517,0.4517,0.4517,0.0,0.0,0.0,0.0,0.0,0.0,0.0,0.0,0.0,0.0,0.0,0.0,0.0,0.0,0.0,0.0,0.0,0.0,0.0,0.0,-1.0227,-1.0304,-0.9468,-0.8999,-0.9,-0.9187,-0.9703,-1.0583,-1.188,-1.2199,-1.1622,-1.3312,-1.3398,-1.22,-1.3506,-1.4202,-1.4412,-1.4895,-1.4672,-1.3927,-1.3088,-1.221,-1.1299,-1.0422,-1.0085,0.0,0.0,0.0,0.0,0.0,0.0,0.0,-1.2795,-1.3683,-1.4506,-1.5205,-1.5307,-1.5236,-1.5306,-1.5988,-1.6704,-1.6792,-1.8002,-1.9029,-1.8454,-1.8547,-1.8261,-1.6521,-1.751,-1.8181,-1.6509,-1.6352,-1.6125,-1.5066,-1.4359,-1.3455,-1.2164,-1.1856,-1.1405,-1.0409,-1.0283,-1.0283,-1.0283,-0.9716,-0.9159,-0.8716,-0.8139,-0.7592,-0.7118,-0.7465,-0.7564,-0.7228,-0.6487,-0.6303,-0.6691,-0.5078,-0.4615,-0.5271,-0.4732,-0.4517,-0.4517,-0.4517,-0.3678,-0.212,-0.0615,0.0,0.0056,0.0783,0.1507,0.2286,0.301,0.379,0.4517,0.4517,0.4517,0.4517,0.0,0.0,0.0,0.0,0.0,0.0,0.0,0.0,0.0,0.0,0.0,0.0,0.0,0.0,0.0,0.0,0.0,0.0,0.0,0.0,0.0,-0.969,-0.9246,-0.9002,-0.8997,-0.8997,-0.9424,-1.0302,-1.1587,-1.1988,-1.1576,-1.2868,-1.3011,-1.2202,-1.269,-1.3349,-1.4099,-1.4139,-1.4353,-1.4597,-1.3755,-1.3134,-1.2604,-1.1725,-1.1134,-1.0774,-1.0768,0.0,0.0,0.0,0.0,0.0,0.0,0.0,-1.3638,-1.448,-1.4657,-1.4739,-1.5479,-1.6319,-1.7124,-1.7672,-1.8672,-1.939,-1.8914,-1.8424,-1.772,-1.6459,-1.6857,-1.7065,-1.6005,-1.5884,-1.5732,-1.4925,-1.4278,-1.3536,-1.2549,-1.2079,-1.151,-1.0725,-1.0428,-1.0283,-1.0283,-0.9602,-0.8999,-0.872,-0.7942,-0.7321,-0.7021,-0.7345,-0.7373,-0.7003,-0.6495,-0.6207,-0.6152,-0.4878,-0.4441,-0.4889,-0.4645,-0.4517,-0.4462,-0.4125,-0.3343,-0.212,-0.1006,-0.0336,0.0056,0.0392,0.1006,0.173,0.2509,0.3233,0.3956,0.4349,0.4517,0.4517,0.0,0.0,0.0,0.0,0.0,0.0,0.0,0.0,0.0,0.0,0.0,0.0,0.0,0.0,0.0,0.0,0.0,0.0,0.0,0.0,0.0,0.0,-0.8857,-0.8847,-0.9,-0.8856,-0.9274,-1.0304,-1.1016,-1.1347,0.0,-1.2184,-1.2506,-1.2352,-1.1827,-1.2372,-1.364,-1.3214,-1.3769,-1.4897,-1.4328,-1.4014,-1.3798,-1.3072,-1.2347,-1.1721,-1.1717,-1.1163,-1.0415,-1.0418,0.0,0.0,0.0,0.0,-1.2733,-1.3537,-1.3701,-1.3948,-1.5486,-1.6394,-1.7238,-1.8547,-1.8911,-1.8886,-1.8708,-1.8118,-1.7541,-1.7252,-1.651,-1.5877,-1.5799,-1.5485,-1.5195,-1.5104,-1.447,-1.3802,-1.3202,-1.2336,-1.1584,-1.1051,-1.0577,-1.0283,-1.0283,-0.9478,-0.8918,-0.8716,-0.7807,-0.7227,-0.7024,-0.7328,-0.7193,-0.6526,-0.6378,-0.5859,-0.492,-0.4439,-0.4233,-0.4441,-0.446,-0.4517,-0.4462,-0.3847,-0.3066,-0.2175,-0.1396,-0.0671,0.0,0.0,0.0448,0.1173,0.1898,0.2675,0.3399,0.4181,0.4517,0.4517,0.0,0.0,0.0,0.0,0.0,0.0,0.0,0.0,0.0,0.0,0.0,0.0,0.0,0.0,0.0,0.0,0.0,0.0,0.0,0.0,0.0,-0.9033,-0.8281,-0.8231,-0.8981,-0.8257,-0.8675,-1.0304,-1.042,0.0,0.0,0.0,0.0,-1.0663,-1.1308,-1.1716,-1.2015,-1.3359,-1.362,-1.32,-1.384,-1.365,-1.296,-1.2842,-1.2726,-1.2635,-1.2625,-1.2068,-1.1324,-1.1334,-1.0896,0.0,0.0,0.0,-1.1828,-1.2639,-1.2855,-1.3057,-1.4039,-1.5255,-1.6577,-1.8024,-1.813,-1.8088,-1.8778,-1.8075,-1.7244,-1.7196,-1.6684,-1.6136,-1.5856,-1.5741,-1.558,-1.5165,-1.4721,-1.4115,-1.323,-1.2336,-1.1584,-1.1051,-1.0577,-1.0283,-1.0283,-1.0162,-0.9721,-0.876,-0.8553,-0.8054,-0.7063,-0.7032,-0.7052,-0.6908,-0.5969,-0.5316,-0.5013,-0.4335,-0.4485,-0.5343,-0.4778,-0.4517,-0.4517,-0.4406,-0.3566,-0.2175,-0.1396,-0.0671,0.0,0.0,0.0448,0.1173,0.1898,0.2675,0.3399,0.4181,0.4517,0.4517,0.0,0.0,0.0,0.0,0.0,0.0,0.0,0.0,0.0,0.0,0.0,0.0,0.0,0.0,0.0,0.0,0.0,0.0,0.0,0.0,0.0,-0.9745,-0.8896,-0.8836,-0.9711,-0.8873,-0.904,-1.0298,0.0,0.0,0.0,-1.069,-1.0674,0.0,0.0,0.0,-1.1646,-1.2389,-1.3024,-1.3559,-1.3948,-1.416,-1.4264,-1.4264,-1.3947,-1.3531,-1.3531,-1.297,-1.223,-1.2235,-1.1974,-1.1715,-1.2028,0.0,0.0,0.0,-1.3427,-1.3706,-1.4949,-1.5799,-1.6548,-1.7496,-1.7519,-1.7495,-1.8215,-1.745,-1.6548,-1.6398,-1.5877,-1.5543,-1.576,-1.5491,-1.5315,-1.5455,-1.4944,-1.436,-1.3933,-1.2816,-1.1923,-1.1698,-1.0862,-1.0157,-0.9707,-0.9301,-0.8857,-0.8415,-0.7972,-0.7516,-0.7021,-0.6979,-0.6807,-0.6416,-0.5048,-0.4449,-0.4683,-0.4245,-0.4321,-0.495,-0.4625,-0.4517,-0.4462,-0.4013,-0.3233,-0.2175,-0.1841,-0.1062,0.0,0.0,0.0168,0.056,0.1285,0.1786,0.2231,0.3399,0.3846,0.3901,0.0,0.0,0.0,0.0,0.0,0.0,0.0,0.0,0.0,0.0,0.0,0.0,0.0,0.0,0.0,0.0,0.0,0.0,0.0,0.0,0.0,-1.0292,-0.9463,-0.9412,-1.0275,-0.945,-0.9423,0.0,0.0,0.0,-0.997,-0.9966,-0.9972,0.0,-1.0203,-1.066,0.0,-1.1738,-1.2646,-1.3827,-1.4263,-1.4818,-1.5404,-1.5397,-1.4998,-1.4425,-1.4432,-1.3866,-1.3133,-1.3111,-1.2969,-1.2788,-1.272,-1.2746,0.0,0.0,0.0,-1.4251,-1.5405,-1.5936,-1.629,-1.6895,-1.6878,-1.6838,-1.7286,-1.6475,-1.556,-1.5254,-1.4496,-1.4151,-1.4895,-1.4909,-1.4947,-1.5469,-1.4966,-1.4501,-1.4501,-1.3091,-1.2134,-1.2194,-1.0912,-0.9755,-0.9146,-0.8329,-0.7837,-0.7837,-0.7308,-0.6979,-0.6979,-0.6979,-0.6761,-0.6201,-0.4872,-0.4296,-0.4568,-0.4177,-0.4151,-0.4409,-0.4409,-0.4409,-0.4407,-0.3799,-0.3014,-0.2123,-0.1994,-0.1173,0.0,0.0,0.0,0.0056,0.0839,0.1118,0.1229,0.2564,0.3121,0.3399,0.0,0.0,0.0,0.0,0.0,0.0,0.0,0.0,0.0,0.0,0.0,0.0,0.0,0.0,-0.8534,-0.7799,0.0,0.0,0.0,0.0,0.0,-1.0256,-0.9464,0.0,-1.0275,-0.9448,-0.9428,0.0,0.0,0.0,-0.9072,-0.9071,-0.9066,-0.9105,-0.9927,-1.0329,-1.0478,0.0,-1.2879,-1.3095,-1.4688,-1.5362,-1.5397,-1.5399,-1.5366,-1.5328,-1.5332,-1.4774,-1.4021,-1.3956,-1.3432,-1.2792,-1.2723,-1.2752,-1.2801,0.0,0.0,0.0,-1.4101,-1.4637,-1.5362,-1.6151,-1.6157,-1.5973,-1.5998,-1.5168,-1.4285,-1.3891,-1.2582,-1.1783,-1.276,-1.3967,-1.4805,-1.4842,-1.465,-1.4501,-1.4501,-1.2938,-1.1903,-1.2164,-1.0469,-0.9106,-0.8756,-0.7724,-0.7059,-0.7059,-0.7021,-0.6979,-0.6979,-0.6979,-0.6979,-0.6937,-0.6201,-0.5517,-0.4965,-0.4347,-0.405,-0.4205,-0.4205,-0.4205,-0.4205,-0.4154,-0.3343,-0.198,-0.1413,-0.0727,0.0,0.0,0.0,0.0056,0.0839,0.1118,0.1173,0.1953,0.2675,0.3288,0.0,0.0,0.0,0.0,0.0,0.0,0.0,0.0,0.0,0.0,0.0,0.0,0.0,-0.692,-0.677,-0.7538,-0.8438,0.0,0.0,0.0,0.0,-1.0292,-1.0005,-0.9983,-1.0285,-0.9991,0.0,0.0,0.0,-1.0139,-0.9832,-0.9832,-0.9834,-0.9823,-0.9573,-1.0094,-1.1143,-1.12,-1.2176,-1.3719,-1.4316,-1.5205,-1.624,-1.6836,-1.7019,-1.6951,-1.6989,-1.644,-1.5623,-1.5028,-1.4268,-1.3479,-1.2927,-1.314,-1.3683,-1.4213,-1.456,-1.4772,-1.4767,-1.4957,-1.5098,-1.4829,-1.4827,-1.4816,-1.4603,-1.3859,-1.3137,-1.2911,-1.2045,-1.1301,-1.1271,-1.2312,-1.3337,-1.3774,-1.3841,-1.373,-1.3403,-1.2303,-1.1653,-1.1925,-0.9759,-0.807,-0.7643,-0.735,-0.7339,-0.7694,-0.7266,-0.6979,-0.6979,-0.6979,-0.668,-0.5947,-0.5647,-0.5048,-0.4129,-0.4322,-0.4338,-0.4051,-0.4051,-0.4051,-0.4051,-0.3178,-0.2496,-0.1965,-0.0881,-0.0266,0.0,0.0,0.0,0.0,0.028,0.0392,0.0504,0.1229,0.1953,0.2675,0.0,0.0,0.0,0.0,0.0,0.0,0.0,0.0,0.0,0.0,0.0,0.0,0.0,0.0,-0.6103,-0.7516,-0.794,-0.8605,-0.9721,-0.9842,-0.9994,-1.0291,-1.0303,-1.0302,-1.0297,0.0,0.0,0.0,0.0,0.0,0.0,-0.9866,-1.0023,-1.0271,-0.9697,-1.0078,0.0,-1.1148,-1.2134,-1.3767,-1.46,-1.5444,-1.6305,-1.7209,-1.7492,-1.7399,-1.7455,-1.7239,-1.6846,-1.6272,-1.5554,-1.4801,-1.4174,-1.4191,-1.4551,-1.5096,-1.5226,-1.5196,-1.52,-1.5203,-1.5061,-1.4475,-1.4219,-1.4019,-1.373,-1.284,-1.196,-1.1603,-1.1129,-1.071,-1.0437,-1.1099,-1.1933,-1.2692,-1.2948,-1.2894,-1.2417,-1.1597,-1.1054,-1.105,-0.9164,-0.7754,-0.7444,-0.7349,-0.7489,-0.7982,-0.7637,-0.7266,-0.7021,-0.6979,-0.6634,-0.5907,-0.53,-0.4744,-0.4186,-0.4256,-0.4215,-0.3943,-0.3943,-0.3943,-0.3894,-0.281,-0.2155,-0.1889,-0.0787,-0.0204,0.0,0.0,0.0,0.0,0.0,0.0,0.0056,0.056,0.1341,0.2286,0.0,0.0,0.0,0.0,0.0,0.0,0.0,0.0,0.0,0.0,0.0,0.0,0.0,0.0,0.0,-0.7663,-0.6968,-0.7209,-0.8922,-0.9042,-0.9414,-1.0262,0.0,0.0,0.0,0.0,0.0,0.0,0.0,0.0,0.0,0.0,-0.949,-1.0305,-1.0302,-1.0305,-1.0408,-1.2093,-1.2855,-1.3149,-1.5595,-1.613,-1.5572,-1.6444,-1.6747,-1.6712,-1.671,-1.7112,-1.7643,-1.7611,-1.7156,-1.6572,-1.6284,-1.5753,-1.525,-1.5211,-1.5205,-1.52,0.0,0.0,0.0,-1.5141,-1.4402,-1.362,-1.3359,-1.2105,-1.0753,-0.9985,-0.9818,-0.9926,-1.0315,-1.0403,-1.0688,-1.1663,-1.2007,-1.2036,-1.1673,-1.0861,-1.0092,-0.9626,-0.8736,-0.8189,-0.8241,-0.7592,-0.7392,-0.7833,-0.8002,-0.7747,-0.7063,-0.7024,-0.6979,-0.6937,-0.5336,-0.4694,-0.5262,-0.4186,-0.3694,-0.3785,-0.3785,-0.3783,-0.3738,-0.3122,-0.2455,-0.1744,-0.112,-0.0546,0.0,0.0,0.0,0.0,0.0,0.0,0.0,0.0,0.0951,0.2175,0.0,0.0,0.0,0.0,0.0,0.0,0.0,0.0,0.0,0.0,0.0,0.0,0.0,0.0,-0.7689,-0.856,-0.8416,-0.875,-0.9864,-0.9941,-1.005,-1.0289,-1.0298,-1.0302,0.0,0.0,0.0,0.0,0.0,0.0,0.0,0.0,0.0,0.0,-1.03,-1.0303,-1.0408,-1.2091,-1.3167,-1.3877,-1.5203,-1.6318,-1.7294,-1.8182,-1.8828,-1.9282,-1.9278,-1.8987,-1.8503,-1.7774,-1.6266,-1.4566,-1.3896,-1.3975,-1.4414,-1.5017,-1.5199,-1.5201,-1.5205,0.0,0.0,0.0,0.0,0.0,-1.1438,-1.0894,-1.061,-1.0241,-0.9973,-0.9849,-1.0008,-1.0046,-1.0014,-0.9957,-1.0607,-1.0932,-1.0386,-0.9794,-0.928,-0.8863,-0.8234,-0.7653,-0.7194,-0.7043,-0.7153,-0.7523,-0.7216,-0.7203,-0.7644,-0.7234,-0.6634,-0.5776,-0.5599,-0.5043,-0.41,-0.4136,-0.3987,-0.3637,-0.3637,-0.3406,-0.299,-0.2359,-0.176,-0.1119,-0.0499,-0.0141,0.0,0.0,0.0,0.0,0.0,0.0,0.0,0.0,0.0951,0.2175,0.0,0.0,0.0,0.0,0.0,0.0,-0.8002,0.0,0.0,0.0,0.0,0.0,0.0,0.0,-0.8055,-0.8926,-0.9002,-0.9373,-1.0244,-1.0303,-1.0304,-1.0297,-1.0299,-1.0296,-1.0299,0.0,0.0,0.0,0.0,0.0,0.0,0.0,0.0,0.0,0.0,0.0,-1.1407,-1.2391,-1.3087,-1.3699,-1.5302,-1.6532,-1.7531,-1.8736,-1.9451,-1.9802,-1.9766,-1.9392,-1.887,-1.8555,-1.7044,-1.5177,-1.4532,-1.4361,-1.4512,-1.5037,-1.5176,-1.5158,-1.5197,-1.4909,-1.437,-1.3348,0.0,0.0,-1.1232,-1.074,-1.0557,-1.086,-0.9461,-0.8174,-0.8214,-0.8036,-0.8227,-0.9305,-0.9818,-0.987,-0.9251,-0.8944,-0.8619,-0.8218,-0.7749,-0.7366,-0.7173,-0.6837,-0.6815,-0.7213,-0.674,-0.6693,-0.7323,-0.67,-0.6121,-0.5698,-0.5176,-0.4613,-0.3921,-0.4007,-0.3922,-0.358,-0.3352,-0.3034,-0.2673,-0.1829,-0.1251,-0.085,-0.0269,0.0,0.0,0.0,0.0,0.0,0.0,0.0,0.0,0.0,0.0951,0.2175,0.0,0.0,0.0,-0.8588,-0.864,-0.8701,-0.8698,-0.8024,-0.7537,0.0,0.0,0.0,0.0,0.0,0.0,0.0,-0.9145,-0.9474,-1.0251,-1.0303,-1.0303,-1.0299,-1.0299,-1.0301,-1.0304,-1.0299,0.0,0.0,0.0,0.0,0.0,0.0,0.0,0.0,0.0,0.0,0.0,-1.2658,-1.2753,-1.3115,-1.5571,-1.6672,-1.7012,-1.8587,-1.9207,-1.9226,-1.9169,-1.9068,-1.903,-1.9413,-1.8557,-1.7243,-1.6612,-1.5921,-1.5319,-1.5229,-1.5213,-1.5216,-1.5188,-1.4498,-1.3758,-1.366,-1.2293,0.0,-1.1719,-1.0994,-1.0375,-1.0998,-0.8379,-0.5921,-0.5735,-0.5533,-0.634,-0.9195,-0.9385,-0.8966,-0.8439,-0.8388,-0.8218,-0.7691,-0.7348,-0.7246,-0.7479,-0.6713,-0.6348,-0.6743,-0.6382,-0.6238,-0.6481,-0.57,-0.5481,-0.5865,-0.4432,-0.3878,-0.4303,-0.3836,-0.358,-0.358,-0.2988,-0.2673,-0.254,-0.1429,-0.085,-0.0761,-0.0224,0.0,0.0,0.0,0.0,0.0,0.0,0.0,0.0,0.0,0.0951,0.2175,0.0,0.0,0.0,-0.7852,-0.8268,-0.8703,-0.8694,-0.8064,0.0,0.0,0.0,0.0,0.0,0.0,0.0,0.0,-1.0053,-1.012,-1.0291,-1.0296,-1.0303,-1.0296,-1.0303,-1.0303,-1.0297,-1.0304,0.0,0.0,0.0,0.0,0.0,0.0,0.0,0.0,0.0,0.0,0.0,-1.1749,-1.2439,-1.3653,-1.5079,-1.6464,-1.7772,-1.8747,-1.9511,-2.0058,-2.0048,-2.0025,-1.9802,-1.8412,-1.8076,-1.7888,-1.5872,-1.595,-1.6574,-1.5512,-1.5572,-1.586,-1.5286,-1.4432,-1.3539,-1.2787,-1.1666,0.0,-0.9868,-0.9638,-0.907,-0.7267,-0.6664,-0.6047,-0.4699,-0.6348,-0.7973,-0.8178,-0.8593,-0.8845,-0.8706,-0.8925,-0.8623,-0.7379,-0.7338,-0.6982,-0.5813,-0.5515,-0.5422,-0.5456,-0.5578,-0.5678,-0.58,-0.5389,-0.4767,-0.3908,-0.4126,-0.4092,-0.3751,-0.3667,-0.358,-0.358,-0.2988,-0.2451,-0.1962,-0.1251,-0.0627,-0.018,-0.0045,0.0,0.0,0.0,0.0,0.0,0.0,0.0,0.0,0.0,0.0951,0.2175,0.0,0.0,-0.8625,-0.8217,-0.8815,-0.9357,-0.9391,-0.9088,0.0,0.0,0.0,0.0,0.0,0.0,0.0,0.0,0.0,0.0,-1.0304,-1.0302,-1.0299,-1.0299,-1.0274,-1.045,-1.0891,-1.0899,-1.111,0.0,0.0,0.0,0.0,0.0,0.0,0.0,0.0,0.0,0.0,-1.0902,-1.2059,-1.4018,-1.5426,-1.6941,-1.8447,-1.9347,-1.9951,-2.0302,-2.0302,-2.0241,-1.9923,-1.8402,-1.8212,-1.8434,-1.7524,-1.7339,-1.7234,-1.6117,-1.6036,-1.6119,-1.5324,-1.4382,-1.3508,-1.29,-1.1615,0.0,0.0,-0.8903,-0.843,-0.6912,-0.687,-0.6845,-0.5996,-0.7091,-0.8062,-0.7958,-0.8344,-0.8624,-0.8525,-0.8728,-0.8799,-0.8492,-0.7482,-0.6285,-0.4935,-0.4862,-0.4804,-0.4585,-0.48,-0.4973,-0.5002,-0.4547,-0.4139,-0.3762,-0.3908,-0.388,-0.3624,-0.358,-0.358,-0.358,-0.2677,-0.2096,-0.1785,-0.085,-0.0269,0.0,0.0,0.0,0.0,0.0,0.0,0.0,0.0,0.0,0.0,0.0,0.0936,0.2175,-0.767,0.0,-0.8819,-0.8815,-0.9488,-1.0037,-1.009,-1.0113,0.0,0.0,0.0,0.0,0.0,-1.0677,-1.0786,0.0,0.0,0.0,-1.0802,-1.0786,-1.0783,-1.0783,-1.0732,-1.1032,-1.1737,-1.1755,-1.2098,-1.2803,0.0,0.0,0.0,0.0,0.0,0.0,0.0,0.0,0.0,-1.0586,-1.1855,-1.4017,-1.5913,-1.736,-1.8501,-1.9638,-2.006,-2.0069,-2.0244,-2.0197,-1.9888,-1.8774,-1.8641,-1.8982,-1.9143,-1.8684,-1.788,-1.6735,-1.6474,-1.6346,-1.5314,-1.4278,-1.343,-1.3115,-1.1688,-1.0115,0.0,0.0,0.0,-0.7865,-0.7776,-0.7792,-0.7785,-0.7785,-0.7836,-0.802,-0.8298,-0.8274,-0.763,-0.8011,-0.8557,-0.9106,-0.7303,-0.5643,-0.4648,-0.479,-0.468,-0.4056,-0.4249,-0.4308,-0.4076,-0.3477,-0.3363,-0.3818,-0.3565,-0.3448,-0.3536,-0.3566,-0.358,-0.358,-0.2366,-0.1785,-0.174,-0.0538,0.0,0.0,0.0,0.0,0.0,0.0,0.0,0.0,0.0,0.0,0.0,0.0,0.0928,0.2175,-0.7906,-0.8298,0.0,-0.8889,-0.956,-1.0088,-1.0097,-1.0154,0.0,0.0,0.0,0.0,-1.1364,-1.2048,-1.2535,-1.2595,-1.2554,-1.2543,-1.26,-1.2551,-1.2522,-1.2519,-1.2513,-1.2554,-1.2654,-1.2654,-1.2701,-1.2799,0.0,0.0,0.0,0.0,0.0,0.0,-1.0652,-1.0732,-1.1381,-1.1621,-1.2187,-1.3177,-1.587,-1.6914,-1.7022,-1.8628,-1.9204,-1.9251,-2.0021,-2.0294,-2.0107,-1.9091,-1.9239,-1.9602,-1.8191,-1.8583,-1.9148,-1.7019,-1.6775,-1.6847,-1.5189,-1.3968,-1.3052,-1.2609,-1.1517,-1.041,-0.983,0.0,-0.8957,-0.8781,0.0,-0.8492,-0.8478,0.0,0.0,-0.7963,-0.8201,-0.7662,-0.5487,-0.6732,-0.7635,-0.6965,-0.6202,-0.5569,-0.5146,-0.5758,-0.5596,-0.4118,-0.4289,-0.4024,-0.2952,-0.2211,-0.1991,-0.243,-0.2664,-0.2958,-0.3333,-0.351,-0.358,-0.358,-0.2366,-0.1785,-0.174,-0.0538,0.0,0.0,0.0,0.0,0.0,0.0,0.0,0.0,0.0,0.0,0.0,0.0,0.0947,0.2175,-0.9256,-0.9407,0.0,0.0,-0.9935,-1.0154,-1.0157,-1.0605,0.0,0.0,0.0,-1.2061,-1.1562,-1.2283,-1.2619,-1.2176,-1.2577,-1.2852,-1.2836,-1.2817,-1.2805,-1.28,-1.28,-1.3043,-1.3542,-1.3547,-1.3798,-1.4315,-1.4309,0.0,0.0,0.0,0.0,0.0,-1.036,-1.0419,-1.0849,-1.159,-1.2788,-1.4238,-1.4801,-1.5752,-1.6986,-1.8297,-1.9207,-1.9798,-2.0167,-2.0302,-2.0236,-1.9811,-1.989,-2.0054,-1.9343,-1.9198,-1.8992,-1.7528,-1.6827,-1.6249,-1.4888,-1.4563,-1.4296,-1.2961,-1.2322,-1.1641,-1.0272,-0.9359,-0.8772,-0.8629,0.0,0.0,0.0,0.0,0.0,0.0,-0.7546,-0.7113,-0.61,-0.6828,-0.6786,-0.5037,-0.5341,-0.5499,-0.4957,-0.5103,-0.5059,-0.4655,-0.3867,-0.2945,-0.1958,-0.1194,-0.0977,-0.1444,-0.2173,-0.2693,-0.2933,-0.3287,-0.3535,-0.358,-0.2366,-0.1785,-0.174,-0.0538,0.0,0.0,0.0,0.0,0.0,0.0,0.0,0.0,0.0,0.0,0.0,0.0,0.0934,0.2175,-1.0204,0.0,0.0,-1.0199,-1.0202,-1.0278,-1.0524,-1.1086,-1.1586,-1.1831,-1.239,-1.2544,-1.1924,-1.2625,-1.2919,-1.2337,-1.3082,-1.3561,-1.3522,-1.3512,-1.3512,-1.3513,-1.351,-1.3808,-1.4442,-1.4455,-1.4769,-1.5401,-1.5397,-1.5085,0.0,0.0,0.0,0.0,-1.0427,-1.0255,-1.0383,-1.1603,-1.2794,-1.3865,-1.3995,-1.4491,-1.5424,-1.7723,-1.9309,-2.0302,-2.0302,-2.0302,-2.0302,-2.0302,-2.0302,-2.0264,-2.0021,-1.9599,-1.9025,-1.8161,-1.7264,-1.6317,-1.5264,-1.5175,-1.4982,-1.3415,-1.2786,-1.2134,-1.0523,-0.95,-0.8848,-0.8632,-0.8551,0.0,0.0,0.0,-0.838,-0.769,0.0,-0.7078,-0.6902,-0.6956,-0.6334,-0.4497,-0.5151,-0.5444,-0.465,-0.4827,-0.486,-0.4548,-0.3355,-0.2195,-0.1195,-0.0277,-0.0071,-0.0635,-0.1621,-0.2302,-0.2634,-0.3204,-0.3512,-0.358,-0.2366,-0.1785,-0.174,-0.0538,0.0,0.0,0.0,0.0,0.0,0.0,0.0,0.0,0.0,0.0,0.0,0.0,0.0876,0.2008,-1.0205,-1.0197,0.0,-1.0201,-1.0201,-1.0482,-1.1331,-1.148,-1.1796,-1.2645,-1.273,-1.2717,-1.2747,-1.354,-1.4046,-1.4022,-1.4824,-1.5322,-1.5322,-1.5322,-1.5321,-1.5324,-1.5315,-1.5326,-1.5363,-1.5358,-1.5368,-1.5399,-1.5403,-1.5389,0.0,0.0,0.0,0.0,-1.1016,-1.0302,-1.0405,-1.1997,-1.1821,-1.0726,-1.3877,-1.3289,-1.1108,-1.6541,-1.9309,-2.0302,-2.0302,-2.0302,-2.0302,-2.0302,-2.0302,-2.0148,-1.9312,-1.9467,-1.9783,-1.8926,-1.8322,-1.7715,-1.6702,-1.5515,-1.4383,-1.3751,-1.2505,-1.1254,-1.0461,-0.9976,-0.955,-0.917,-0.9062,-0.9023,-0.8826,-0.9006,-0.8878,-0.7938,-0.7882,0.0,0.0,-0.6753,-0.6396,-0.606,-0.5937,-0.5453,-0.4326,-0.5562,-0.55,-0.3251,-0.2836,-0.2111,-0.0798,0.0535,0.0871,0.0,-0.0739,-0.1597,-0.2508,-0.3212,-0.3575,-0.358,-0.2366,-0.1785,-0.174,-0.0538,0.0,0.0,0.0,0.0,0.0,0.0,0.0,0.0,0.0,0.0,0.0,0.0,0.0671,0.1565,-1.02,0.0,-1.0882,-1.0298,-1.0679,-1.135,-1.2232,-1.285,-1.3332,-1.3616,-1.4137,-1.4283,-1.3715,-1.4445,-1.4734,-1.4147,-1.4902,-1.54,-1.54,-1.54,-1.5664,-1.6239,-1.571,-1.5673,-1.6249,-1.5703,-1.5395,-1.5404,-1.5398,-1.5397,0.0,0.0,0.0,0.0,-1.1314,-1.03,-1.0407,-1.2024,-1.3028,-1.3846,-1.7214,-1.6609,-1.3126,-0.8173,-1.2151,-2.0369,-2.0369,-2.0372,-2.0369,-2.0376,-2.0369,-2.0312,-1.9973,-1.9617,-1.9351,-1.9408,-1.8342,-1.7189,-1.7364,-1.7067,-1.6193,-1.4059,-1.3564,-1.2928,-1.0483,-0.9516,-0.9072,-0.8765,-0.875,-0.8744,-0.8671,-0.9035,-0.9103,-0.8381,-0.8299,-0.8063,0.0,-0.6734,-0.6385,-0.6254,-0.5878,-0.5361,-0.4669,-0.5588,-0.5305,-0.3037,-0.2725,-0.1897,-0.021,0.0775,0.1237,0.1059,-0.0565,-0.1639,-0.2029,-0.295,-0.3478,-0.358,-0.2765,-0.2406,-0.2363,-0.1563,-0.0984,-0.0582,-0.0582,-0.0359,0.0,0.0,0.0,0.0,0.0,0.0,0.0,0.0,0.0811,0.2217,-1.1062,-1.1336,-1.1227,-1.0352,-1.0662,-1.1441,-1.2617,-1.3277,-1.3752,-1.4059,-1.459,-1.4717,-1.4159,-1.4599,-1.4714,-1.4148,-1.4902,-1.54,-1.54,-1.5693,-1.6113,-1.668,-1.6464,-1.6592,-1.7146,-1.6307,-1.5859,-1.5859,-1.5554,-1.5403,-1.5394,0.0,0.0,0.0,-1.2377,-1.1145,-1.0292,-1.0085,-0.9914,-1.0411,-1.7465,-1.8335,-1.4669,-0.8007,-1.1302,-1.9557,-2.0183,-2.0421,-2.0445,-2.0439,-2.0421,-2.0386,-2.0317,-1.9882,-1.95,-2.0057,-1.8918,-1.7636,-1.8525,-1.7988,-1.6659,-1.4398,-1.354,-1.2556,-0.9744,-0.8577,-0.8099,-0.8095,-0.8074,-0.8229,-0.8652,-0.8982,-0.9044,-0.8564,-0.844,-0.8111,0.0,-0.6874,-0.6575,-0.6363,-0.5922,-0.5431,-0.4853,-0.525,-0.4722,-0.2745,-0.2102,-0.1165,0.0278,0.1531,0.206,0.1737,0.0077,-0.1115,-0.1799,-0.2802,-0.3385,-0.358,-0.2726,-0.233,-0.2363,-0.1518,-0.0939,-0.0583,-0.0583,-0.0359,0.0,0.0,0.0,0.0,0.0,0.0,0.0046,0.0252,0.126,0.282,-1.257,-1.2069,-1.1265,-1.0522,-1.0355,-1.0892,-1.2597,-1.2894,-1.3209,-1.4049,-1.4161,-1.4163,-1.4158,-1.4159,-1.416,-1.416,-1.4922,-1.542,-1.5459,-1.624,-1.6738,-1.6816,-1.7578,-1.8018,-1.8057,-1.7205,-1.6743,-1.6702,-1.5869,-1.5435,-1.5402,0.0,0.0,0.0,-1.4115,-1.2775,-1.0313,-0.6654,-0.3125,-0.1135,-1.4089,-1.7436,-1.4688,-1.5205,-1.6399,-1.7994,-1.9393,-2.0162,-2.05,-2.0504,-2.0464,-2.0401,-2.0328,-2.0212,-2.0227,-2.0823,-1.9967,-1.9022,-2.0048,-1.8276,-1.5853,-1.467,-1.2525,-1.0239,-0.8351,-0.7289,-0.6789,-0.7124,-0.719,-0.7567,-0.8689,-0.8859,-0.8728,-0.8517,-0.8325,-0.7924,-0.7197,-0.7111,-0.6922,-0.6435,-0.6128,-0.5641,-0.488,-0.4589,-0.3823,-0.2355,-0.106,-0.0062,0.056,0.2548,0.3143,0.1993,0.0985,-0.0289,-0.1879,-0.2842,-0.3422,-0.3566,-0.2262,-0.1708,-0.1774,-0.0625,-0.009,-0.0045,-0.0045,-0.0045,0.0,0.0,0.0,0.0,0.0,0.0045,0.0181,0.0734,0.1852,0.3304,-1.1786,-1.1654,-1.1825,-1.2849,-1.2449,-1.2372,-1.3521,-1.4159,-1.4627,-1.4946,-1.4989,-1.5015,-1.5057,-1.5068,-1.5068,-1.5068,-1.5273,-1.5674,-1.6318,-1.6582,-1.7275,-1.8584,-1.8232,-1.8301,-1.8945,-1.8105,-1.7353,-1.6699,-1.6484,-1.6034,-1.5402,0.0,0.0,0.0,-1.4387,-1.41,-1.37,-0.7662,-0.3125,-0.0308,-0.3808,-0.471,-0.4792,-1.2477,-1.6458,-1.7495,-1.4111,-1.6205,-2.0572,-2.0566,-2.0555,-2.0527,-2.0412,-2.028,-2.0281,-2.084,-1.9967,-1.9057,-2.0281,-1.8764,-1.6364,-1.4294,-1.2568,-1.054,-0.7255,-0.6505,-0.6299,-0.5723,-0.6495,-0.737,-0.7609,-0.8271,-0.8704,-0.8455,-0.8142,-0.7733,-0.7243,-0.7073,-0.6828,-0.6249,-0.6241,-0.5891,-0.4888,-0.4075,-0.3448,-0.305,-0.151,-0.0302,0.0406,0.159,0.1905,0.1205,-0.0337,-0.179,-0.3032,-0.3665,-0.3816,-0.3512,-0.2681,-0.2122,-0.178,-0.1467,-0.1108,-0.0684,-0.0663,-0.0404,0.0,0.0,0.0,0.0,0.0,0.0538,0.1349,0.161,0.2313,0.3292,-1.3094,-1.2568,-1.2375,-1.3306,-1.3277,-1.3204,-1.3434,-1.4149,-1.468,-1.4731,-1.5061,-1.5309,-1.5355,-1.5383,-1.54,-1.54,-1.54,-1.5605,-1.6103,-1.6494,-1.7139,-1.8115,-1.8057,-1.8232,-1.8721,-1.7881,-1.7187,-1.6702,-1.6316,-1.5879,-1.54,0.0,0.0,0.0,-1.4887,-1.4941,-1.4847,-0.6436,-0.1762,0.0,0.0,0.0,0.0,-0.6458,-1.303,-1.8763,-1.5847,-1.7305,-2.0596,-2.0596,-2.0596,-2.0585,-2.0438,-2.0343,-2.0382,-2.0852,-1.9893,-1.886,-1.9772,-1.8138,-1.5675,-1.3287,-1.1309,-0.9128,-0.5941,-0.4842,-0.443,-0.4193,-0.5045,-0.6024,-0.6761,-0.757,-0.8107,-0.815,-0.784,-0.7462,-0.7111,-0.6846,-0.66,-0.6321,-0.6202,-0.5903,-0.5296,-0.4636,-0.406,-0.36,-0.2271,-0.0982,0.018,0.1512,0.1929,0.1214,0.0084,-0.1237,-0.274,-0.3383,-0.3676,-0.3515,-0.258,-0.2015,-0.1811,-0.153,-0.1089,-0.0505,-0.0791,-0.0538,0.0,0.0,0.0,0.0,0.0,0.0717,0.179,0.1879,0.2547,0.3656,-1.5138,-1.4039,-1.2969,-1.2969,-1.345,-1.364,-1.3052,-1.3764,-1.4341,-1.419,-1.4819,-1.5284,-1.5299,-1.5345,-1.5388,-1.54,-1.54,-1.5449,-1.5557,-1.6279,-1.6748,-1.6865,-1.7598,-1.7998,-1.7998,-1.7256,-1.6813,-1.6702,-1.5935,-1.551,0.0,0.0,0.0,0.0,-1.5397,-1.54,-1.4808,-0.5829,-0.124,0.0,0.0,0.0,0.0,0.0,-0.8017,-1.9364,-2.0282,-2.0596,-2.0596,-2.0596,-2.0596,-2.0585,-2.0438,-2.0387,-2.0436,-2.0717,-1.9691,-1.8537,-1.8793,-1.694,-1.4336,-1.1839,-0.933,-0.6828,-0.4258,-0.2659,-0.1972,-0.2705,-0.3401,-0.4482,-0.6284,-0.7161,-0.7689,-0.7984,-0.7721,-0.7444,-0.7324,-0.6775,-0.6488,-0.6688,-0.6172,0.0,-0.5901,-0.5648,-0.5106,-0.414,-0.3194,-0.1961,-0.0297,0.1494,0.213,0.1414,0.1017,-0.0085,-0.1987,-0.2742,-0.3261,-0.3528,-0.2256,-0.1657,-0.1629,-0.1115,-0.0541,-0.0042,-0.057,-0.0493,0.0,0.0,0.0,0.0,0.0,0.0717,0.1785,0.1785,0.2646,0.3994,-1.5131,-1.4526,-1.3871,-1.3874,-1.3969,-1.3994,-1.382,-1.5002,-1.5709,-1.5149,-1.5155,-1.5243,-1.5291,-1.5307,-1.5345,-1.54,-1.54,-1.5713,-1.6426,-1.6621,-1.7021,-1.7744,-1.792,-1.7998,-1.7998,-1.7852,-1.7422,-1.6698,-1.6554,-1.6098,0.0,0.0,0.0,0.0,-1.54,-1.54,-1.5283,-1.3467,-0.7783,0.0,0.0,0.0,0.0,0.0,-0.5038,-1.285,-1.8564,-2.0596,-2.0596,-2.0596,-2.0596,-2.0585,-2.0438,-2.0319,-2.016,-1.9797,-1.9044,-1.8237,-1.7801,-1.5897,-1.333,-1.0398,-0.7713,-0.4912,-0.153,-0.0549,-0.0548,-0.1318,-0.2794,-0.4685,-0.6907,-0.8658,-0.9639,-0.9278,-0.8833,-0.874,-0.9278,-0.7978,-0.7206,-0.7816,-0.6706,-0.6006,-0.634,-0.5786,-0.5282,-0.4916,-0.4017,-0.288,-0.1493,-0.0334,0.0275,0.0288,-0.0256,-0.1332,-0.3023,-0.3184,-0.3228,-0.3189,-0.244,-0.1661,-0.0879,-0.0802,-0.0475,0.0,-0.013,-0.009,0.0,0.0,0.0,0.0,0.0,0.0717,0.1785,0.1785,0.2602,0.3793,-1.5271,-1.4683,-1.4226,-1.4652,-1.4717,-1.4702,-1.4632,-1.5645,-1.5968,-1.4732,-1.4968,-1.508,-1.4622,-1.5013,-1.5309,-1.535,-1.5378,-1.5576,-1.5996,-1.6025,-1.6211,-1.6631,-1.665,-1.665,-1.665,-1.665,-1.6445,-1.6035,-1.6028,-1.5815,-1.5399,-1.5403,-1.5395,-1.5421,-1.5841,-1.5789,-1.5223,-1.2537,-1.0078,-0.752,-0.2158,0.0,-0.0781,-0.7959,-1.0518,-1.1201,-1.8115,-2.0596,-2.0596,-2.0596,-2.0596,-2.0585,-2.0438,-2.0357,-2.0207,-1.9734,-1.892,-1.7939,-1.7039,-1.5032,-1.2451,-0.9201,-0.6739,-0.4309,-0.127,-0.0278,-0.0223,-0.0946,-0.2453,-0.4514,-0.7494,-0.9019,-0.9826,-0.982,-0.9364,-0.9087,-0.9239,-0.8257,-0.7556,-0.763,-0.6628,-0.6003,-0.618,-0.6156,-0.5902,-0.5397,-0.4567,-0.3695,-0.2897,-0.1403,-0.0587,-0.0685,-0.0756,-0.15,-0.297,-0.3201,-0.3263,-0.3201,-0.263,-0.2086,-0.1605,-0.1302,-0.0912,-0.0449,-0.048,-0.0269,0.0,0.0,0.0,0.0045,0.0359,0.1029,0.1829,0.214,0.2812,0.38,-1.5692,-1.5097,-1.4769,-1.5216,-1.5303,-1.5279,-1.5231,-1.5806,-1.5753,-1.4363,-1.4814,-1.5003,-1.4257,-1.4843,-1.5303,-1.5299,-1.5359,-1.54,-1.54,-1.54,-1.54,-1.54,-1.54,-1.54,-1.54,-1.54,-1.54,-1.5399,-1.5403,-1.5404,-1.5401,-1.5405,-1.5491,-1.5679,-1.6142,-1.6181,-1.5617,-1.1187,-1.0398,-1.1416,-0.3271,-0.1758,-0.5566,-1.6465,-1.7217,-1.3203,-1.8652,-2.0593,-2.0585,-2.0605,-2.0593,-2.0557,-2.0438,-2.0375,-2.0239,-1.9771,-1.8843,-1.7656,-1.6254,-1.4292,-1.1784,-0.8331,-0.6072,-0.4021,-0.1436,-0.0391,-0.0279,-0.117,-0.3087,-0.5457,-0.8078,-0.9437,-1.0114,-1.0043,-0.9721,-0.938,-0.9094,-0.8315,-0.7706,-0.7534,-0.6603,-0.6059,-0.6343,-0.656,-0.6435,-0.5909,-0.5121,-0.4479,-0.41,-0.2407,-0.1354,-0.123,-0.1035,-0.1413,-0.2462,-0.292,-0.318,-0.3214,-0.2811,-0.2564,-0.2424,-0.1829,-0.1285,-0.0882,-0.0747,-0.0448,0.0,-0.0135,-0.0045,0.0224,0.0717,0.1341,0.2051,0.254,0.308,0.3839,-1.6636,-1.6424,-1.6143,-1.5423,-1.5298,-1.5303,-1.5288,-1.5359,-1.533,-1.5112,-1.5151,-1.518,-1.5084,-1.5214,-1.5297,-1.5305,-1.5358,-1.54,-1.54,-1.54,-1.54,-1.54,-1.54,-1.54,-1.54,-1.54,-1.54,-1.54,-1.5401,-1.5405,-1.5402,-1.5402,-1.5792,-1.6464,-1.5806,-1.6277,-1.7441,-1.5442,-0.9499,-0.1357,-0.0391,-0.75,-1.8809,-2.0107,-2.0195,-1.9717,-2.0371,-2.0558,-2.0524,-2.0583,-2.0565,-2.0498,-2.0419,-2.0276,-1.9986,-1.9286,-1.8474,-1.7366,-1.5368,-1.3612,-1.1491,-0.7862,-0.5695,-0.3654,-0.0775,-0.0055,-0.0386,-0.1815,-0.5845,-0.9018,-0.8751,-1.0811,-1.1936,-1.0066,-1.0153,-1.0409,-1.0271,-0.8504,-0.7687,-0.876,-0.7032,-0.6327,-0.7844,-0.6884,-0.6309,-0.6652,-0.5955,-0.5261,-0.4737,-0.3959,-0.2733,-0.0997,-0.1432,-0.1702,-0.1689,-0.2399,-0.2801,-0.2951,-0.3028,-0.2745,-0.2192,-0.1609,-0.1164,-0.0882,-0.0308,-0.0045,-0.0045,-0.0582,-0.0179,0.0806,0.0895,0.1607,0.2629,0.2673,0.308,0.3823,-1.5887,-1.5825,-1.5712,-1.5356,-1.5303,-1.5288,-1.5249,-1.5243,-1.5234,-1.5199,-1.5243,-1.5061,-1.4537,-1.4964,-1.532,-1.5359,-1.5385,-1.5397,-1.54,-1.54,-1.54,-1.54,-1.54,-1.54,-1.54,-1.54,-1.5399,-1.5403,-1.5404,-1.5395,-1.5409,-1.5893,-1.6549,-1.7325,-1.7497,-1.5376,-1.1699,-1.2044,-0.7466,0.0,0.0,-0.8271,-2.0596,-2.0596,-2.0596,-2.0595,-2.0548,-2.0467,-2.0389,-2.0365,-2.034,-2.0335,-2.0386,-1.9963,-1.9333,-1.8849,-1.7622,-1.6163,-1.4952,-1.2979,-1.0629,-0.8153,-0.6515,-0.4973,-0.3065,-0.2638,-0.3068,-0.4473,-0.741,-0.9613,-0.9413,-1.0409,-1.1072,-1.0445,-1.0349,-1.0218,-0.9838,-0.8883,-0.7968,-0.7267,-0.677,-0.652,-0.6641,-0.6712,-0.6832,-0.7017,-0.634,-0.5386,-0.4202,-0.3798,-0.3208,-0.2245,-0.228,-0.2479,-0.2792,-0.2977,-0.3053,-0.3035,-0.3055,-0.2973,-0.2694,-0.1875,-0.1089,-0.035,-0.049,-0.0314,0.0,-0.0268,0.0134,0.0984,0.1696,0.2492,0.3241,0.3595,0.4085,0.4716,-1.5694,-1.5723,-1.5651,-1.5284,-1.524,-1.524,-1.5152,-1.5168,-1.5199,-1.5199,-1.5263,-1.507,-1.4451,-1.4492,-1.4793,-1.5349,-1.5173,-1.5135,-1.5381,-1.54,-1.54,-1.54,-1.54,-1.54,-1.54,-1.54,-1.5397,-1.5401,-1.5401,-1.5404,-1.5406,-1.5955,-1.6687,-1.7572,-1.8313,-1.5917,-1.1152,-0.8325,-0.4374,-0.026,-0.3259,-0.9409,-1.6984,-1.8841,-1.9654,-1.9816,-1.9948,-1.9935,-1.9893,-2.0079,-2.0083,-2.0022,-1.9999,-1.9434,-1.8682,-1.815,-1.6791,-1.5199,-1.4134,-1.223,-1.0104,-0.8429,-0.7172,-0.6119,-0.509,-0.502,-0.5566,-0.6905,-0.8671,-0.986,-0.9284,-0.9655,-0.9978,-0.9822,-0.984,-0.971,-0.9246,-0.8866,-0.8046,-0.6513,-0.6453,-0.6353,-0.6037,-0.6647,-0.7115,-0.7277,-0.6823,-0.5859,-0.435,-0.3904,-0.3451,-0.3004,-0.2982,-0.308,-0.3352,-0.3384,-0.3276,-0.3082,-0.3166,-0.3164,-0.305,-0.208,-0.1132,-0.0314,-0.0895,-0.0806,-0.0269,-0.0267,0.0312,0.1251,0.2317,0.3155,0.3809,0.4256,0.4783,0.5305,-1.6654,-1.6696,-1.6477,-1.5226,-1.5111,-1.5156,-1.5019,-1.5111,-1.5199,-1.5199,-1.5263,-1.5301,-1.5291,-1.3823,-1.3524,-1.5253,-1.461,-1.4482,-1.5342,-1.54,-1.54,-1.54,-1.54,-1.54,-1.54,-1.54,-1.5404,-1.5406,-1.5406,-1.5401,-1.5395,-1.5336,-1.5894,-1.6939,-1.7539,-1.8679,-1.9273,-0.5818,-0.0077,-0.0875,-1.0959,-1.2105,-0.8439,-1.4674,-1.7413,-1.8008,-1.861,-1.8817,-1.8942,-1.9727,-1.9828,-1.9541,-1.9143,-1.8699,-1.8109,-1.7115,-1.6111,-1.4834,-1.2722,-1.1314,-1.0082,-0.8433,-0.7409,-0.6641,-0.6031,-0.6547,-0.7455,-0.8456,-0.9824,-1.0147,-0.8084,-0.8829,-0.9176,-0.7581,-0.835,-0.9015,-0.8746,-0.8249,-0.7779,-0.7429,-0.6154,-0.5764,-0.6889,-0.6824,-0.6926,-0.7471,-0.7565,-0.7011,-0.5648,-0.4631,-0.3673,-0.2752,-0.326,-0.3306,-0.2717,-0.3304,-0.3422,-0.3083,-0.3315,-0.3308,-0.3053,-0.2186,-0.1473,-0.094,-0.1518,-0.1429,-0.0895,-0.0889,0.0178,0.1829,0.2451,0.3377,0.4389,0.4389,0.4783,0.5392,-1.5666,-1.5686,-1.5606,-1.5207,-1.5168,-1.5193,-1.514,-1.5168,-1.5199,-1.5199,-1.4219,-1.3747,-1.4347,-1.3981,-1.3692,-1.3697,-1.3443,-1.3633,-1.4463,-1.4512,-1.4775,-1.5371,-1.54,-1.54,-1.54,-1.5402,-1.5399,-1.54,-1.5351,-1.5608,-1.6143,-1.6358,-1.7028,-1.7937,-1.5005,-1.5499,-1.8023,-1.0204,-0.6222,-0.5765,-1.2502,-1.4716,-1.4272,-1.6686,-1.7728,-1.7932,-1.8119,-1.8391,-1.8768,-1.9496,-1.9487,-1.9108,-1.8552,-1.7904,-1.7007,-1.5334,-1.4097,-1.3084,-1.2089,-1.0842,-0.9749,-0.9368,-0.883,-0.8453,-0.8805,-0.9971,-1.0922,-1.0751,-1.1071,-1.0871,-0.939,-0.9086,-0.8985,-0.8638,-0.8926,-0.9119,-0.8978,-0.8505,-0.7605,-0.6096,-0.5555,-0.5116,-0.4651,-0.5351,-0.6066,-0.6628,-0.6539,-0.604,-0.5102,-0.4783,-0.4164,-0.3157,-0.3435,-0.349,-0.3306,-0.343,-0.3375,-0.3236,-0.3286,-0.3164,-0.2826,-0.2554,-0.2096,-0.1563,-0.214,-0.1829,-0.0895,-0.0889,0.0178,0.1874,0.2451,0.3639,0.4998,0.4998,0.5645,0.6507,-1.5199,-1.5199,-1.5199,-1.5199,-1.5199,-1.5177,-1.513,-1.5165,-1.508,-1.4753,-1.3821,-1.3157,-1.3069,-1.3105,-1.3058,-1.291,-1.2598,-1.2891,-1.4033,-1.4102,-1.4492,-1.5361,-1.5397,-1.5397,-1.5397,-1.5375,-1.5356,-1.5359,-1.532,-1.5537,-1.6023,-1.6229,-1.6,-1.5353,-1.4218,-1.4849,-1.659,-1.4041,-1.0881,-0.8046,-1.3147,-1.565,-1.637,-1.6739,-1.6852,-1.6808,-1.6811,-1.7139,-1.7667,-1.8127,-1.8452,-1.8539,-1.7866,-1.7308,-1.6523,-1.4607,-1.3367,-1.2448,-1.1637,-1.0588,-0.9832,-1.0191,-0.9872,-0.9746,-1.0789,-1.2068,-1.285,-1.2194,-1.1997,-1.1311,-0.9354,-0.8577,-0.8255,-0.835,-0.8745,-0.9151,-0.9352,-0.8995,-0.803,-0.6185,-0.56,-0.5035,-0.4125,-0.5053,-0.5895,-0.6306,-0.6324,-0.5911,-0.5045,-0.4709,-0.4207,-0.3432,-0.3531,-0.358,-0.358,-0.3528,-0.3407,-0.3308,-0.3308,-0.3057,-0.2614,-0.2699,-0.2495,-0.214,-0.2317,-0.1918,-0.1206,-0.0488,0.0577,0.1874,0.2721,0.3953,0.5305,0.5305,0.6036,0.6979,-1.5199,-1.5199,-1.5199,-1.5199,-1.5199,-1.5159,-1.5028,-1.5124,-1.4887,-1.4008,-1.3907,-1.3287,-1.168,-1.1452,-1.1758,-1.2637,-1.1982,-1.2197,-1.3818,-1.3984,-1.4404,-1.5272,-1.5375,-1.5397,-1.5388,-1.5328,-1.5303,-1.5291,-1.5291,-1.5263,-1.5199,-1.5199,-1.3497,-1.0642,-1.4891,-1.6189,-1.5295,-1.6859,-1.3893,-0.8547,-1.3291,-1.5199,-1.5199,-1.5199,-1.5117,-1.4997,-1.4964,-1.5367,-1.5919,-1.6051,-1.6982,-1.7951,-1.7167,-1.694,-1.6581,-1.4795,-1.3618,-1.2637,-1.1254,-1.0545,-1.033,-1.087,-1.0636,-1.0636,-1.2025,-1.2984,-1.3452,-1.2853,-1.2564,-1.1437,-0.832,-0.7556,-0.7345,-0.7186,-0.813,-0.9147,-0.988,-0.9632,-0.8798,-0.7345,-0.6172,-0.5327,-0.4897,-0.5715,-0.6265,-0.6381,-0.6699,-0.6425,-0.5346,-0.4461,-0.3874,-0.3614,-0.358,-0.358,-0.358,-0.358,-0.3507,-0.3323,-0.3323,-0.3071,-0.2572,-0.2717,-0.2763,-0.2717,-0.2186,-0.1871,-0.1688,0.0,0.1153,0.1911,0.3036,0.4182,0.526,0.5305,0.5993,0.6937,-1.5199,-1.5199,-1.5199,-1.5199,-1.5199,-1.5193,-1.5159,-1.5177,-1.4891,-1.4007,-1.3378,-1.2617,-1.1607,-1.0909,-1.0615,-1.0889,-1.0732,-1.1064,-1.2119,-1.2812,-1.355,-1.4375,-1.505,-1.5378,-1.532,-1.5306,-1.5268,-1.5224,-1.5224,-1.5224,-1.5199,-1.5199,-1.4766,-1.4036,-1.5122,-1.5449,-1.5228,-1.5618,-1.4868,-1.3512,-1.4709,-1.5199,-1.5199,-1.5199,-1.5117,-1.4975,-1.4709,-1.5174,-1.5919,-1.6051,-1.6982,-1.7999,-1.7453,-1.732,-1.687,-1.4419,-1.3143,-1.2212,-1.0804,-1.038,-1.0524,-1.1603,-1.1894,-1.2202,-1.3319,-1.3725,-1.3883,-1.4008,-1.2705,-1.0999,-0.9332,-0.8699,-0.8425,-0.8509,-0.915,-0.9916,-1.0631,-0.9669,-0.8407,-0.712,-0.601,-0.5108,-0.4591,-0.5157,-0.5745,-0.622,-0.5895,-0.5583,-0.5295,-0.426,-0.367,-0.3617,-0.358,-0.358,-0.358,-0.358,-0.3563,-0.3526,-0.3526,-0.348,-0.3349,-0.3382,-0.3396,-0.3396,-0.3219,-0.2631,-0.1788,-0.1318,0.0,0.1831,0.2115,0.3199,0.465,0.513,0.5782,0.6435,-1.5183,-1.5133,-1.509,-1.5177,-1.457,-1.432,-1.5074,-1.4551,-1.3887,-1.3412,-1.2623,-1.18,-1.0989,-1.0475,-1.0226,-1.0293,-1.0303,-1.0674,-1.1543,-1.2422,-1.3256,-1.4067,-1.4914,-1.5339,-1.5301,-1.5272,-1.5036,-1.4613,-1.4613,-1.4613,-1.4613,-1.5007,-1.5199,-1.5199,-1.5199,-1.5199,-1.5199,-1.5199,-1.5199,-1.5199,-1.5199,-1.5199,-1.5199,-1.5199,-1.5101,-1.4924,-1.4747,-1.4932,-1.5275,-1.5337,-1.634,-1.7461,-1.7006,-1.7149,-1.7012,-1.4496,-1.3073,-1.2012,-1.0636,-1.0394,-1.0912,-1.2324,-1.2562,-1.2737,-1.3727,-1.3984,-1.395,-1.3858,-1.2487,-1.0898,-0.9404,-0.8615,-0.8216,-0.8503,-0.8955,-0.9551,-1.0235,-0.9359,-0.8263,-0.716,-0.629,-0.56,-0.5077,-0.549,-0.5922,-0.6258,-0.5681,-0.5305,-0.5298,-0.4217,-0.3619,-0.3621,-0.358,-0.358,-0.358,-0.3509,-0.3475,-0.3475,-0.3476,-0.3519,-0.3521,-0.3593,-0.358,-0.358,-0.3038,-0.2396,-0.1717,-0.0686,0.0555,0.1843,0.2319,0.3279,0.4476,0.5087,0.5698,0.6267,-1.5177,-1.4861,-1.4538,-1.4445,-1.3397,-1.307,-1.4589,-1.3614,-1.2647,-1.2521,-1.1858,-1.1094,-1.029,-1.0202,-1.0227,-1.0292,-1.0303,-1.0605,-1.1357,-1.2206,-1.2986,-1.3686,-1.4474,-1.4907,-1.4907,-1.4849,-1.4459,-1.3718,-1.3718,-1.378,-1.3898,-1.4643,-1.505,-1.5159,-1.5171,-1.5168,-1.5168,-1.5168,-1.5168,-1.5171,-1.5159,-1.5143,-1.5143,-1.5143,-1.504,-1.4868,-1.4868,-1.4717,-1.4533,-1.4533,-1.5515,-1.6671,-1.6235,-1.6588,-1.6768,-1.458,-1.3006,-1.1659,-1.0171,-1.0296,-1.116,-1.2683,-1.2782,-1.2736,-1.3657,-1.3863,-1.3667,-1.305,-1.1997,-1.0666,-0.8981,-0.8062,-0.7694,-0.803,-0.8377,-0.8854,-0.95,-0.8947,-0.8183,-0.7379,-0.6842,-0.6344,-0.6034,-0.6292,-0.6487,-0.6487,-0.5848,-0.5392,-0.5305,-0.4316,-0.3667,-0.3624,-0.358,-0.358,-0.358,-0.3385,-0.3308,-0.3308,-0.3351,-0.3392,-0.3397,-0.3554,-0.3534,-0.3398,-0.2394,-0.1811,-0.149,0.0542,0.1543,0.1905,0.2857,0.3664,0.4349,0.5043,0.5612,0.6136,-1.5199,-1.4034,-1.2593,-1.1138,-1.1474,-1.2204,-1.2969,-1.2873,-1.2444,-1.1699,-1.1474,-1.109,-1.029,-1.0203,-1.0227,-1.0292,-1.0303,-1.0361,-1.0488,-1.1258,-1.177,-1.1903,-1.267,-1.3104,-1.3104,-1.3094,-1.3017,-1.2892,-1.2892,-1.3211,-1.3819,-1.3952,-1.4349,-1.4945,-1.5011,-1.5035,-1.5035,-1.5035,-1.5035,-1.5028,-1.4976,-1.4955,-1.4955,-1.4955,-1.4859,-1.4727,-1.4727,-1.4698,-1.4677,-1.4677,-1.5287,-1.6,-1.5703,-1.5664,-1.5408,-1.3743,-1.2108,-1.0416,-0.8435,-0.9048,-1.0595,-1.2075,-1.2641,-1.2992,-1.3664,-1.3242,-1.268,-1.2449,-1.0997,-0.9465,-0.8594,-0.8128,-0.7957,-0.8354,-0.8561,-0.9013,-0.9948,-0.8888,-0.7961,-0.7808,-0.7257,-0.6888,-0.6804,-0.6855,-0.6914,-0.6914,-0.6367,-0.583,-0.5348,-0.4655,-0.4049,-0.3622,-0.358,-0.358,-0.358,-0.3385,-0.3308,-0.3392,-0.3349,-0.3308,-0.3313,-0.3509,-0.3306,-0.2847,-0.2623,-0.198,-0.099,-0.0123,0.0856,0.1866,0.2531,0.3193,0.384,0.4918,0.5348,0.5607,-1.5187,-1.4378,-1.3117,-1.1336,-1.0936,-1.1291,-1.2507,-1.1906,-1.1324,-1.1392,-1.1022,-1.061,-1.0244,-1.023,-1.0269,-1.0302,-1.0303,-1.0303,-1.0303,-1.1045,-1.1501,-1.1499,-1.2575,-1.2878,-1.2224,-1.2074,-1.1997,-1.1997,-1.2469,-1.2841,-1.3109,-1.3583,-1.4192,-1.4876,-1.4441,-1.4511,-1.4951,-1.4951,-1.4951,-1.4942,-1.4902,-1.4904,-1.4904,-1.4904,-1.4823,-1.4708,-1.4785,-1.4766,-1.4698,-1.4698,-1.5227,-1.5841,-1.5495,-1.5394,-1.5101,-1.354,-1.1505,-0.9577,-0.8774,-0.911,-1.0043,-1.156,-1.1994,-1.2152,-1.2573,-1.2142,-1.1666,-1.16,-1.0464,-0.9341,-0.9055,-0.8403,-0.8062,-0.8537,-0.815,-0.8047,-0.8848,-0.805,-0.7405,-0.7405,-0.7147,-0.6979,-0.6979,-0.6979,-0.6979,-0.6979,-0.6209,-0.561,-0.5305,-0.4441,-0.3836,-0.3624,-0.358,-0.3539,-0.3456,-0.3262,-0.3225,-0.3225,-0.3149,-0.3113,-0.3187,-0.33,-0.3164,-0.2906,-0.2323,-0.1797,-0.1175,0.0279,0.1251,0.187,0.2756,0.3283,0.3755,0.4874,0.5305,0.546,-1.3963,-1.372,-1.3046,-1.1647,-1.0681,-1.055,-1.1891,-1.0964,-1.0344,-1.1008,-1.0576,-1.0199,-1.0199,-1.0257,-1.0302,-1.0302,-1.0303,-1.0302,-1.0301,-1.0865,-1.1198,-1.1194,-1.2222,-1.2353,-1.1421,-1.1204,-1.1098,-1.1098,-1.1776,-1.2121,-1.2186,-1.2862,-1.3616,-1.4419,-1.3832,-1.4031,-1.4813,-1.4841,-1.485,-1.485,-1.4823,-1.4804,-1.4804,-1.4804,-1.4737,-1.4677,-1.4813,-1.4785,-1.4698,-1.4737,-1.5137,-1.5574,-1.5265,-1.5079,-1.4729,-1.3534,-1.1257,-0.9081,-0.8945,-0.9038,-0.9522,-1.1046,-1.1295,-1.1258,-1.1617,-1.1238,-1.0856,-1.0847,-1.0133,-0.9478,-0.9319,-0.8557,-0.8036,-0.8439,-0.7644,-0.7192,-0.7833,-0.736,-0.6979,-0.6979,-0.6979,-0.6979,-0.6979,-0.6979,-0.6979,-0.6979,-0.6079,-0.5437,-0.5305,-0.432,-0.3656,-0.3527,-0.3527,-0.347,-0.3309,-0.3125,-0.3071,-0.3069,-0.2963,-0.2983,-0.3083,-0.3118,-0.3094,-0.2895,-0.2042,-0.1565,-0.1251,0.082,0.1687,0.1925,0.3006,0.3602,0.3926,0.4918,0.5392,0.5618,-1.0416,-1.0452,-1.0382,-1.0254,-1.0161,-1.0142,-1.0267,-1.0181,-1.0123,-1.019,-1.0198,-1.0199,-1.0199,-1.0263,-1.0302,-1.0303,-1.0303,-1.03,-1.0302,-1.03,-1.0299,-1.0298,-1.0339,-1.0319,-1.0229,-1.021,-1.02,-1.02,-1.0258,-1.0603,-1.1205,-1.1278,-1.1916,-1.3063,-1.3365,-1.3884,-1.4533,-1.4666,-1.4708,-1.4698,-1.458,-1.4522,-1.4522,-1.4522,-1.4522,-1.4533,-1.4666,-1.4708,-1.4718,-1.4832,-1.4832,-1.4781,-1.4751,-1.4232,-1.3612,-1.35,-1.1562,-0.912,-0.7592,-0.7937,-0.9087,-1.051,-1.079,-1.0895,-1.1485,-1.0989,-1.0443,-1.0349,-0.9878,-0.9359,-0.8837,-0.8279,-0.7916,-0.7953,-0.7405,-0.7192,-0.7833,-0.736,-0.6979,-0.6979,-0.6979,-0.6979,-0.6979,-0.6979,-0.6979,-0.6979,-0.6477,-0.5876,-0.5348,-0.4572,-0.3902,-0.3324,-0.3324,-0.3361,-0.3392,-0.3068,-0.2925,-0.2925,-0.2915,-0.2983,-0.3087,-0.3227,-0.3,-0.2537,-0.1988,-0.1404,-0.0625,0.109,0.1804,0.193,0.3111,0.3913,0.4432,0.5043,0.5655,0.6186,-0.9863,-0.9987,-1.0104,-1.0104,-1.0104,-1.0104,-1.0104,-1.0104,-1.0104,-1.0104,-1.0157,-1.0198,-1.0196,-1.0263,-1.0303,-1.0303,-1.0303,-1.03,-1.0297,-1.0244,-1.0178,-1.014,-1.0113,-1.0104,-1.0104,-1.0058,-1.0039,-1.0038,-1.0545,-1.0961,-1.1292,-1.1328,-1.1733,-1.2333,-1.0831,-1.1764,-1.4499,-1.4547,-1.458,-1.4569,-1.4522,-1.4497,-1.4497,-1.4497,-1.4497,-1.452,-1.4656,-1.4698,-1.4717,-1.4766,-1.4737,-1.4687,-1.4592,-1.4081,-1.3225,-1.1858,-1.0464,-0.9101,-0.7801,-0.8063,-0.8885,-0.9734,-1.0278,-1.0629,-1.0667,-1.0508,-1.0343,-1.0326,-0.9878,-0.9439,-0.9239,-0.848,-0.7916,-0.7916,-0.7405,-0.7063,-0.7321,-0.715,-0.6979,-0.6979,-0.6979,-0.6979,-0.6979,-0.6979,-0.6979,-0.6979,-0.6167,-0.5503,-0.5186,-0.413,-0.345,-0.3304,-0.3132,-0.3119,-0.3207,-0.301,-0.2862,-0.2768,-0.2768,-0.2846,-0.2988,-0.2951,-0.2686,-0.2299,-0.173,-0.0987,-0.0039,0.1247,0.2008,0.244,0.3285,0.3707,0.3997,0.4777,0.5341,0.5812,-0.9863,-0.9977,-1.0104,-1.0104,-1.0104,-1.0104,-1.0104,-1.0104,-1.0113,-1.0133,-1.0175,-1.0196,-1.0204,-1.0261,-1.0303,-1.0303,-1.0303,-1.0297,-1.03,-1.0244,-1.0173,-1.0098,-1.0104,-1.0104,-1.0104,-1.0025,-1.0006,-0.9997,-1.0527,-1.0831,-1.0896,-1.0939,-1.11,-1.1241,-0.9072,-1.0304,-1.4022,-1.4359,-1.4497,-1.4497,-1.4497,-1.4497,-1.4497,-1.4497,-1.4497,-1.452,-1.4656,-1.4667,-1.4645,-1.4687,-1.4667,-1.4614,-1.4533,-1.4007,-1.3017,-1.1067,-0.9999,-0.9227,-0.8179,-0.8238,-0.8645,-0.8975,-0.9568,-1.0049,-0.9956,-1.0006,-1.0074,-1.0055,-0.976,-0.9399,-0.9079,-0.8398,-0.7833,-0.7659,-0.7276,-0.6979,-0.6979,-0.6979,-0.6979,-0.6979,-0.6979,-0.6979,-0.6979,-0.6941,-0.6884,-0.6884,-0.5757,-0.4875,-0.4424,-0.3675,-0.3213,-0.3167,-0.2968,-0.2908,-0.3054,-0.291,-0.2784,-0.2714,-0.273,-0.2807,-0.2908,-0.2715,-0.2494,-0.2175,-0.1475,-0.0644,0.0274,0.1372,0.2242,0.3024,0.3609,0.4098,0.4478,0.5099,0.5598,0.6083,-1.0104,-1.0104,-1.0104,-1.0104,-1.0104,-1.0104,-1.0104,-1.0104,-1.0113,-1.0185,-1.0204,-1.0204,-1.0204,-1.0258,-1.0303,-1.0303,-1.0303,-1.0299,-1.0296,-1.0242,-1.0175,-1.0104,-1.0104,-1.0104,-1.0104,-1.0034,-1.0006,-0.9997,-0.9933,-0.9866,-0.9804,-0.9785,-0.9735,-0.9616,-0.8585,-0.99,-1.2957,-1.4031,-1.4478,-1.4478,-1.4478,-1.4478,-1.4488,-1.4488,-1.4488,-1.452,-1.4656,-1.4603,-1.4511,-1.4656,-1.4612,-1.4488,-1.4497,-1.3893,-1.2914,-1.1507,-1.0488,-0.9569,-0.8562,-0.8285,-0.8285,-0.8285,-0.8597,-0.902,-0.9484,-0.9602,-0.9561,-0.9515,-0.9518,-0.9159,-0.8118,-0.7916,-0.7704,-0.7108,-0.7021,-0.7021,-0.7021,-0.6979,-0.6979,-0.6979,-0.6979,-0.6979,-0.6979,-0.676,-0.659,-0.659,-0.5341,-0.4097,-0.2953,-0.3331,-0.3367,-0.291,-0.2759,-0.2754,-0.2907,-0.2757,-0.2716,-0.2718,-0.2837,-0.291,-0.2884,-0.2611,-0.2387,-0.2142,-0.1262,-0.0469,0.0312,0.1365,0.2465,0.3586,0.4164,0.5132,0.6181,0.6179,0.6622,0.7145,-1.0104,-1.0104,-1.0104,-1.0104,-1.0104,-1.0104,-1.0104,-1.0104,-1.0145,-1.0263,-1.0233,-1.0204,-1.0204,-1.0258,-1.0303,-1.0303,-1.0303,-1.028,-1.0229,-1.0175,-1.0123,-1.0104,-1.0104,-1.0104,-1.0104,-1.0035,-1.0006,-0.9997,-0.9933,-0.9866,-0.9766,-0.8261,-0.7093,-0.6382,-0.9172,-1.092,-1.182,-1.2517,-1.282,-1.282,-1.282,-1.315,-1.3666,-1.3666,-1.4013,-1.4497,-1.4392,-1.4323,-1.4295,-1.4335,-1.423,-1.4024,-1.3745,-1.3193,-1.241,-1.1183,-1.0337,-0.9568,-0.8568,-0.8285,-0.8285,-0.8285,-0.8597,-0.902,-0.9484,-0.9602,-0.9677,-0.9992,-0.9478,-0.8837,-0.8517,-0.8156,-0.7704,-0.7108,-0.736,-0.7489,-0.7063,-0.6979,-0.6979,-0.6979,-0.6979,-0.6979,-0.6979,-0.676,-0.659,-0.659,-0.5262,-0.4135,-0.344,-0.3113,-0.2935,-0.2905,-0.2759,-0.2754,-0.2907,-0.2864,-0.284,-0.2842,-0.2888,-0.2963,-0.3015,-0.2423,-0.2023,-0.171,-0.0611,0.0429,0.141,0.2541,0.3423,0.4208,0.4778,0.5262,0.5591,0.5766,0.6441,0.7203,-1.011,-1.0104,-1.0121,-1.0166,-1.0135,-1.0104,-1.0104,-1.0148,-1.0204,-1.0248,-1.0248,-1.0224,-1.0195,-1.0264,-1.0303,-1.0303,-1.0254,-1.0202,-1.0164,-1.0123,-1.0104,-1.0104,-1.0104,-1.0104,-1.0104,-1.0058,-1.0039,-1.0038,-0.9922,-0.9844,-0.9766,-0.8471,-0.7461,-0.6892,-1.0413,-1.1847,-1.1654,-1.2297,-1.2573,-1.2573,-1.2573,-1.2867,-1.3326,-1.3657,-1.4077,-1.4476,-1.427,-1.4197,-1.4197,-1.4101,-1.3929,-1.3686,-1.3386,-1.2813,-1.2081,-1.1197,-1.0394,-0.9612,-0.8723,-0.8393,-0.8262,-0.8091,-0.8496,-0.9025,-0.9304,-0.9636,-0.9886,-0.9987,-0.9279,-0.872,-0.872,-0.8279,-0.7787,-0.7405,-0.7659,-0.7704,-0.7063,-0.6979,-0.6979,-0.6979,-0.6979,-0.6974,-0.6864,-0.659,-0.6281,-0.5826,-0.4969,-0.4186,-0.3535,-0.3125,-0.2888,-0.2817,-0.2729,-0.2725,-0.2818,-0.2879,-0.2879,-0.282,-0.2881,-0.2922,-0.2907,-0.2166,-0.1727,-0.142,-0.0076,0.0986,0.1891,0.3045,0.3929,0.4671,0.5358,0.5724,0.5881,0.6369,0.6989,0.7571,-1.0144,-1.0121,-1.0162,-1.0281,-1.0203,-1.0107,-1.0098,-1.0201,-1.0258,-1.0198,-1.0238,-1.0262,-1.0204,-1.0253,-1.0282,-1.0282,-1.0169,-1.0104,-1.0104,-1.0104,-1.0104,-1.0104,-1.0104,-1.0104,-1.0104,-1.0104,-1.0104,-1.0104,-0.9922,-0.9825,-0.9813,-0.9813,-0.9777,-0.9796,-1.1829,-1.2463,-1.204,-1.2775,-1.3087,-1.3087,-1.3087,-1.3133,-1.328,-1.4086,-1.4433,-1.4464,-1.4248,-1.4175,-1.4136,-1.3927,-1.3686,-1.3451,-1.3295,-1.264,-1.1854,-1.141,-1.0572,-0.967,-0.8991,-0.8578,-0.8228,-0.7812,-0.8345,-0.896,-0.8994,-0.9609,-1.007,-0.9667,-0.9159,-0.8756,-0.8756,-0.8357,-0.8036,-0.7995,-0.7995,-0.7825,-0.7192,-0.7063,-0.7053,-0.6987,-0.6981,-0.687,-0.658,-0.6324,-0.5737,-0.4669,-0.4567,-0.4175,-0.3358,-0.3259,-0.3066,-0.2714,-0.2714,-0.2714,-0.2714,-0.282,-0.2825,-0.2703,-0.2842,-0.2835,-0.2676,-0.1931,-0.1435,-0.1127,0.0344,0.1363,0.2045,0.3156,0.4147,0.5038,0.5898,0.6416,0.6741,0.758,0.8027,0.8244,-1.0258,-1.0257,-1.0269,-1.0293,-1.0281,-1.0219,-1.0121,-1.0117,-1.0145,-1.0121,-1.0131,-1.0138,-1.0118,-1.0128,-1.0138,-1.0138,-1.0121,-1.0104,-1.0104,-1.0104,-1.0104,-1.0104,-1.0104,-1.0104,-1.0104,-1.0104,-1.0104,-1.0104,-1.0061,-1.0011,-0.9962,-0.9962,-0.9895,-0.9826,-1.0916,-1.132,-1.1168,-1.1342,-1.1416,-1.1416,-1.1416,-1.1801,-1.2444,-1.3252,-1.3949,-1.4443,-1.4087,-1.3969,-1.3913,-1.3613,-1.3436,-1.3269,-1.2875,-1.2158,-1.138,-1.1066,-1.0452,-0.9719,-0.9002,-0.8734,-0.8517,-0.7865,-0.812,-0.8599,-0.8931,-0.915,-0.9437,-1.0026,-0.9681,-0.9319,-0.9319,-0.9239,-0.8999,-0.8598,-0.8878,-0.8797,-0.7825,-0.7704,-0.7441,-0.675,-0.6683,-0.6567,-0.6317,-0.5982,-0.5488,-0.4654,-0.4312,-0.3888,-0.3323,-0.3003,-0.2777,-0.2714,-0.2714,-0.2714,-0.2714,-0.2715,-0.2774,-0.2859,-0.2893,-0.2891,-0.2822,-0.182,-0.109,-0.0506,0.0952,0.2197,0.3197,0.4188,0.4972,0.5613,0.6389,0.6702,0.6867,0.7694,0.8527,0.9483,-1.0303,-1.0303,-1.0303,-1.0303,-1.0303,-1.0254,-1.0117,-1.0098,-1.0104,-1.0104,-1.0104,-1.0104,-1.0104,-1.0104,-1.0104,-1.0104,-1.0104,-1.0104,-1.0104,-1.0104,-1.0104,-1.0104,-1.0104,-1.0104,-1.0104,-1.0104,-1.0078,-1.0049,-1.002,-0.9966,-0.9901,-0.9875,-1.0021,-1.0359,-1.1172,-1.1515,-1.1462,-1.1462,-1.1251,-1.0902,-1.0902,-1.1379,-1.2187,-1.2986,-1.3793,-1.4453,-1.4038,-1.3807,-1.362,-1.332,-1.3096,-1.2893,-1.2533,-1.1809,-1.1113,-1.108,-1.0532,-0.9783,-0.9194,-0.8909,-0.8623,-0.7894,-0.8052,-0.8518,-0.8906,-0.916,-0.9487,-1.0146,-0.9878,-0.9558,-0.9839,-0.9677,-0.9403,-0.9119,-0.9119,-0.8837,-0.7995,-0.7659,-0.7248,-0.6663,-0.659,-0.642,-0.5985,-0.5678,-0.5245,-0.4643,-0.4215,-0.3791,-0.3325,-0.2907,-0.2714,-0.2714,-0.2714,-0.2714,-0.2714,-0.2714,-0.2722,-0.28,-0.259,-0.2487,-0.2448,-0.146,-0.0699,-0.0037,0.1232,0.2355,0.3404,0.4441,0.505,0.5415,0.6396,0.6697,0.6721,0.7924,0.917,1.0489,-1.027,-1.0282,-1.0293,-1.027,-1.0269,-1.0233,-1.0121,-1.0104,-1.0104,-1.0104,-1.0104,-1.01,-1.0078,-1.0086,-1.0104,-1.0104,-1.0104,-1.0104,-1.0104,-1.0104,-1.009,-1.0078,-1.0086,-1.009,-1.0082,-1.009,-1.0075,-1.0025,-0.9964,-0.9899,-0.9828,-0.9766,-1.016,-1.0947,-1.1608,-1.1966,-1.2086,-1.1948,-1.1517,-1.0902,-1.0902,-1.1297,-1.2003,-1.294,-1.3712,-1.426,-1.4002,-1.3602,-1.3177,-1.2895,-1.2637,-1.2382,-1.2232,-1.1623,-1.1001,-1.1173,-1.064,-0.988,-0.9448,-0.906,-0.8629,-0.7976,-0.8028,-0.8398,-0.8892,-0.9296,-0.9719,-1.019,-0.9961,-0.976,-1.0083,-0.9799,-0.9483,-0.9359,-0.8999,-0.8517,-0.7995,-0.7484,-0.7042,-0.6664,-0.6538,-0.6243,-0.5685,-0.5353,-0.4988,-0.4535,-0.4118,-0.3693,-0.3229,-0.2874,-0.2714,-0.2714,-0.2714,-0.2714,-0.2714,-0.2714,-0.2714,-0.2681,-0.2214,-0.2014,-0.1981,-0.1108,-0.032,0.0429,0.1428,0.2456,0.3486,0.4484,0.498,0.5261,0.6324,0.6628,0.6649,0.8317,0.9758,1.1045,-1.0154,-1.0219,-1.0258,-1.0151,-1.0125,-1.0118,-1.0098,-1.0104,-1.0104,-1.0104,-1.0104,-1.0079,-1.0015,-1.0066,-1.0104,-1.0104,-1.0104,-1.0104,-1.0104,-1.0104,-1.0065,-1.002,-1.0071,-1.0074,-1.0006,-1.0074,-1.01,-1.0092,-1.0084,-1.0034,-0.9977,-0.9904,-1.0268,-1.0997,-1.1037,-1.1443,-1.2049,-1.1361,-1.1003,-1.0902,-1.0902,-1.0967,-1.1232,-1.2729,-1.3372,-1.3503,-1.3788,-1.3272,-1.2409,-1.2141,-1.1862,-1.1698,-1.2092,-1.1753,-1.1219,-1.1001,-1.066,-1.0204,-0.9569,-0.9089,-0.8706,-0.8313,-0.7997,-0.7992,-0.8823,-0.9296,-0.9719,-1.019,-1.0239,-1.0079,-0.9681,-0.9562,-0.9359,-0.8878,-0.876,-0.8517,-0.7995,-0.7892,-0.7609,-0.6863,-0.6326,-0.583,-0.5411,-0.4947,-0.4538,-0.4121,-0.3656,-0.3231,-0.2812,-0.2746,-0.2714,-0.2714,-0.2714,-0.2714,-0.2714,-0.2714,-0.2714,-0.2681,-0.2214,-0.2014,-0.1981,-0.1108,-0.0071,0.1009,0.1819,0.3102,0.4661,0.4851,0.5377,0.6141,0.6419,0.6723,0.718,0.8884,0.9871,1.064,-1.0221,-1.0203,-1.0166,-1.011,-1.0104,-1.0104,-1.0104,-1.0104,-1.0104,-1.0104,-1.0104,-1.0092,-1.0058,-1.0074,-1.0104,-1.0104,-1.0066,-1.0039,-1.0039,-1.0039,-1.003,-0.9999,-1.003,-1.0049,-1.0061,-1.0082,-1.0104,-1.0104,-1.0056,-0.9992,-0.9893,-0.986,-1.0245,-1.0934,-1.0911,-1.1095,-1.1407,-1.1049,-1.0636,-1.0232,-1.0232,-1.0507,-1.0985,-1.1691,-1.2194,-1.2522,-1.251,-1.2321,-1.2033,-1.1758,-1.1769,-1.1902,-1.1961,-1.1564,-1.1087,-1.1111,-1.0653,-1.0059,-0.9727,-0.9227,-0.8706,-0.8393,-0.8197,-0.8188,-0.8569,-0.916,-0.964,-0.9832,-0.9695,-0.9417,-0.8871,-0.8759,-0.8682,-0.8448,-0.8587,-0.8598,-0.8398,-0.8379,-0.8028,-0.7034,-0.6246,-0.5647,-0.5326,-0.5029,-0.4624,-0.4034,-0.3793,-0.3495,-0.3068,-0.3035,-0.308,-0.3214,-0.289,-0.2722,-0.2807,-0.2723,-0.2723,-0.2807,-0.2006,-0.1608,-0.1574,-0.0703,0.0555,0.2066,0.2434,0.3607,0.5213,0.4992,0.5356,0.6112,0.6396,0.7154,0.8239,0.9223,1.0116,1.1044]}]]